     2              OBSERVATION DATA    GPS                 RINEX VERSION / TYPE
teqc 2000Feb29 Duncan Agnew 20000527 01:01:29UTC            PGM / RUN BY / DATE
                                                            COMMENT
L2: 1 -> 1; 5 -> 5; 60 -> 9                                 COMMENT
L2: 1 -> 1; 5 -> 5; 60 -> 9                                 COMMENT
L2: 1 -> 1; 5 -> 5; 60 -> 9                                 COMMENT
L2: 1 -> 1; 5 -> 5; 60 -> 9                                 COMMENT
L2: 1 -> 1; 5 -> 5; 60 -> 9                                 COMMENT
Original Marker Name: LAST                                  COMMENT
Campaign Name: CSRC Post Hector                             COMMENT
4-Character Station Name: LAST                              COMMENT
6-Character Antenna Code: TRMCMP                            COMMENT
Vertical Measurement Point: BPA                             COMMENT
Vertical Offset to Rinex Ref. Point: 0.0000                 COMMENT
Radial Measurement Point: RRP                               COMMENT
Radial Offset to Rinex Ref. Point: 0.0000                   COMMENT
Antenna Height from Field Measurement: 2.0000 m             COMMENT
Additional Antenna Identification Info.:                    COMMENT
Model 22020.00+GP                                           COMMENT
Original XYZ: -2433302.4986 -4712577.1404 3531740.5942      COMMENT
New XYZ position is based on association with SCEC monument COMMENT
E1D0P2H8+0011. Position of that monument is believed to be  COMMENT
valid to within 1 m horizontally; vertical accuracy         COMMENT
should be no worse than 3-times this value.                 COMMENT
                                                            COMMENT
Revised Rinex header created by UCSD GPS archive for        COMMENT
GSAC on 16-Jun-2000 (2000:168) 00:17:47 GMT                 COMMENT
For assistance contact dagnew@ucsd.edu                      COMMENT
or anderson@python.ucsd.edu                                 COMMENT
                                                            COMMENT
LAST 1960                                                   MARKER NAME
LAST                                                        MARKER NUMBER
-Unknown- RIVERSIDE COUNTY FCWCD                            OBSERVER / AGENCY
2233 TRIMBLE 4000 SSI NP 7.29; SP 3.07                      REC # / TYPE / VERS
80463 TR GEOD L1/L2 GP                                      ANT # / TYPE
 -2433304.2402 -4712577.7479  3531735.5441                  APPROX POSITION XYZ
        2.0000        0.0000        0.0000                  ANTENNA: DELTA H/E/N
     1     1     0                                          WAVELENGTH FACT L1/2
     7    C1    L1    L2    P1    P2    S1    S2            # / TYPES OF OBSERV
     0                                                      INTERVAL
  2000     5    11    19     0   15.000000                  TIME OF FIRST OBS
  2000     5    12     0    29   45.000000                  TIME OF LAST OBS
                                                            END OF HEADER
 00  5 11 19  0 15.0000000  0  7G 4G 5G 6G17G10G24G30
  24640137.9844      25614.31355
         9.5004
  20537656.1094    1117578.92458    870838.78857                  20537663.6724
        31.2504         31.0004
  22823729.7814   -3966786.29756  -3024392.41556                  22823738.4344
        18.2504         18.2504
  24391658.3204   -2382466.32055  -1676828.99055                  24391672.6684
         9.7504         11.0004
  21175481.2664   -2982173.12158  -2323768.27057                  21175489.2504
        29.0004         30.0004
  21657831.1884    3656188.59557   2848976.64357                  21657839.4774
        27.5004         26.5004
  20947785.0784   -3244290.08358  -2528017.60757                  20947791.8404
        29.2504         32.0004
 00  5 11 19  0 30.0000000  0  7G 4G 5G 6G17G10G24G30
  24649276.2114      73635.94045
        10.7504
  20540884.5004    1134543.82848    884058.17247                  20540891.8634
        31.0004         31.0004
  22817382.8914   -4000140.87246  -3050382.97146                  22817391.1334
        18.5004         18.5004
  24383347.9304   -2426139.75245  -1710860.04645                  24383362.4774
         9.7504         10.7504
  21172166.8984   -2999589.36048  -2337339.34547                  21172175.0124
        29.2504         30.0004
  21664205.6644    3689685.77047   2875078.31247                  21664213.8484
        27.2504         26.5004
  20943871.3204   -3264856.94848  -2544043.73247                  20943877.9534
        30.2504         32.2504
 00  5 11 19  0 45.0000000  0  7G 4G 5G 6G17G10G24G30
  24658411.6414     121639.48345
        10.7504
  20544136.8054    1151635.44848    897376.29447                  20544144.3554
        31.0004         31.0004
  22811036.5394   -4033490.79146  -3076369.89146                  22811044.8754
        18.2504         18.5004
  24375043.8524   -2469773.81645  -1744860.45645                  24375057.9884
        10.0004         11.0004
  21168879.3054   -3016865.90848  -2350801.57247                  21168887.3714
        29.0004         30.5004
  21670587.0314    3723221.12848   2901209.74247                  21670595.1334
        28.0004         26.5004
  20939981.1954   -3285299.30547  -2559972.84147                  20939987.7704
        24.0004         32.0004
 00  5 11 19  1  0.0000000  0  7G 4G 5G 6G17G10G24G30
  24667541.8674     169621.96545
        10.2504
  20547412.9694    1168850.93048    910790.92947                  20547420.3914
        31.0004         30.7504
  22804690.4924   -4066838.72646  -3102355.26546                  22804699.0044
        18.2504         18.5004
  24366747.4304   -2513371.18145  -1778832.26245                  24366762.8094
         9.7504         10.7504
  21165617.8204   -3034005.41848  -2364157.01847                  21165626.0164
        29.2504         30.2504
  21676975.3054    3756791.49948   2927368.45047                  21676983.6174
        28.0004         26.7504
  20936114.3204   -3305619.58448  -2575806.82347                  20936120.8134
        30.5004         32.0004
 00  5 11 19  1 15.0000000  0  7G 4G 5G 6G17G10G24G30
  24676668.5474     217581.84745     24909.38155                  24676678.6414
         9.5004          8.5004
  20550712.2424    1186188.74848    924300.89547                  20550719.7584
        31.0004         30.7504
  22798344.9844   -4100186.06746  -3128340.17946                  22798353.4384
        18.5004         18.7504
  24358458.1254   -2556933.24545  -1812776.56345                  24358473.7624
         9.2504         10.5004
  21162382.0394   -3051009.18448  -2377406.68847                  21162390.1994
        29.0004         30.2504
  21683369.8134    3790395.51248   2953553.37247                  21683377.9844
        28.0004         26.5004
  20932270.4224   -3325819.03748  -2591546.65447                  20932277.0664
        28.2504         32.0004
 00  5 11 19  1 30.0000000  0  7G 4G 5G 6G17G10G24G30
  24685792.2584     265525.69445     62268.15145                  24685800.8284
         9.0004          8.5004
  20554036.0474    1203655.69348    937911.47447                  20554043.4344
        31.2504         31.0004
  22792000.4694   -4133525.89146  -3154319.23446                  22792009.1334
        18.5004         19.2504
  24350175.7584   -2600452.94245  -1846687.87345                  24350190.7974
         8.7504         10.7504
  21159173.5634   -3067870.20248  -2390545.12647                  21159181.8284
        29.2504         30.5004
  21689772.2584    3824039.43048   2979769.39147                  21689780.3364
        28.0004         26.5004
  20928450.9614   -3345890.48648  -2607186.74247                  20928457.6644
        31.7504         32.0004
 00  5 11 19  1 45.0000000  0  7G 4G 5G 6G17G10G24G30
  24694911.7274     313451.32245     99612.75445                  24694921.3754
         9.0004          8.5004
  20557384.1484    1221249.32448    951620.77247                  20557391.6414
        31.0004         31.0004
  22785657.0474   -4166860.37846  -3180294.13846                  22785665.2664
        19.2504         19.2504
  24341902.1254   -2643932.42645  -1880567.81845                  24341917.9144
         9.0004         10.5004
  21155991.6174   -3084590.43348  -2403573.85947                  21155999.9184
        28.7504         30.5004
  21696181.6024    3857721.00548   3006014.75747                  21696189.7734
        28.0004         26.5004
  20924655.5634   -3365836.14047  -2622728.80847                  20924662.2664
        27.0004         32.0004
 00  5 11 19  2  0.0000000  0  7G 4G 5G 6G17G10G24G30
  24704028.2894     361357.68745    136942.31145                  24704039.4964
         9.5004          9.0004
  20560756.0634    1238968.84948    965428.16647                  20560763.5904
        31.0004         31.0004
  22779314.5474   -4200190.17146  -3206265.37746                  22779323.0354
        18.7504         19.2504
  24333635.8524   -2687372.41845  -1914416.99645                  24333651.3014
         9.5004         10.5004
  21152836.4844   -3101170.44048  -2416493.32847                  21152844.6804
        29.0004         30.2504
  21702598.1484    3891439.17348   3032288.62747                  21702606.2504
        28.2504         26.5004
  20920883.7894   -3385656.46748  -2638173.21847                  20920890.6214
        30.0004         32.0004
 00  5 11 19  2 15.0000000  0  7G 4G 5G 6G17G10G24G30
  24713140.4844     409243.35745    174255.73645                  24713150.7664
         9.5004         10.2504
  20564151.7034    1256813.03148    979332.69647                  20564159.2664
        30.5004         31.2504
  22772972.8204   -4233516.30746  -3232233.76546                  22772981.3674
        19.5004         19.5004
  24325376.9774   -2730773.97345  -1948236.23445                  24325393.5044
         9.0004         10.5004
  21149708.1334   -3117611.32048  -2429304.38747                  21149716.4574
        28.7504         30.2504
  21709021.1484    3925192.48248   3058589.88947                  21709029.2274
        28.0004         26.2504
  20917135.8134   -3405352.51647  -2653520.78947                  20917142.4804
        27.0004         32.2504
 00  5 11 19  2 30.0000000  0  7G 4G 5G 6G17G10G24G30
  24722248.9384     457110.04045    211554.37845                  24722257.9884
         8.5004          9.2504
  20567571.3054    1274783.48348    993335.62147                  20567579.0084
        31.0004         31.0004
  22766631.9774   -4266837.02146  -3258197.93646                  22766640.5474
        19.2504         19.0004
  24317125.0944   -2774135.20545  -1982024.05645                  24317140.8364
         9.0004         10.5004
  21146606.1724   -3133911.15148  -2442005.53447                  21146614.4964
        28.2504         30.2504
  21715451.1724    3958982.44647   3084919.71447                  21715459.1564
        27.7504         26.2504
  20913411.8444   -3424922.17848  -2668769.87147                  20913418.6764
        31.5004         32.5004
 00  5 11 19  2 45.0000000  0  7G 4G 5G 6G17G10G24G30
  24731354.9064     504955.70645    248836.60045                  24731365.1644
         8.2504          9.0004
  20571014.8134    1292878.15748   1007435.33847                  20571022.3874
        31.2504         31.2504
  22760291.9694   -4300154.16546  -3284159.32146                  22760300.4454
        19.2504         19.7504
  24308881.0004   -2817457.90745  -2015781.84245                  24308896.4024
         9.7504         11.0004
  21143530.7274   -3150071.62148  -2454598.09547                  21143539.0394
        28.2504         30.0004
  21721887.7194    3992806.85447   3111276.37347                  21721895.6564
        27.7504         26.2504
  20909711.4774   -3444367.16248  -2683921.80647                  20909718.4654
        30.7504         32.2504
 00  5 11 19  3  0.0000000  0  7G 4G 5G 6G17G10G24G30
  24740455.9534     552784.75645    286105.91445                  24740466.2344
         7.7504          7.5004
  20574482.4924    1311101.66048   1021635.44547                  20574490.3134
        30.7504         31.2504
  22753953.6954   -4333463.01546  -3310114.24646                  22753962.0434
        19.5004         19.5004
  24300644.4694   -2860737.32045  -2049505.91045                  24300659.1914
         9.0004         11.0004
  21140483.1334   -3166087.80448  -2467078.22047                  21140491.2584
        28.5004         30.2504
  21728331.7034    4026670.25148   3137663.41847                  21728339.6764
        28.0004         26.2504
  20906035.8444   -3463682.55548  -2698972.75747                  20906042.7974
        32.5004         32.2504
 00  5 11 19  3 15.0000000  0  6G 5G 6G17G10G24G30
  20577972.5704    1329441.75848   1035926.40247                  20577980.2274
        31.2504         31.2504
  22747614.2424   -4366775.65846  -3336072.12046                  22747622.7074
        19.5004         19.5004
  24292414.9144   -2903985.46245  -2083205.61945                  24292429.4384
         9.5004         11.0004
  21137460.6254   -3181971.65948  -2479455.23547                  21137468.8444
        28.5004         30.5004
  21734780.7034    4060560.26947   3164071.20247                  21734788.8524
        27.7504         26.0004
  20902382.6254   -3482880.38348  -2713932.10447                  20902389.5084
        32.5004         32.2504
 00  5 11 19  3 30.0000000  0  6G 5G 6G17G10G24G30
  20581486.6254    1347907.38748   1050315.17747                  20581494.2814
        30.5004         31.2504
  22741276.1884   -4400082.88046  -3362025.78646                  22741284.6414
        19.5004         19.7504
  24284193.1174   -2947193.10145  -2116873.76045                  24284208.2734
         9.7504         11.2504
  21134465.0394   -3197713.99048  -2491721.96947                  21134473.2934
        28.7504         30.5004
  21741236.4774    4094485.76247   3190506.63447                  21741244.6484
        27.2504         26.0004
  20898753.4844   -3501951.26848  -2728792.53047                  20898760.3284
        32.5004         32.0004
 00  5 11 19  3 45.0000000  0  6G 5G 6G17G10G24G30
  20585024.3364    1366498.57748   1064801.79047                  20585032.0274
        30.5004         31.5004
  22734938.9924   -4433384.58746  -3387975.13646                  22734947.4924
        19.2504         19.7504
  24275978.1334   -2990360.15445  -2150510.26246                  24275992.7974
        10.2504         12.0004
  21131496.0084   -3213314.60148  -2503878.27547                  21131504.2384
        28.7504         30.5004
  21747699.0314    4128446.49347   3216969.51846                  21747707.0634
        27.2504         25.5004
  20895148.6564   -3520894.98648  -2743553.87347                  20895155.5634
        30.2504         32.2504
 00  5 11 19  4  0.0000000  0  6G 5G 6G17G10G24G30
  20588585.6174    1385213.47648   1079384.80247                  20588593.3204
        31.0004         31.5004
  22728602.4614   -4466682.48446  -3413921.51746                  22728611.3014
        19.0004         19.7504
  24267771.1484   -3033488.26845  -2184116.43045                  24267786.8674
         9.7504         11.2504
  21128554.2894   -3228775.06348  -2515925.37147                  21128562.5204
        28.7504         30.7504
  21754167.8364    4162440.42947   3243458.27147                  21754176.1134
        27.2504         25.7504
  20891567.6884   -3539713.12148  -2758217.35147                  20891574.3674
        32.2504         32.0004
 00  5 11 19  4 15.0000000  0  6G 5G 6G17G10G24G30
  20592171.0084    1404054.31948   1094065.95347                  20592178.6174
        31.2504         31.5004
  22722267.0084   -4499974.08746  -3439863.00746                  22722275.6484
        19.5004         19.7504
  24259572.0944   -3076574.91845  -2217690.29945                  24259587.4844
        10.2504         11.5004
  21125639.1094   -3244092.86948  -2527861.30747                  21125647.4694
        28.7504         30.7504
  21760643.5634    4196469.74647   3269974.60647                  21760651.6414
        26.7504         25.7504
  20888011.1094   -3558403.21047  -2772781.05847                  20888017.9414
        26.7504         32.2504
 00  5 11 19  4 30.0000000  0  6G 5G 6G17G10G24G30
  20595780.6334    1423023.23748   1108846.90347                  20595788.0434
        31.7504         31.5004
  22715933.7664   -4533257.04146  -3465797.74546                  22715942.3594
        19.2504         19.5004
  24251380.8594   -3119617.76145  -2251230.02846                  24251396.0044
        10.0004         12.0004
  21122751.8914   -3259265.60048  -2539684.19947                  21122760.3094
        28.5004         30.7504
  21767126.2814    4230536.37347   3296520.00946                  21767134.2194
        27.0004         25.5004
  20884479.5864   -3576962.64448  -2787242.95347                  20884486.4064
        30.2504         32.2504
 00  5 11 19  4 45.0000000  0  6G 5G 6G17G10G24G30
  20599414.3364    1442117.72448   1123725.69447                  20599421.9804
        32.0004         31.7504
  22709601.2734   -4566533.61346  -3491727.51646                  22709609.6914
        19.5004         19.2504
  24243198.3284   -3162619.09645  -2284737.41045                  24243213.8364
         9.7504         11.7504
  21119891.6254   -3274295.42548  -2551395.73747                  21119900.1484
        28.2504         30.7504
  21773615.4144    4264637.76647   3323092.50246                  21773623.4804
        27.2504         25.5004
  20880972.1564   -3595393.60147  -2801604.73747                  20880978.8714
        24.0004         32.2504
 00  5 11 19  5  0.0000000  0  6G 5G 6G17G10G24G30
  20603071.1484    1461334.03248   1138699.41347                  20603078.6414
        32.0004         32.0004
  22703269.6484   -4599807.37046  -3517655.09146                  22703278.2424
        19.2504         19.5004
  24235022.2734   -3205582.46745  -2318215.20245                  24235039.2704
         9.7504         11.2504
  21117058.2584   -3289185.86648  -2562998.66047                  21117066.5234
        28.2504         30.5004
  21780110.6254    4298769.92747   3349688.96646                  21780118.7384
        27.2504         25.5004
  20877488.6724   -3613699.43847  -2815869.02347                  20877495.5314
        27.2504         32.5004
 00  5 11 19  5 15.0000000  0  6G 5G 6G17G10G24G30
  20606750.4144    1480668.81148   1153765.45347                  20606758.0004
        31.7504         32.0004
  22696937.7734   -4633081.44546  -3543582.91746                  22696946.3204
        19.2504         19.2504
  24226853.0084   -3248510.95345  -2351665.82545                  24226869.4414
        10.5004         11.7504
  21114250.3834   -3303939.90748  -2574495.29947                  21114258.8134
        28.0004         30.5004
  21786610.9924    4332929.64047   3376306.90146                  21786618.9414
        27.5004         25.5004
  20874028.4144   -3631883.07347  -2830038.09247                  20874035.0824
        24.2504         32.5004
 00  5 11 19  5 30.0000000  0  6G 5G 6G17G10G24G30
  20610453.6724    1500129.64348   1168929.71047                  20610461.1994
        32.0004         32.0004
  22690607.2734   -4666348.13446  -3569504.98346                  22690615.5514
        19.5004         19.2504
  24218692.0314   -3291396.80445  -2385083.24845                  24218707.0124
        10.7504         11.7504
  21111470.3284   -3318549.77947  -2585879.60247                  21111478.9104
        27.7504         30.5004
  21793118.2814    4367124.23947   3402952.01846                  21793126.3134
        27.2504         25.5004
  20870592.8914   -3649936.76648  -2844105.90547                  20870599.6524
        28.0004         32.5004
 00  5 11 19  5 45.0000000  0  6G 5G 6G17G10G24G30
  20614180.7194    1519714.65648   1184190.73147                  20614188.3754
        32.0004         32.2504
  22684277.9454   -4699609.11846  -3595422.61546                  22684285.9774
        19.2504         19.7504
  24210538.4924   -3334241.71145  -2418468.74245                  24210553.3554
        10.5004         11.7504
  21108717.2034   -3333016.94247  -2597152.70447                  21108725.7384
        27.2504         30.7504
  21799631.3134    4401351.72347   3429622.75846                  21799639.4024
        27.5004         25.5004
  20867181.9304   -3667862.08447  -2858073.68847                  20867188.6454
        23.0004         32.7504
 00  5 11 19  6  0.0000000  0  6G 5G 6G17G10G24G30
  20617931.2734    1539424.18648   1199548.77747                  20617938.7544
        32.0004         32.2504
  22677949.7894   -4732863.85247  -3621335.37246                  22677958.1604
        20.0004         19.5004
  24202393.8444   -3377045.12245  -2451821.90546                  24202408.2274
        11.0004         12.0004
  21105991.4144   -3347340.97447  -2608314.27347                  21106000.0664
        27.7504         30.5004
  21806151.0944    4435612.36348   3456319.34146                  21806158.9614
        28.0004         25.5004
  20863795.3054   -3685658.45148  -2871940.98747                  20863802.1254
        29.7504         32.5004
 00  5 11 19  6 15.0000000  0  6G 5G 6G17G10G24G30
  20621704.9844    1559255.04548   1215001.36447                  20621712.4304
        32.5004         32.0004
  22671622.2344   -4766115.40446  -3647245.65246                  22671630.3014
        19.7504         19.5004
  24194255.8134   -3419809.96645  -2485145.02646                  24194270.7234
        10.7504         12.2504
  21103292.4144   -3361524.70247  -2619366.51447                  21103301.1844
        27.7504         30.2504
  21812676.2274    4469902.68247   3483039.04446                  21812684.4224
        27.2504         25.5004
  20860432.7734   -3703328.65847  -2885709.98147                  20860439.6564
        26.7504         32.5004
 00  5 11 19  6 30.0000000  0  6G 5G 6G17G10G24G30
  20625502.1254    1579208.91448   1230549.80447                  20625509.6884
        32.2504         32.5004
  22665295.4384   -4799361.92247  -3673151.99746                  22665303.6214
        20.0004         19.5004
  24186124.9064   -3462534.40845  -2518436.65145                  24186140.4964
        11.0004         11.5004
  21100620.5314   -3375566.15847  -2630307.89947                  21100629.2544
        27.2504         30.5004
  21819207.5084    4504224.28247   3509783.12346                  21819215.5744
        27.5004         25.2504
  20857094.7034   -3720870.62248  -2899379.04047                  20857101.5744
        31.2504         32.7504
 00  5 11 19  6 45.0000000  0  6G 5G 6G17G10G24G30
  20629323.0164    1599287.05248   1246195.07947                  20629330.5784
        32.2504         32.5004
  22658970.3754   -4832601.84946  -3699053.21646                  22658978.7934
        19.7504         19.7504
  24178003.5234   -3505216.91245  -2551695.60246                  24178017.8364
        11.2504         12.0004
  21097975.7504   -3389463.78547  -2641137.20547                  21097984.4024
        27.2504         30.5004
  21825744.9384    4538578.43747   3536552.57246                  21825752.9104
        27.5004         25.2504
  20853781.3754   -3738282.86848  -2912947.02747                  20853788.2814
        29.0004         32.5004
 00  5 11 19  7  0.0000000  0  6G 5G 6G17G10G24G30
  20633165.9534    1619482.63648   1261931.86847                  20633173.5394
        32.2504         32.5004
  22652644.9844   -4865841.82847  -3724954.47346                  22652653.1094
        20.2504         20.0004
  24169887.1804   -3547864.07745  -2584927.02946                  24169900.0634
        11.5004         12.0004
  21095357.4614   -3403224.07447  -2651859.49647                  21095366.0314
        27.2504         30.5004
  21832287.2034    4572958.11047   3563341.90146                  21832295.1884
        27.2504         25.5004
  20850491.2194   -3755571.89148  -2926418.98947                  20850498.0274
        29.5004         32.7504
 00  5 11 19  7 15.0000000  0  6G 5G 6G17G10G24G30
  20637033.6724    1639806.67648   1277768.75747                  20637041.1764
        32.2504         32.5004
  22646321.5784   -4899070.66447  -3750847.05246                  22646329.9264
        20.5004         20.0004
  24161780.9454   -3590464.67445  -2618122.17046                  24161795.0124
        11.0004         12.2504
  21092766.9774   -3416835.86548  -2662466.07147                  21092775.5124
        28.2504         30.7504
  21838836.1954    4607374.25547   3590159.65346                  21838843.8404
        27.7504         25.0004
  20847226.9384   -3772726.28047  -2939786.04547                  20847233.7814
        23.7504         32.7504
 00  5 11 19  7 30.0000000  0  6G 5G 6G17G10G24G30
  20640923.9844    1660250.41948   1293698.91647                  20640931.5824
        31.7504         32.5004
  22639999.1174   -4932296.83747  -3776737.55346                  22640007.2894
        21.0004         19.7504
  24153681.0944   -3633027.16445  -2651287.59645                  24153694.5514
        11.0004         11.7504
  21090203.4304   -3430307.58048  -2672963.49847                  21090211.8484
        28.7504         30.7504
  21845390.9534    4641817.99147   3616998.90446                  21845398.7734
        27.2504         25.0004
  20843986.5554   -3789754.55648  -2953054.83447                  20843993.3754
        28.7504         32.7504
 00  5 11 19  7 45.0000000  0  6G 5G 6G17G10G24G30
  20644838.1954    1680820.27848   1309727.34947                  20644845.7234
        32.5004         32.2504
  22633677.9144   -4965513.71547  -3802620.81546                  22633685.5124
        21.0004         19.7504
  24145590.3524   -3675544.94145  -2684418.19745                  24145604.6174
        11.0004         11.2504
  21087667.8524   -3443632.56948  -2683346.59747                  21087676.0004
        28.5004         31.0004
  21851951.5634    4676295.64647   3643864.58646                  21851959.4884
        27.2504         25.0004
  20840771.3364   -3806649.87547  -2966220.01747                  20840778.3134
        26.0004         33.0004
 00  5 11 19  8  0.0000000  0  6G 5G 6G17G10G24G30
  20648775.6254    1701511.26648   1325850.16447                  20648783.3754
        32.2504         32.5004
  22627357.8674   -4998726.12147  -3828500.59746                  22627365.5004
        21.2504         20.0004
  24137507.1644   -3718022.84045  -2717517.75245                  24137521.8874
        10.2504         11.2504
  21085159.2664   -3456815.65948  -2693619.12047                  21085167.4144
        28.5004         30.7504
  21858518.0084    4710802.06847   3670752.68046                  21858525.9344
        27.0004         24.5004
  20837580.5474   -3823417.05248  -2979285.35047                  20837587.5594
        28.5004         32.7504
 00  5 11 19  8 15.0000000  0  6G 5G 6G17G10G24G30
  20652737.2814    1722329.45348   1342072.09647                  20652745.0084
        32.0004         32.2504
  22621039.8914   -5031927.81947  -3854372.02446                  22621048.1454
        20.7504         20.5004
  24129431.9304   -3760454.64545  -2750581.33145                  24129446.2424
        10.0004         11.7504
  21082678.7974   -3469850.52148  -2703776.14347                  21082687.0744
        28.7504         31.0004
  21865090.8054    4745343.20847   3697667.82746                  21865098.9414
        26.5004         25.0004
  20834415.6564   -3840049.73547  -2992245.88047                  20834422.7384
        27.2504         33.0004
 00  5 11 19  8 30.0000000  0  6G 5G 6G17G10G24G30
  20656722.5864    1743272.32048   1358391.18647                  20656730.2664
        32.0004         32.2504
  22614722.9614   -5065121.07347  -3880236.86446                  22614731.1454
        20.7504         20.2504
  24121366.0164   -3802842.53945  -2783610.71645                  24121380.1994
        10.0004         11.0004
  21080226.0474   -3482739.35748  -2713819.37647                  21080234.3364
        29.2504         30.7504
  21871669.8444    4779916.48647   3724608.02046                  21871677.9694
        26.5004         24.7504
  20831275.6334   -3856549.90847  -3005103.15747                  20831282.5274
        27.7504         32.7504
 00  5 11 19  8 45.0000000  0  6G 5G 6G17G10G24G30
  20660730.1954    1764332.73548   1374801.86747                  20660737.9224
        32.0004         32.2504
  22608406.9144   -5098312.72747  -3906100.47846                  22608415.1564
        20.2504         20.5004
  24113306.7664   -3845193.47245  -2816611.28945                  24113321.0314
        10.7504         11.7504
  21077799.8524   -3495488.93748  -2723754.10747                  21077807.9534
        28.7504         31.0004
  21878253.8674    4814514.64947   3751567.59846                  21878262.0744
        26.2504         24.5004
  20828159.5864   -3872924.51547  -3017862.59347                  20828166.5744
        25.5004         32.7504
 00  5 11 19  9  0.0000000  0  6G 5G 6G17G10G24G30
  20664762.0554    1785519.31048   1391310.85747                  20664769.7344
        31.7504         32.0004
  22602092.5704   -5131494.10547  -3931956.07546                  22602100.9884
        21.0004         20.5004
  24105256.1024   -3887498.68645  -2849576.27145                  24105269.6524
        10.0004         11.2504
  21075401.9384   -3508090.41548  -2733573.42847                  21075410.1214
        29.0004         30.7504
  21884844.0164    4849146.25547   3778553.24046                  21884852.2814
        26.5004         24.7504
  20825069.3834   -3889164.64747  -3030517.24147                  20825076.3714
        27.7504         32.7504
 00  5 11 19  9 15.0000000  0  6G 5G 6G17G10G24G30
  20668817.7814    1806833.26548   1407919.10147                  20668825.4734
        32.0004         32.2504
  22595780.8674   -5164663.63347  -3957802.43246                  22595789.0744
        20.7504         20.2504
  24097214.6564   -3929756.64145  -2882504.39945                  24097228.7114
         9.7504         11.2504
  21073032.3984   -3520542.38448  -2743276.24447                  21073040.5824
        29.2504         31.0004
  21891440.8834    4883812.41747   3805565.80946                  21891449.2664
        26.5004         25.0004
  20822004.9064   -3905268.62548  -3043065.79547                  20822011.8364
        28.2504         33.0004
 00  5 11 19  9 30.0000000  0  6G 5G 6G17G10G24G30
  20672897.4454    1828271.42548   1424624.12847                  20672905.1724
        31.7504         32.0004
  22589470.2584   -5197824.24747  -3983641.84546                  22589479.1214
        20.0004         20.5004
  24089181.2894   -3971970.21445  -2915397.94745                  24089195.6954
        10.7504         11.5004
  21070690.8914   -3532847.62348  -2752864.73147                  21070698.9574
        29.7504         31.0004
  21898043.4844    4918509.86847   3832602.75446                  21898051.7854
        26.2504         25.0004
  20818965.8364   -3921239.29247  -3055510.47747                  20818972.7894
        23.2504         33.0004
 00  5 11 19  9 45.0000000  0  6G 5G 6G17G10G24G30
  20676999.9614    1849830.05748   1441423.03447                  20677007.6884
        31.7504         32.0004
  22583161.1804   -5230979.55947  -4009477.13246                  22583169.6214
        20.2504         20.7504
  24081156.1174   -4014143.02145  -2948259.74845                  24081170.7344
        10.0004         11.5004
  21068376.5234   -3545009.58548  -2762341.56847                  21068384.5784
        29.7504         31.2504
  21904651.4454    4953234.74147   3859661.07346                  21904659.7814
        26.2504         24.7504
  20815951.3754   -3937080.27547  -3067854.09847                  20815958.2584
        22.0004         33.0004
 00  5 11 19 10  0.0000000  0  6G 5G 6G17G10G24G30
  20681126.2584    1871514.51848   1458319.97947                  20681133.8094
        32.0004         32.0004
  22576854.0784   -5264124.00247  -4035303.94946                  22576862.5084
        20.2504         20.5004
  24073139.4144   -4056269.52145  -2981085.44245                  24073152.7544
        11.0004         11.5004
  21066090.4614   -3557022.72048  -2771702.44447                  21066098.5514
        29.2504         31.0004
  21911265.7974    4987992.17747   3886744.76346                  21911274.2384
        26.5004         25.0004
  20812962.6174   -3952785.82747  -3080092.19447                  20812969.5124
        23.7504         33.0004
 00  5 11 19 10 15.0000000  0  6G 5G 6G17G10G24G30
  20685275.3134    1893318.03648   1475309.70647                  20685282.8634
        31.7504         32.0004
  22570547.8594   -5297264.07547  -4061127.35946                  22570556.3834
        20.0004         20.5004
  24065130.6884   -4098356.07345  -3013880.03645                  24065143.3484
        11.2504         11.7504
  21063831.4774   -3568893.53948  -2780952.42147                  21063839.6254
        28.7504         31.0004
  21917884.6724    5022775.41747   3913848.56346                  21917893.3364
        26.2504         25.0004
  20809998.5784   -3968362.29547  -3092229.70147                  20810005.4104
        27.5004         32.7504
 00  5 11 19 10 30.0000000  0  6G 5G 6G17G10G24G30
  20689446.3594    1915236.56448   1492389.04347                  20689453.9104
        31.2504         31.7504
  22564241.3054   -5330403.61947  -4086950.34946                  22564249.8164
        20.2504         21.0004
  24057128.9224   -4140406.61945  -3046646.56546                  24057143.1994
        11.0004         12.2504
  21061599.0084   -3580625.82148  -2790094.44547                  21061607.2974
        30.0004         31.0004
  21924507.9614    5057580.47247   3940969.35846                  21924516.4614
        26.5004         25.2504
  20807058.4064   -3983813.48847  -3104269.59647                  20807065.2154
        23.2504         32.7504
 00  5 11 19 10 45.0000000  0  6G 5G 6G17G10G24G30
  20693640.2734    1937275.24948   1509562.01647                  20693647.9774
        31.2504         32.0004
  22557936.3674   -5363537.27146  -4112768.76246                  22557945.0084
        19.7504         20.7504
  24049134.8444   -4182415.78045  -3079380.82946                  24049148.7934
        10.7504         12.0004
  21059393.8524   -3592214.22848  -2799124.35947                  21059402.0824
        29.5004         31.0004
  21931136.0554    5092412.19047   3968110.93246                  21931144.5084
        26.0004         24.7504
  20804142.9924   -3999133.91448  -3116207.59147                  20804149.7074
        29.7504         32.7504
 00  5 11 19 11  0.0000000  0  6G 5G 6G17G10G24G30
  20697857.2504    1959436.25148   1526830.29447                  20697864.9654
        31.7504         31.7504
  22551632.7504   -5396662.59847  -4138580.67746                  22551641.3794
        20.0004         20.7504
  24041148.1254   -4224381.10445  -3112080.96145                  24041162.2274
        10.0004         11.2504
  21057216.4534   -3603656.23048  -2808040.19847                  21057224.8014
        29.2504         31.0004
  21937769.9534    5127272.78847   3995275.00646                  21937778.3594
        26.5004         24.7504
  20801253.0234   -4014321.15647  -3128041.80847                  20801259.8954
        25.0004         33.0004
 00  5 11 19 11 15.0000000  0  6G 5G 6G17G10G24G30
  20702097.7424    1981719.91448   1544194.15547                  20702105.3634
        31.0004         31.7504
  22545330.5944   -5429778.91847  -4164385.57746                  22545339.1174
        20.0004         20.7504
  24033171.0554   -4266301.98145  -3144746.46545                  24033185.7774
        10.5004         11.7504
  21055067.1644   -3614951.19148  -2816841.45247                  21055075.5234
        29.0004         31.0004
  21944409.2584    5162162.55747   4022461.81146                  21944417.7344
        26.5004         25.2504
  20798388.4144   -4029374.46447  -3139771.65947                  20798395.1054
        27.5004         32.7504
 00  5 11 19 11 30.0000000  0  6G 5G 6G17G10G24G30
  20706360.9924    2004123.31448   1561651.31747                  20706368.8484
        31.0004         32.0004
  22539030.0474   -5462889.01047  -4190185.62046                  22539038.6524
        20.7504         21.2504
  24025201.8364   -4308181.18145  -3177379.45145                  24025216.6524
        10.2504         11.7504
  21052944.8914   -3626101.92048  -2825530.32447                  21052953.0044
        29.0004         31.0004
  21951053.4454    5197078.39047   4049668.92946                  21951061.8524
        26.5004         24.7504
  20795548.8364   -4044296.41947  -3151399.15847                  20795555.5514
        25.2504         32.7504
 00  5 11 19 11 45.0000000  0  6G 5G 6G17G10G24G30
  20710645.3204    2026637.77448   1579195.01947                  20710653.1174
        31.0004         31.7504
  22532729.1884   -5496001.30747  -4215987.38746                  22532737.8874
        20.0004         21.2504
  24017238.8364   -4350027.13245  -3209986.57145                  24017254.1684
        10.5004         11.7504
  21050848.8134   -3637116.74848  -2834113.29647                  21050857.0784
        29.5004         31.0004
  21957701.1724    5232011.50747   4076889.51546                  21957709.8134
        26.0004         25.0004
  20792732.5314   -4059095.48947  -3162930.90347                  20792739.3634
        25.0004         32.7504
 00  5 11 19 12  0.0000000  0  6G 5G 6G17G10G24G30
  20714953.2034    2049275.71748   1596834.94147                  20714961.1994
        30.7504         31.7504
  22526429.8364   -5529103.16147  -4241781.00546                  22526438.3244
        20.0004         21.0004
  24009284.6024   -4391827.11245  -3242557.83845                  24009299.0314
        11.0004         11.7504
  21048781.0554   -3647982.91348  -2842580.42247                  21048789.2384
        29.2504         31.2504
  21964354.2194    5266974.34847   4104133.25846                  21964362.8244
        26.2504         25.0004
  20789942.1024   -4073758.96747  -3174356.99147                  20789948.9454
        25.5004         32.7504
 00  5 11 19 12 15.0000000  0  6G 5G 6G17G10G24G30
  20719284.4304    2072035.40548   1614569.73447                  20719292.4264
        30.5004         31.7504
  22520132.2274   -5562196.09647  -4267567.68946                  22520140.6214
        20.5004         21.0004
  24001338.3984   -4433582.62145  -3275094.48645                  24001352.3714
        10.0004         11.7504
  21046741.4534   -3658701.99348  -2850932.94247                  21046749.6844
        29.0004         30.7504
  21971012.6724    5301965.02147   4131398.69746                  21971021.3364
        25.7504         25.0004
  20787177.4064   -4088288.27648  -3185678.53247                  20787184.2274
        28.2504         32.7504
 00  5 11 19 12 30.0000000  0  6G 5G 6G17G10G24G30
  20723638.7584    2094917.50048   1632399.90347                  20723646.8594
        30.7504         31.7504
  22513836.8984   -5595279.20047  -4293346.70946                  22513845.3164
        20.2504         20.7504
  23993401.3594   -4475292.81445  -3307595.78946                  23993416.0004
        10.7504         12.0004
  21044729.9144   -3669273.01848  -2859170.09847                  21044738.1454
        29.2504         31.0004
  21977676.8204    5336984.11947   4158686.27746                  21977685.5904
        25.7504         24.7504
  20784438.3364   -4102682.31048  -3196894.66747                  20784445.1954
        30.5004         32.5004
 00  5 11 19 12 45.0000000  0  6G 5G 6G17G10G24G30
  20728015.4224    2117918.20848   1650322.50447                  20728023.3954
        30.5004         31.5004
  22507542.5314   -5628356.00347  -4319120.81746                  22507551.1374
        20.5004         20.7504
  23985471.7344   -4516961.28845  -3340064.59646                  23985485.9884
        10.7504         12.5004
  21042745.6884   -3679699.56748  -2867294.66947                  21042753.9184
        29.5004         31.0004
  21984345.2894    5372027.73347   4185992.96346                  21984353.8954
        25.7504         24.7504
  20781724.3134   -4116944.54348  -3208008.09847                  20781731.2194
        31.5004         32.7504
 00  5 11 19 13  0.0000000  0  6G 5G 6G17G10G24G30
  20732415.3364    2141039.58448   1668339.13047                  20732423.4844
        30.2504         31.5004
  22501250.1024   -5661424.18547  -4344888.21346                  22501258.4384
        20.2504         20.7504
  23977551.2664   -4558585.71445  -3372499.08746                  23977565.0634
        11.2504         13.0004
  21040789.5234   -3689979.13048  -2875304.70747                  21040797.6604
        30.0004         30.7504
  21991019.0944    5407098.09647   4213320.49346                  21991027.7234
        25.2504         24.5004
  20779035.6024   -4131072.57048  -3219016.95047                  20779042.4964
        31.2504         32.5004
 00  5 11 19 13 15.0000000  0  6G 5G 6G17G10G24G30
  20736838.2664    2164281.62748   1686449.77747                  20736846.3204
        30.5004         31.5004
  22494959.1484   -5694483.54547  -4370648.72846                  22494967.3794
        20.5004         21.0004
  23969638.4614   -4600165.93646  -3404899.13746                  23969651.3914
        12.0004         13.2504
  21038861.3834   -3700111.67648  -2883200.18647                  21038869.5314
        29.5004         30.7504
  21997697.6804    5442194.88547   4240668.61246                  21997706.2274
        25.2504         24.5004
  20776372.9064   -4145066.13748  -3229921.03547                  20776379.9304
        30.0004         32.5004
 00  5 11 19 13 30.0000000  0  6G 5G 6G17G10G24G30
  20741284.3524    2187645.31848   1704655.21947                  20741292.3484
        30.0004         31.5004
  22488670.0234   -5727532.86547  -4396401.42846                  22488678.4064
        20.5004         21.2504
  23961734.4924   -4641700.73446  -3437263.78346                  23961748.3484
        12.5004         13.5004
  21036961.3524   -3710095.95548  -2890980.13647                  21036969.3484
        29.5004         31.0004
  22004381.6174    5477318.97147   4268038.00346                  22004390.3284
        25.2504         24.2504
  20773735.8364   -4158923.96848  -3240719.34847                  20773742.7074
        32.2504         32.5004
 00  5 11 19 13 45.0000000  0  6G 5G 6G17G10G24G30
  20745752.8984    2211127.96148   1722953.34847                  20745760.8834
        30.2504         31.2504
  22482382.2114   -5760574.61847  -4422148.22446                  22482390.6294
        21.0004         21.2504
  23953838.8984   -4683192.45646  -3469594.87746                  23953851.3244
        12.7504         13.5004
  21035089.3364   -3719934.28848  -2898646.35347                  21035097.2734
        30.0004         30.7504
  22011070.1564    5512467.76247   4295426.64546                  22011078.6094
        24.7504         24.0004
  20771124.1644   -4172648.39548  -3251413.71047                  20771131.0474
        31.2504         32.2504
 00  5 11 19 14  0.0000000  0  6G 5G 6G17G10G24G30
  20750244.0164    2234729.25648   1741343.93547                  20750251.9774
        30.0004         31.2504
  22476095.9144   -5793608.74247  -4447889.07546                  22476104.1914
        20.7504         21.2504
  23945951.1094   -4724641.09846  -3501892.40346                  23945964.3444
        12.2504         13.7504
  21033245.0234   -3729626.67948  -2906198.85447                  21033252.9144
        29.7504         30.7504
  22017763.5474    5547640.89747   4322834.25446                  22017772.0004
        24.2504         24.0004
  20768537.9384   -4186239.36748  -3262004.08047                  20768544.8674
        29.7504         32.2504
 00  5 11 19 14 15.0000000  0  6G 5G 6G17G10G24G30
  20754758.1724    2258451.83048   1759829.02347                  20754766.0164
        29.7504         31.2504
  22469811.9774   -5826632.34047  -4473621.72946                  22469820.3134
        21.2504         21.2504
  23938072.6024   -4766043.85546  -3534154.16046                  23938086.1524
        12.0004         13.5004
  21031428.7814   -3739170.28748  -2913635.42147                  21031436.7774
        29.7504         31.0004
  22024462.1024    5582840.88347   4350262.78746                  22024470.8244
        24.7504         23.7504
  20765977.6414   -4199693.98348  -3272488.20347                  20765984.5704
        31.5004         32.2504
 00  5 11 19 14 30.0000000  0  6G 5G 6G17G10G24G30
  20759294.7584    2282290.38348   1778404.48247                  20759302.5784
        30.0004         31.2504
  22463528.6254   -5859650.56747  -4499350.20146                  22463537.0204
        21.0004         21.2504
  23930201.3674   -4807405.88246  -3566384.19446                  23930214.6954
        12.2504         13.5004
  21029639.9694   -3748570.31448  -2920960.10947                  21029647.8714
        29.5004         30.7504
  22031164.1414    5618062.31547   4377708.03046                  22031172.7704
        24.5004         23.5004
  20763442.3364   -4213017.27748  -3282869.99247                  20763449.1564
        31.7504         32.2504
 00  5 11 19 14 45.0000000  0  6G 5G 6G17G10G24G30
  20763853.3754    2306246.65048   1797071.67347                  20763861.5004
        29.7504         31.0004
  22457247.1484   -5892661.33747  -4525072.85446                  22457255.3324
        21.2504         21.5004
  23922338.6094   -4848725.18246  -3598580.92746                  23922351.8324
        12.5004         12.7504
  21027879.0234   -3757824.60448  -2928171.23147                  21027886.9494
        30.0004         31.0004
  22037870.9224    5653306.88447   4405171.30146                  22037879.5514
        24.2504         23.5004
  20760932.3754   -4226207.10948  -3293147.78647                  20760939.2344
        32.0004         32.2504
 00  5 11 19 15  0.0000000  0  6G 5G 6G17G10G24G30
  20768433.1484    2330313.73748   1815825.20747                  20768441.1334
        29.5004         31.0004
  22450965.4064   -5925671.32247  -4550794.90146                  22450973.7074
        21.2504         21.5004
  23914482.4694   -4890008.31646  -3630749.50846                  23914495.1294
        12.5004         13.5004
  21026144.4064   -3766939.87348  -2935274.02547                  21026152.5084
        29.7504         31.0004
  22044581.1094    5688567.69047   4432647.23046                  22044589.7504
        24.5004         23.5004
  20758446.4924   -4239270.01348  -3303326.67947                  20758453.3364
        32.0004         32.2504
 00  5 11 19 15 15.0000000  0  6G 5G 6G17G10G24G30
  20773035.8204    2354500.16948   1834671.73747                  20773043.8164
        29.2504         31.0004
  22444685.6564   -5958671.68847  -4576509.44646                  22444693.9804
        21.5004         21.7504
  23906635.0554   -4931246.48145  -3662883.02746                  23906648.6174
        11.7504         13.2504
  21024438.1414   -3775907.26148  -2942261.59347                  21024446.1954
        29.5004         31.0004
  22051295.7424    5723853.27947   4460142.46046                  22051304.2074
        24.2504         23.2504
  20755986.6024   -4252197.18748  -3313399.80847                  20755993.4964
        30.2504         32.2504
 00  5 11 19 15 30.0000000  0  6G 5G 6G17G10G24G30
  20777659.9614    2378801.02648   1853607.43947                  20777668.1094
        29.0004         30.7504
  22438406.7114   -5991667.17347  -4602220.19046                  22438415.0474
        21.0004         21.7504
  23898795.2584   -4972444.43445  -3694985.22046                  23898808.8324
        11.2504         13.2504
  21022758.7504   -3784731.43248  -2949137.55847                  21022766.7114
        29.7504         30.7504
  22058014.2814    5759158.54947   4487653.03646                  22058022.9344
        24.5004         23.2504
  20753551.6254   -4264993.17848  -3323370.71247                  20753558.5904
        31.7504         32.2504
 00  5 11 19 15 45.0000000  0  6G 5G 6G17G10G24G30
  20782308.1024    2403226.33848   1872640.11447                  20782316.1804
        28.7504         30.7504
  22432130.8674   -6024647.52247  -4627919.14246                  22432138.8984
        21.2504         21.7504
  23890965.1414   -5013591.96945  -3727048.11246                  23890979.2304
        11.2504         12.7504
  21021108.9614   -3793402.22048  -2955894.00147                  21021116.7704
        30.2504         30.7504
  22064738.0864    5794493.45447   4515186.70246                  22064746.7384
        24.5004         23.2504
  20751143.3914   -4277647.71448  -3333231.39247                  20751150.3094
        32.2504         32.2504
 00  5 11 19 16  0.0000000  0  6G 5G 6G17G10G24G30
  20786978.8054    2427770.76548   1891765.60047                  20786986.9884
        28.7504         30.7504
  22425856.5784   -6057617.71347  -4653610.17946                  22425864.9024
        20.7504         21.7504
  23883143.5634   -5054694.05146  -3759075.60446                  23883157.0664
        12.0004         13.2504
  21019487.1484   -3801924.59748  -2962534.80647                  21019494.8754
        30.2504         31.0004
  22071466.9224    5829852.63947   4542739.28146                  22071475.5744
        24.2504         23.0004
  20748761.3984   -4290165.86048  -3342985.80147                  20748768.1374
        29.7504         32.0004
 00  5 11 19 16 15.0000000  0  6G 5G 6G17G10G24G30
  20791670.9304    2452428.43348   1910979.33447                  20791679.1484
        28.7504         30.5004
  22419583.5474   -6090583.38847  -4679297.68546                  22419591.8364
        21.2504         22.0004
  23875329.3284   -5095756.37945  -3791072.12346                  23875343.3134
        11.2504         13.0004
  21017892.5164   -3810304.18648  -2969064.34047                  21017900.2304
        30.5004         31.0004
  22078198.9614    5865230.18047   4570306.17446                  22078207.4144
        24.2504         23.0004
  20746404.2344   -4302553.03948  -3352638.14747                  20746410.9384
        30.2504         32.2504
 00  5 11 19 16 30.0000000  0  6G 5G 6G17G10G24G30
  20796385.8674    2477205.00648   1930285.72047                  20796394.1564
        28.7504         30.2504
  22413312.4454   -6123538.49447  -4704976.97046                  22413321.1454
        21.2504         22.2504
  23867524.2584   -5136772.94745  -3823032.96946                  23867538.8754
        10.7504         13.2504
  21016326.3524   -3818535.00348  -2975477.95747                  21016334.1024
        30.2504         31.2504
  22084935.7974    5900631.74447   4597891.77846                  22084944.3914
        24.5004         23.0004
  20744073.1024   -4314803.37848  -3362183.87647                  20744079.7704
        30.2504         32.0004
 00  5 11 19 16 45.0000000  0  6G 5G 6G17G10G24G30
  20801121.5704    2502091.28148   1949677.58547                  20801129.8014
        28.5004         30.5004
  22407041.5394   -6156492.04847  -4730655.03746                  22407049.8754
        21.2504         22.0004
  23859725.5474   -5177752.76845  -3854965.19546                  23859739.6484
        10.7504         13.0004
  21014786.5554   -3826626.04348  -2981782.64947                  21014794.3054
        30.2504         31.0004
  22091675.1024    5936048.10047   4625488.91746                  22091683.5554
        24.7504         23.0004
  20741766.2344   -4326925.75648  -3371629.88747                  20741772.7854
        29.0004         32.2504
 00  5 11 19 17  0.0000000  0  6G 5G 6G17G10G24G30
  20805880.2344    2527098.36848   1969163.59047                  20805888.4064
        28.5004         30.2504
  22400773.1884   -6189432.61747  -4756322.99446                  22400781.5594
        21.5004         22.2504
  23851937.0864   -5218684.38046  -3886859.83046                  23851950.5204
        12.0004         13.5004
  21013275.4224   -3834566.03848  -2987969.64647                  21013283.3484
        30.5004         31.2504
  22098419.5704    5971490.31947   4653106.20346                  22098428.2584
        24.7504         22.7504
  20739486.0234   -4338908.72348  -3380967.27047                  20739492.6564
        29.7504         32.2504
 00  5 11 19 17 15.0000000  0  6G 5G 6G17G10G24G30
  20810660.8594    2552220.35548   1988739.12647                  20810669.1254
        28.5004         30.5004
  22394506.0784   -6222365.86947  -4781985.24646                  22394514.3674
        21.5004         22.2504
  23844156.0314   -5259573.60845  -3918721.47446                  23844169.4654
        11.7504         13.5004
  21011792.3054   -3842360.64648  -2994043.35347                  21011800.2304
        30.2504         31.2504
  22105167.8524    6006952.28047   4680738.87346                  22105176.3284
        24.7504         22.7504
  20737231.0944   -4350757.73848  -3390200.27547                  20737237.6214
        30.0004         32.0004
 00  5 11 19 17 30.0000000  0  6G 5G 6G17G10G24G30
  20815463.7114    2577458.90548   2008405.49147                  20815472.0354
        28.0004         30.0004
  22388240.8754   -6255289.90647  -4807640.31246                  22388249.1414
        21.5004         22.2504
  23836382.8054   -5300418.50545  -3950548.55446                  23836395.9924
        11.7504         14.0004
  21010337.0164   -3850007.94648  -3000002.27547                  21010345.0124
        30.0004         30.7504
  22111920.0394    6042435.75847   4708388.30646                  22111928.3874
        25.2504         23.0004
  20735002.2894   -4362470.93148  -3399327.44147                  20735009.0514
        29.2504         32.2504
 00  5 11 19 17 45.0000000  0  6G 5G 6G17G10G24G30
  20820287.5784    2602809.86848   2028159.45147                  20820295.8204
        28.5004         30.0004
  22381976.4614   -6288208.63047  -4833291.24846                  22381984.7504
        21.7504         22.2504
  23828618.4064   -5341222.97745  -3982344.15146                  23828631.7114
        11.5004         13.5004
  21008909.0314   -3857511.78248  -3005849.40847                  21008917.0164
        30.0004         31.0004
  22118675.7344    6077936.50847   4736051.21046                  22118683.8484
        25.0004         22.5004
  20732798.5474   -4374052.15548  -3408351.77647                  20732805.3794
        30.0004         32.2504
 00  5 11 19 18  0.0000000  0  6G 5G 6G17G10G24G30
  20825132.6484    2628270.02748   2047998.49947                  20825140.8444
        28.5004         30.0004
  22375712.5944   -6321125.04747  -4858940.37946                  22375720.7774
        21.7504         22.5004
  23820860.5944   -5381990.02945  -4014110.58646                  23820873.6524
        11.7504         13.7504
  21007507.9454   -3864875.16848  -3011587.10047                  21007515.8244
        29.7504         31.0004
  22125434.0634    6113451.13047   4763724.91246                  22125442.3984
        25.0004         22.7504
  20730619.1094   -4385504.36548  -3417275.58047                  20730625.9534
        30.0004         32.2504
 00  5 11 19 18 15.0000000  0  6G 5G 6G17G10G24G30
  20829999.7734    2653846.62748   2067928.28347                  20830007.8984
        28.5004         30.0004
  22369451.0704   -6354031.50747  -4884581.75546                  22369459.2304
        22.0004         22.2504
  23813111.5234   -5422712.08846  -4045841.95946                  23813125.0864
        12.2504         13.7504
  21006134.6954   -3872090.56548  -3017209.47247                  21006142.4574
        30.0004         31.0004
  22132196.1564    6148987.03747   4791415.20346                  22132204.4694
        25.2504         22.7504
  20728465.7894   -4396819.98848  -3426092.95147                  20728472.5864
        29.2504         32.2504
 00  5 11 19 18 30.0000000  0  6G 5G 6G17G10G24G30
  20834888.9924    2679539.60548   2087948.74547                  20834897.2344
        28.0004         30.0004
  22363191.1024   -6386927.84047  -4910215.24246                  22363199.2624
        22.2504         22.7504
  23805370.6804   -5463388.98746  -4077538.15346                  23805383.8324
        12.5004         14.2504
  21004790.0084   -3879157.86648  -3022716.45147                  21004797.8524
        30.2504         31.2504
  22138962.3754    6184544.08647   4819121.97346                  22138970.7704
        24.7504         22.5004
  20726338.6804   -4407998.75648  -3434803.68447                  20726345.5004
        28.5004         32.5004
 00  5 11 19 18 45.0000000  0  6G 5G 6G17G10G24G30
  20839799.9534    2705346.16448   2108057.71747                  20839808.2664
        28.2504         30.0004
  22356932.3594   -6419816.56247  -4935842.79346                  22356940.8014
        22.5004         22.5004
  23797638.3594   -5504023.29145  -4109201.14946                  23797651.6294
        11.5004         14.2504
  21003472.7114   -3886079.55848  -3028109.96247                  21003480.5904
        30.2504         31.2504
  22145732.3134    6220119.34547   4846842.92346                  22145740.9064
        24.5004         22.5004
  20724236.8674   -4419043.15148  -3443409.71247                  20724243.7624
        28.7504         32.5004
 00  5 11 19 19  0.0000000  0  6G 5G 6G17G10G24G30
  20844731.9774    2731264.15248   2128253.50747                  20844740.1374
        28.5004         30.0004
  22350675.0704   -6452699.51647  -4961465.86346                  22350683.4654
        23.0004         22.7504
  23789913.5164   -5544616.91746  -4140832.43346                  23789926.9734
        12.5004         14.5004
  21002182.9144   -3892857.65448  -3033391.58547                  21002191.0164
        30.0004         31.0004
  22152505.2274    6255710.71447   4874576.42746                  22152513.8204
        24.5004         22.2504
  20722160.3834   -4429955.00248  -3451912.45747                  20722167.2154
        29.7504         32.5004
 00  5 11 19 19 15.0000000  0  6G 5G 6G17G10G24G30
  20849685.8364    2757297.55348   2148539.24147                  20849694.0204
        28.2504         29.7504
  22344419.6564   -6485572.45047  -4987081.11146                  22344428.0984
        23.0004         22.7504
  23782197.0004   -5585165.48845  -4172428.63546                  23782210.3984
        11.5004         13.7504
  21000921.2344   -3899487.81048  -3038557.92647                  21000929.2894
        30.2504         31.2504
  22159281.7344    6291322.10947   4902325.53746                  22159290.3754
        23.7504         22.2504
  20720110.0704   -4440730.02848  -3460308.58247                  20720116.9774
        29.7504         32.2504
 00  5 11 19 19 30.0000000  0  6G 5G 6G17G10G24G30
  20854662.7344    2783449.28748   2168917.17347                  20854670.9184
        28.5004         30.0004
  22338166.5234   -6518432.07847  -5012685.99946                  22338174.7074
        22.5004         22.5004
  23774490.2974   -5625665.80846  -4203987.21546                  23774504.1884
        12.0004         13.7504
  20999688.4064   -3905966.73348  -3043606.42347                  20999696.3914
        30.5004         31.2504
  22166062.8204    6326956.52247   4930092.58946                  22166071.4144
        24.2504         22.2504
  20718086.1804   -4451364.87748  -3468595.48147                  20718093.1684
        30.2504         32.2504
 00  5 11 19 19 45.0000000  0  6G 5G 6G17G10G24G30
  20859659.4924    2809708.57148   2189378.91647                  20859667.5704
        28.2504         29.7504
  22331913.9224   -6551288.95347  -5038288.73846                  22331921.9884
        23.0004         22.5004
  23766789.7344   -5666128.54045  -4235516.54046                  23766803.6844
        11.0004         13.7504
  20998482.1414   -3912305.20448  -3048545.48347                  20998490.0554
        30.5004         31.5004
  22172846.0084    6362603.08847   4957869.09846                  22172854.7664
        23.2504         22.2504
  20716087.1804   -4461870.13848  -3476781.39947                  20716094.1094
        29.0004         32.5004
 00  5 11 19 20  0.0000000  0  6G 5G 6G17G10G24G30
  20864678.1094    2836080.74648   2209928.62247                  20864686.3054
        28.5004         30.0004
  22325663.0474   -6584137.37747  -5063884.89846                  22325670.9494
        22.7504         22.7504
  23759098.4144   -5706548.06045  -4267012.14846                  23759112.3874
        11.0004         13.0004
  20997303.8754   -3918497.59748  -3053370.71247                  20997311.8484
        30.7504         31.7504
  22179632.9304    6398267.10747   4985659.22146                  22179641.5824
        23.7504         22.2504
  20714113.8594   -4472240.18447  -3484861.96347                  20714120.7034
        27.2504         32.7504
 00  5 11 19 20 15.0000000  0  6G 5G 6G17G10G24G30
  20869718.4614    2862568.00848   2230568.01047                  20869726.7034
        28.0004         29.7504
  22319414.4144   -6616974.93947  -5089472.57746                  22319422.7154
        23.0004         22.7504
  23751415.5084   -5746921.85945  -4298472.17046                  23751429.1884
        11.5004         13.2504
  20996153.6484   -3924541.33948  -3058080.11247                  20996161.6684
        30.5004         31.7504
  22186423.2114    6433950.82647   5013464.69546                  22186431.6994
        23.2504         22.2504
  20712166.7814   -4482472.43247  -3492835.14447                  20712173.6254
        27.2504         32.5004
 00  5 11 19 20 30.0000000  0  6G 5G 6G17G10G24G30
  20874779.5634    2889163.79048   2251291.95347                  20874787.7704
        28.5004         29.7504
  22313166.2504   -6649807.80647  -5115056.61646                  22313174.3054
        23.0004         22.5004
  23743740.2274   -5787256.24245  -4329901.46446                  23743754.7034
        11.7504         13.5004
  20995030.7584   -3930442.80148  -3062678.64847                  20995038.7544
        30.5004         31.7504
  22193215.9614    6469647.65247   5041280.36746                  22193225.1414
        23.0004         22.0004
  20710244.6254   -4492573.03447  -3500705.74847                  20710251.3164
        25.2504         32.5004
 00  5 11 19 20 45.0000000  0  6G 5G 6G17G10G24G30
  20879861.9924    2915872.14248   2272103.61747                  20879870.1884
        28.0004         29.7504
  22306920.3054   -6682631.64347  -5140633.61146                  22306928.1604
        23.0004         23.0004
  23736073.4924   -5827546.92545  -4361296.70446                  23736086.6334
        11.5004         13.0004
  20993935.4924   -3936197.71148  -3067162.98047                  20993943.4774
        31.0004         31.7504
  22200012.1414    6505361.55047   5069109.34846                  22200021.0164
        23.5004         22.2504
  20708348.3984   -4502537.67347  -3508470.40747                  20708355.1484
        27.2504         32.5004
 00  5 11 19 21  0.0000000  0  6G 5G 6G17G10G24G30
  20884966.2274    2942695.61848   2293004.99147                  20884974.3874
        28.2504         29.7504
  22300676.4454   -6715443.55047  -5166201.30846                  22300684.3134
        23.5004         22.7504
  23728414.9924   -5867791.08346  -4392655.70846                  23728427.8984
        12.5004         13.2504
  20992868.8834   -3941803.15948  -3071530.85647                  20992876.7854
        30.7504         31.7504
  22206812.1094    6541095.12347   5096953.66946                  22206820.9844
        23.0004         22.0004
  20706478.7664   -4512363.54947  -3516126.94047                  20706485.4344
        23.5004         32.7504
 00  5 11 19 21 15.0000000  0  6G 5G 6G17G10G24G30
  20890092.0234    2969631.73547   2313994.13347                  20890100.3954
        27.7504         29.7504
  22294434.3914   -6748245.77347  -5191761.46846                  22294442.3404
        23.5004         23.0004
  23720765.1024   -5907990.95546  -4423980.18146                  23720778.0314
        12.2504         13.7504
  20991830.2344   -3947261.51348  -3075784.11247                  20991838.1844
        30.7504         31.7504
  22213615.4534    6576845.85547   5124811.34146                  22213624.3754
        23.5004         22.0004
  20704635.0314   -4522052.82247  -3523677.02947                  20704641.6644
        24.5004         32.7504
 00  5 11 19 21 30.0000000  0  6G 5G 6G17G10G24G30
  20895239.0004    2996679.35948   2335070.16547                  20895247.2894
        28.0004         29.5004
  22288193.8914   -6781039.22547  -5217314.78246                  22288202.0164
        23.5004         23.0004
  23713123.1804   -5948147.40546  -4455270.83046                  23713135.8634
        12.5004         13.5004
  20990819.2894   -3952573.78548  -3079923.53547                  20990827.2384
        30.7504         31.5004
  22220421.4454    6612612.46347   5152681.39946                  22220430.3674
        23.5004         22.2504
  20702817.0234   -4531606.25247  -3531121.26447                  20702823.8324
        23.5004         32.5004
 00  5 11 19 21 45.0000000  0  6G 5G 6G17G10G24G30
  20900407.2194    3023837.94347   2356232.66047                  20900415.6724
        27.5004         29.7504
  22281955.0474   -6813824.22847  -5242861.52246                  22281962.8204
        23.5004         23.2504
  23705489.7034   -5988260.85546  -4486527.96846                  23705502.4804
        12.2504         13.5004
  20989836.1644   -3957740.18248  -3083949.29047                  20989844.1844
        30.5004         31.5004
  22227230.4614    6648394.52247   5180563.49646                  22227239.3954
        23.7504         22.2504
  20701024.6484   -4541024.05047  -3538459.81647                  20701031.4924
        27.0004         32.2504
 00  5 11 19 22  0.0000000  0  6G 5G 6G17G10G24G30
  20905596.7894    3051108.47248   2377482.38247                  20905605.1484
        28.0004         29.2504
  22275718.0084   -6846599.39647  -5268400.59146                  22275726.0744
        23.2504         23.0004
  23697864.8444   -6028330.00845  -4517750.57746                  23697877.4344
        11.7504         13.2504
  20988881.0634   -3962759.43348  -3087860.38647                  20988889.0944
        30.5004         31.5004
  22234042.9694    6684192.85847   5208458.27946                  22234051.7274
        23.2504         21.7504
  20699258.8054   -4550305.06647  -3545691.78247                  20699265.7344
        26.2504         32.5004
 00  5 11 19 22 15.0000000  0  6G 5G 6G17G10G24G30
  20910806.6484    3078486.95147   2398816.22647                  20910815.0664
        27.7504         29.5004
  22269482.2734   -6879368.37947  -5293934.84646                  22269490.2814
        23.2504         23.2504
  23690247.6174   -6068358.50446  -4548941.52946                  23690259.5744
        12.7504         14.0004
  20987953.2584   -3967635.30248  -3091659.75647                  20987961.0784
        30.2504         31.5004
  22240857.3984    6720003.55547   5236362.69046                  22240866.2034
        23.7504         22.2504
  20697518.0084   -4559452.98847  -3552820.03847                  20697524.8404
        27.2504         32.2504
 00  5 11 19 22 30.0000000  0  6G 5G 6G17G10G24G30
  20916039.3594    3105984.30748   2420242.69647                  20916047.6604
        28.0004         29.5004
  22263250.0234   -6912119.86147  -5319455.45746                  22263257.9264
        23.7504         23.2504
  23682640.6094   -6108335.12946  -4580092.04646                  23682653.2934
        12.7504         14.0004
  20987054.6484   -3972356.62548  -3095338.69847                  20987062.4574
        30.2504         31.2504
  22247676.5234    6755837.63247   5264285.31546                  22247685.2464
        24.2504         22.0004
  20695804.7424   -4568456.47048  -3559835.74547                  20695811.5164
        28.0004         32.0004
 00  5 11 19 22 45.0000000  0  6G 5G 6G17G10G24G30
  20921293.4844    3133595.62747   2441757.97347                  20921301.7624
        27.7504         29.5004
  22257019.9844   -6944858.43447  -5344966.01846                  22257027.8164
        23.7504         23.2504
  23675042.3364   -6148264.47446  -4611205.72246                  23675055.0434
        12.7504         14.2504
  20986184.8594   -3976928.03148  -3098900.82647                  20986192.6914
        30.2504         31.2504
  22254499.0394    6791690.08847   5292222.26846                  22254507.7624
        24.5004         22.2504
  20694117.9694   -4577320.03148  -3566742.42147                  20694124.6604
        29.5004         32.2504
 00  5 11 19 23  0.0000000  0  6G 5G 6G17G10G24G30
  20926568.6024    3161315.91847   2463358.16247                  20926576.8554
        27.7504         29.5004
  22250791.7504   -6977588.81847  -5370470.19746                  22250799.4534
        23.5004         23.2504
  23667451.4534   -6188151.37246  -4642286.33246                  23667464.7234
        12.5004         14.0004
  20985342.5164   -3981354.40148  -3102349.93747                  20985350.5004
        30.2504         31.2504
  22261324.4924    6827556.00747   5320169.70746                  22261333.0864
        24.7504         22.0004
  20692456.9534   -4586048.39448  -3573543.74647                  20692463.7384
        31.2504         32.0004
 00  5 11 19 23 15.0000000  0  6G 5G 6G17G10G24G30
  20931863.5234    3189140.18948   2485039.37447                  20931871.7774
        28.2504         29.5004
  22244563.9384   -7010315.79347  -5395971.71146                  22244571.8054
        23.5004         23.2504
  23659868.7194   -6228000.60846  -4673337.57346                  23659881.0634
        12.7504         13.7504
  20984526.8134   -3985640.41948  -3105689.68447                  20984534.6564
        30.2504         31.2504
  22268150.8594    6863430.29147   5348123.67346                  22268159.4654
        24.5004         22.0004
  20690820.8284   -4594646.31248  -3580243.43447                  20690827.4964
        30.7504         32.0004
 00  5 11 19 23 30.0000000  0  6G 5G 6G17G10G24G30
  20937178.6484    3217071.32048   2506803.85747                  20937186.8914
        28.0004         29.5004
  22238337.5164   -7043036.17247  -5421468.09346                  22238345.4654
        24.0004         23.0004
  23652293.4844   -6267808.95746  -4704356.99446                  23652305.4184
        12.7504         14.2504
  20983738.5784   -3989782.84348  -3108917.54147                  20983746.3634
        30.0004         31.2504
  22274979.8364    6899315.86047   5376086.42146                  22274988.2774
        24.7504         21.7504
  20689210.0474   -4603110.69148  -3586839.06047                  20689216.8674
        31.5004         32.0004
 00  5 11 19 23 45.0000000  0  6G 5G 6G17G10G24G30
  20942516.4844    3245121.95148   2528661.45247                  20942524.6334
        28.2504         29.5004
  22232114.8674   -7075736.95747  -5446949.20546                  22232122.8874
        23.5004         23.2504
  23644728.2504   -6307563.48946  -4735334.45246                  23644740.8874
        12.2504         14.5004
  20982980.1174   -3993768.85148  -3112023.51247                  20982987.9844
        30.0004         31.2504
  22281812.8444    6935225.31447   5404067.78846                  22281821.1684
        24.5004         21.7504
  20687627.3364   -4611428.40448  -3593320.40447                  20687634.1954
        29.0004         32.0004
 00  5 11 19 24  0.0000000  0  6G 5G 6G17G10G24G30
  20947874.2814    3273277.23748   2550600.59847                  20947882.3364
        28.5004         30.0004
  22225892.8284   -7108432.60347  -5472426.30446                  22225900.7544
        23.7504         23.2504
  23637170.4924   -6347278.86545  -4766281.39546                  23637183.3284
        11.7504         13.7504
  20982248.6334   -3997613.09048  -3115019.01347                  20982256.5474
        30.0004         31.2504
  22288648.0864    6971143.88347   5432056.25846                  22288656.1294
        24.5004         21.7504
  20686069.6724   -4619614.02048  -3599698.81147                  20686076.3404
        30.5004         32.0004
 00  5 11 19 24 15.0000000  0  6G 5G 6G17G10G24G30
  20953252.8054    3301541.32048   2572624.52147                  20953260.9184
        28.2504         29.7504
  22219673.0554   -7141118.68447  -5497895.95746                  22219680.7234
        24.0004         23.5004
  23629621.1644   -6386950.57146  -4797194.32146                  23629633.7304
        12.7504         14.0004
  20981544.8444   -4001311.22348  -3117900.67047                  20981552.7114
        30.0004         31.0004
  22295485.5234    7007075.66347   5460055.01946                  22295493.8594
        24.5004         21.7504
  20684538.0004   -4627663.15548  -3605970.87647                  20684544.6094
        31.2504         31.7504
 00  5 11 19 24 30.0000000  0  6G 5G 6G17G10G24G30
  20958651.4614    3329910.84448   2594730.60447                  20958659.6214
        28.2504         29.7504
  22213454.2974   -7173798.21147  -5523360.50246                  22213461.9884
        24.2504         23.5004
  23622079.0394   -6426581.64746  -4828075.59646                  23622091.5004
        12.0004         14.0004
  20980868.0944   -4004866.38448  -3120670.91947                  20980876.0084
        30.0004         31.0004
  22302325.0554    7043017.36247   5488061.51246                  22302333.4734
        23.7504         21.2504
  20683031.6804   -4635578.86048  -3612138.96547                  20683038.4184
        32.0004         31.7504
 00  5 11 19 24 45.0000000  0  6G 5G 6G17G10G24G30
  20964071.9774    3358395.45348   2616926.36347                  20964080.1374
        28.7504         29.7504
  22207238.5084   -7206461.23447  -5548812.18846                  22207245.8954
        24.0004         23.0004
  23614547.6024   -6466162.30746  -4858917.57446                  23614559.5944
        12.5004         14.0004
  20980220.7274   -4008268.76648  -3123322.12047                  20980228.7344
        29.7504         31.0004
  22309168.4694    7078978.54147   5516083.17846                  22309176.8634
        23.7504         21.2504
  20681552.5944   -4643351.14448  -3618195.29747                  20681559.3204
        30.5004         31.7504
 00  5 11 19 25  0.0000000  0  6G 5G 6G17G10G24G30
  20969512.9304    3386988.48948   2639206.61747                  20969521.1024
        28.7504         30.0004
  22201025.2504   -7239114.06647  -5574255.93246                  22201032.7074
        24.2504         23.2504
  23607023.6414   -6505698.89546  -4889725.20646                  23607035.9024
        12.5004         13.7504
  20979601.0234   -4011524.71448  -3125859.21947                  20979608.9264
        29.5004         30.7504
  22316014.1484    7114952.64147   5544114.91746                  22316022.7544
        23.5004         21.0004
  20680099.6954   -4650986.29348  -3624144.77247                  20680106.4574
        30.2504         32.0004
 00  5 11 19 25 15.0000000  0  6G 5G 6G17G10G24G30
  20974974.1884    3415686.81448   2661568.90847                  20974982.3244
        28.7504         29.5004
  22194812.8594   -7271759.44047  -5599693.86446                  22194820.4924
        23.7504         23.5004
  23599507.7114   -6545194.27246  -4920500.73946                  23599519.8324
        12.0004         13.7504
  20979008.9304   -4014637.05148  -3128284.41047                  20979016.9734
        29.7504         30.7504
  22322861.5634    7150936.54547   5572154.29646                  22322870.2624
        23.5004         21.0004
  20678672.3754   -4658487.11348  -3629989.57447                  20678679.0434
        32.0004         31.7504
 00  5 11 19 25 30.0000000  0  6G 5G 6G17G10G24G30
  20980455.8204    3444492.48348   2684014.85247                  20980464.1214
        28.2504         29.7504
  22188602.5704   -7304394.96347  -5625124.12046                  22188610.4024
        24.0004         23.2504
  23592000.3364   -6584646.06846  -4951242.29546                  23592012.8794
        12.5004         13.7504
  20978444.4224   -4017603.50748  -3130595.93047                  20978452.4304
        29.7504         30.7504
  22329711.3284    7186932.29047   5600202.90346                  22329719.7114
        23.2504         20.7504
  20677271.0234   -4665851.26448  -3635727.87547                  20677277.7154
        29.7504         32.0004
 00  5 11 19 25 45.0000000  0  6G 5G 6G17G10G24G30
  20985958.3834    3473408.96347   2706547.13347                  20985966.6844
        27.7504         29.5004
  22182394.5234   -7337016.91947  -5650543.80646                  22182402.2384
        23.7504         23.2504
  23584502.0314   -6624050.59146  -4981947.04646                  23584513.9774
        13.2504         14.2504
  20977908.4224   -4020420.50848  -3132790.99447                  20977916.2194
        30.0004         31.0004
  22336563.9144    7222943.32847   5628263.42246                  22336572.4264
        22.5004         20.5004
  20675896.2894   -4673074.97348  -3641356.75547                  20675902.9574
        31.5004         32.0004
 00  5 11 19 26  0.0000000  0  6G 5G 6G17G10G24G30
  20991482.5634    3502439.07348   2729167.96047                  20991490.8054
        28.0004         29.5004
  22176190.1024   -7369622.08447  -5675950.41446                  22176197.7114
        24.2504         23.2504
  23577013.2734   -6663404.73246  -5012612.51046                  23577025.6174
        13.0004         14.5004
  20977401.3364   -4023084.90148  -3134867.13547                  20977409.0984
        29.7504         30.7504
  22343420.2034    7258972.62747   5656338.17146                  22343428.5514
        22.2504         20.5004
  20674549.2194   -4680155.08648  -3646873.73547                  20674556.0044
        28.2504         32.0004
 00  5 11 19 26 15.0000000  0  6G 5G 6G17G10G24G30
  20997028.5554    3531582.77748   2751877.29947                  20997037.0314
        28.0004         29.5004
  22169988.8204   -7402210.24347  -5701343.75846                  22169996.4304
        24.5004         23.2504
  23569534.1094   -6702708.26246  -5043238.55646                  23569546.3014
        13.7504         14.7504
  20976923.4064   -4025596.56348  -3136824.27247                  20976931.1684
        30.0004         30.7504
  22350279.5394    7295019.90547   5684426.92646                  22350288.3444
        22.0004         20.5004
  20673229.1804   -4687091.40647  -3652278.66747                  20673235.8594
        25.5004         32.2504
 00  5 11 19 26 30.0000000  0  6G 5G 6G17G10G24G30
  21002594.5864    3560833.16348   2774669.77147                  21002603.0634
        28.0004         29.5004
  22163789.5864   -7434787.98047  -5726728.98846                  22163797.1374
        24.5004         23.5004
  23562062.7034   -6741967.90346  -5073830.42146                  23562074.8834
        12.7504         14.5004
  20976473.1644   -4027962.16748  -3138667.59647                  20976480.9264
        29.7504         30.7504
  22357141.5314    7331078.48347   5712524.48946                  22357150.3134
        22.0004         20.5004
  20671935.4144   -4693890.58947  -3657576.73947                  20671942.0704
        23.7504         32.2504
 00  5 11 19 26 45.0000000  0  6G 5G 6G17G10G24G30
  21008182.2814    3590196.11547   2797549.95247                  21008190.6294
        27.5004         29.5004
  22157593.2194   -7467349.03547  -5752101.22246                  22157600.8404
        24.5004         23.5004
  23554601.3754   -6781177.41546  -5104383.18646                  23554613.6954
        13.2504         13.7504
  20976051.9224   -4030175.58548  -3140392.33547                  20976059.7544
        29.7504         30.5004
  22364006.3204    7367154.15247   5740635.36446                  22364015.1134
        22.0004         20.5004
  20670668.8204   -4700546.38947  -3662763.08747                  20670675.4774
        24.2504         32.2504
 00  5 11 19 27  0.0000000  0  6G 5G 6G17G10G24G30
  21013789.9924    3619665.24347   2820512.87147                  21013798.5864
        27.5004         29.5004
  22151398.8754   -7499899.55447  -5777465.24246                  22151406.8714
        24.5004         23.7504
  23547148.1644   -6820342.97546  -5134901.74046                  23547159.9574
        13.0004         14.2504
  20975658.5554   -4032243.06948  -3142003.36047                  20975666.2464
        29.5004         30.7504
  22370873.4614    7403240.47247   5768754.54346                  22370882.1374
        22.2504         20.5004
  20669428.6564   -4707064.98447  -3667842.52047                  20669435.3014
        22.2504         32.2504
 00  5 11 19 27 15.0000000  0  6G 5G 6G17G10G24G30
  21019417.7344    3649238.01147   2843556.54547                  21019426.1644
        27.7504         29.2504
  22145206.3444   -7532441.61147  -5802822.66346                  22145213.9884
        24.5004         23.7504
  23539703.5234   -6859466.74746  -5165387.70446                  23539716.1254
        13.2504         14.2504
  20975292.4384   -4034166.79948  -3143502.36447                  20975300.2344
        29.2504         30.5004
  22377741.6954    7439335.11647   5796880.21246                  22377750.5474
        21.7504         20.2504
  20668213.8834   -4713448.52247  -3672816.71447                  20668220.6214
        24.2504         32.2504
 00  5 11 19 27 30.0000000  0  6G 5G 6G17G10G24G30
  21025066.0394    3678919.97147   2866685.30747                  21025074.4344
        27.7504         29.2504
  22139016.3754   -7564969.29947  -5828168.89346                  22139024.1134
        24.0004         23.7504
  23532267.3524   -6898542.88446  -5195836.56046                  23532279.8834
        13.0004         14.5004
  20974954.8204   -4035940.96848  -3144884.83047                  20974962.7934
        29.5004         30.5004
  22384613.2274    7475443.53347   5825016.60846                  22384622.3134
        21.7504         20.5004
  20667025.7664   -4719691.13447  -3677681.09847                  20667032.3284
        23.5004         32.2504
 00  5 11 19 27 45.0000000  0  6G 5G 6G17G10G24G30
  21030734.7274    3708709.84847   2889898.15747                  21030743.1454
        27.7504         29.5004
  22132829.1884   -7597483.62347  -5853504.71446                  22132837.0664
        24.2504         23.7504
  23524840.3914   -6937572.45546  -5226249.13546                  23524853.1214
        13.0004         14.5004
  20974645.4384   -4037566.68148  -3146151.61947                  20974653.3984
        29.5004         30.5004
  22391486.7344    7511564.45747   5853162.75046                  22391495.3054
        21.7504         20.2504
  20665864.5394   -4725793.91647  -3682436.52247                  20665871.1134
        26.5004         32.2504
 00  5 11 19 28  0.0000000  0  6G 5G 6G17G10G24G30
  21036425.0314    3738611.75448   2913198.30247                  21036433.2504
        28.0004         29.2504
  22126645.5164   -7629980.20047  -5878826.70146                  22126653.3594
        24.2504         24.0004
  23517422.9144   -6976551.22546  -5256622.11646                  23517435.7854
        13.0004         14.7504
  20974365.2194   -4039039.64248  -3147299.37747                  20974373.1094
        29.2504         30.5004
  22398363.7584    7547702.06447   5881321.89846                  22398372.4454
        22.0004         20.7504
  20664730.5634   -4731752.44248  -3687079.53447                  20664737.2194
        28.5004         32.0004
 00  5 11 19 28 15.0000000  0  6G 5G 6G17G10G24G30
  21042135.3054    3768619.80647   2936581.16147                  21042143.7234
        27.7504         29.5004
  22120463.7274   -7662464.40847  -5904139.05346                  22120471.4654
        24.0004         23.7504
  23510013.9844   -7015484.63446  -5286959.75246                  23510025.9774
        13.2504         14.5004
  20974112.8054   -4040365.45748  -3148332.47347                  20974120.6724
        29.2504         30.5004
  22405242.5234    7583850.41347   5909489.40746                  22405251.4694
        22.0004         20.5004
  20663623.0634   -4737572.21948  -3691614.43247                  20663629.7074
        28.2504         32.0004
 00  5 11 19 28 30.0000000  0  6G 5G 6G17G10G24G30
  21047865.4454    3798731.99847   2960045.16447                  21047873.8874
        27.7504         29.2504
  22114284.3204   -7694937.90947  -5929443.05946                  22114291.8244
        23.7504         24.0004
  23502613.5394   -7054374.32246  -5317263.32146                  23502625.9414
        13.5004         15.0004
  20973888.1094   -4041545.95348  -3149252.33847                  20973895.9304
        29.7504         30.5004
  22412123.2424    7620007.71747   5937663.89846                  22412132.0124
        22.2504         21.0004
  20662541.7274   -4743254.78647  -3696042.41747                  20662548.5004
        25.5004         32.2504
 00  5 11 19 28 45.0000000  0  6G 5G 6G17G10G24G30
  21053615.5394    3828948.79447   2983590.67447                  21053624.0274
        27.7504         29.5004
  22108107.0554   -7727399.98947  -5954738.17146                  22108114.8524
        23.7504         24.0004
  23495221.3524   -7093219.60646  -5347532.28746                  23495233.0394
        13.7504         15.5004
  20973691.3284   -4042580.42348  -3150058.41547                  20973699.2304
        29.5004         30.5004
  22419005.2734    7656174.47047   5965845.74946                  22419014.8054
        22.0004         20.7504
  20661486.6334   -4748799.54348  -3700363.01247                  20661493.3364
        29.0004         32.2504
 00  5 11 19 29  0.0000000  0  6G 5G 6G17G10G24G30
  21059386.2664    3859273.54048   3007220.29947                  21059394.7774
        28.0004         29.5004
  22101932.4614   -7759846.94647  -5980021.48946                  22101940.3404
        23.7504         24.0004
  23487838.6414   -7132016.91146  -5377763.87246                  23487850.9024
        14.2504         15.5004
  20973522.7664   -4043465.35448  -3150747.96647                  20973530.7274
        29.0004         30.5004
  22425890.1174    7692353.93547   5994037.50946                  22425899.2034
        22.0004         20.7504
  20660458.5164   -4754202.71147  -3704573.28447                  20660465.1724
        26.2504         32.2504
 00  5 11 19 29 15.0000000  0  6G 5G 6G17G10G24G30
  21065176.3364    3889699.90247   3030929.10647                  21065184.7894
        27.7504         29.2504
  22095759.7504   -7792284.65847  -6005297.61246                  22095767.7584
        23.5004         24.0004
  23480463.6254   -7170772.16446  -5407962.69746                  23480475.0904
        14.5004         15.7504
  20973381.9694   -4044206.80748  -3151325.72147                  20973390.0124
        29.0004         30.5004
  22432775.9844    7728540.00847   6022234.41346                  22432784.9304
        22.5004         21.0004
  20659456.0474   -4759470.30047  -3708677.90747                  20659462.7384
        25.0004         32.2504
 00  5 11 19 29 30.0000000  0  6G 5G 6G17G10G24G30
  21070985.7194    3920228.82548   3054717.83547                  21070994.1844
        28.0004         29.5004
  22089589.0004   -7824711.89747  -6030565.56646                  22089597.2544
        23.5004         24.0004
  23473096.9304   -7209484.23846  -5438127.85746                  23473108.6644
        14.5004         15.5004
  20973268.2504   -4044803.60048  -3151790.75047                  20973276.4104
        29.0004         30.5004
  22439663.7034    7764733.54447   6050437.13746                  22439672.5084
        22.5004         20.7504
  20658479.8444   -4764601.22847  -3712676.04247                  20658486.4884
        23.5004         32.5004
 00  5 11 19 29 45.0000000  0  6G 5G 6G17G10G24G30
  21076815.5474    3950864.98947   3078590.12847                  21076824.1764
        27.2504         29.2504
  22083421.2194   -7857123.67047  -6055821.47746                  22083429.2154
        23.7504         23.7504
  23465738.8834   -7248148.15246  -5468255.51946                  23465750.6764
        14.2504         16.2504
  20973182.9534   -4045250.89748  -3152139.29347                  20973191.0434
        28.7504         30.2504
  22446553.4384    7800939.27247   6078649.36446                  22446562.4304
        22.0004         21.0004
  20657530.3834   -4769590.58447  -3716563.86247                  20657537.0514
        26.7504         32.2504
 00  5 11 19 30  0.0000000  0  6G 5G 6G17G10G24G30
  21082665.8204    3981607.54047   3102545.31647                  21082674.2854
        27.2504         29.2504
  22077256.4534   -7889520.45247  -6081065.70646                  22077264.5204
        24.0004         24.2504
  23458390.8204   -7286764.50046  -5498346.08846                  23458402.4264
        14.7504         15.5004
  20973126.1724   -4045549.30948  -3152371.81947                  20973134.2974
        28.5004         30.0004
  22453445.3674    7837156.39047   6106870.46246                  22453454.1844
        22.5004         20.7504
  20656607.7734   -4774438.74547  -3720341.65547                  20656614.5474
        27.0004         32.5004
 00  5 11 19 30 15.0000000  0  6G 5G 6G17G10G24G30
  21088534.9224    4012450.01147   3126578.36447                  21088543.6684
        27.0004         29.2504
  22071093.0314   -7921908.30547  -6106302.97246                  22071101.0394
        24.2504         24.2504
  23451050.0084   -7325339.51046  -5528404.45946                  23451061.7074
        14.2504         15.7504
  20973096.7974   -4045705.08348  -3152493.20047                  20973104.8404
        28.7504         30.2504
  22460338.1414    7873378.30047   6135095.29746                  22460346.9454
        22.7504         21.0004
  20655710.8284   -4779151.83447  -3724014.20147                  20655717.6024
        27.0004         32.2504
 00  5 11 19 30 30.0000000  0  6G 5G 6G17G10G24G30
  21094423.9144    4043396.83747   3150692.73747                  21094432.5554
        27.0004         29.0004
  22064932.4694   -7954282.44547  -6131529.55946                  22064940.4064
        23.7504         24.5004
  23443718.2424   -7363868.39946  -5558426.89646                  23443729.8244
        14.5004         15.7504
  20973095.0944   -4045713.54748  -3152499.79047                  20973103.0204
        28.5004         30.2504
  22467232.9224    7909609.66547   6163327.50246                  22467241.9964
        22.7504         21.0004
  20654840.5084   -4783725.26047  -3727577.91947                  20654847.3054
        27.2504         32.5004
 00  5 11 19 30 45.0000000  0  6G 5G 6G17G10G24G30
  21100333.5084    4074450.27547   3174890.17547                  21100342.2074
        27.0004         29.2504
  22058774.9144   -7986640.22747  -6156743.39546                  22058783.0164
        24.0004         24.5004
  23436395.6644   -7402348.62546  -5588411.41546                  23436407.1994
        14.2504         15.7504
  20973121.9224   -4045572.21748  -3152389.66047                  20973129.8364
        29.0004         30.2504
  22474129.6414    7945852.72947   6191568.81546                  22474138.9384
        22.7504         21.2504
  20653997.3284   -4788156.46348  -3731030.81047                  20654004.2234
        30.5004         32.2504
 00  5 11 19 31  0.0000000  0  6G 5G 6G17G10G24G30
  21106262.5004    4105608.94247   3199169.61347                  21106271.1644
        27.0004         29.2504
  22052620.3754   -8018982.71747  -6181945.31846                  22052628.5594
        24.0004         24.2504
  23429082.0704   -7440781.38846  -5618358.94746                  23429093.6414
        14.5004         15.5004
  20973177.3364   -4045282.34948  -3152163.78747                  20973185.2154
        29.0004         30.5004
  22481028.1254    7982106.04647   6219818.12546                  22481037.3524
        22.0004         21.0004
  20653180.9614   -4792446.57748  -3734373.76547                  20653187.7934
        32.2504         32.0004
 00  5 11 19 31 15.0000000  0  6G 5G 6G17G10G24G30
  21112212.4844    4136876.17647   3223533.64147                  21112221.0554
        26.7504         29.0004
  22046469.5234   -8051306.17447  -6207132.41346                  22046477.8364
        24.2504         24.7504
  23421778.0554   -7479163.00446  -5648266.63046                  23421790.1644
        14.2504         15.7504
  20973261.3284   -4044840.37548  -3151819.39247                  20973269.2194
        29.2504         30.5004
  22487930.0394    8018373.10347   6248078.12446                  22487939.3364
        22.2504         20.7504
  20652392.0634   -4796591.93048  -3737603.92247                  20652398.8364
        32.2504         32.0004
 00  5 11 19 31 30.0000000  0  6G 5G 6G17G10G24G30
  21118182.1724    4168245.45647   3247977.18947                  21118190.8134
        27.0004         29.0004
  22040320.7114   -8083616.88147  -6232309.56546                  22040328.9654
        24.5004         24.5004
  23414482.8284   -7517499.79846  -5678139.38246                  23414494.5164
        14.0004         15.5004
  20973373.1024   -4044252.74748  -3151361.49847                  20973380.9804
        29.7504         30.5004
  22494832.6724    8054647.47347   6276343.84346                  22494842.0274
        22.0004         20.5004
  20651629.7274   -4800598.77448  -3740726.14647                  20651636.4304
        29.7504         32.0004
 00  5 11 19 31 45.0000000  0  6G 5G 6G17G10G24G30
  21124171.7584    4199722.23747   3272504.50147                  21124180.4454
        27.2504         28.7504
  22034175.7194   -8115908.84847  -6257472.11846                  22034183.7154
        24.5004         24.7504
  23407197.1644   -7555785.89846  -5707972.62746                  23407208.8874
        14.2504         15.7504
  20973513.8204   -4043513.56048  -3150785.50447                  20973521.6054
        30.0004         30.5004
  22501737.8284    8090934.66747   6304619.54546                  22501747.1484
        21.7504         20.5004
  20650894.6724   -4804461.28548  -3743735.90147                  20650901.3634
        31.0004         32.2504
 00  5 11 19 32  0.0000000  0  6G 5G 6G17G10G24G30
  21130180.7664    4231298.40047   3297109.25747                  21130189.4774
        27.0004         29.0004
  22028032.8754   -8148189.85247  -6282626.13546                  22028040.8954
        24.5004         24.7504
  23399919.5084   -7594029.10546  -5737772.44946                  23399931.5704
        14.2504         16.0004
  20973681.6484   -4042630.64048  -3150097.51647                  20973689.3984
        30.2504         30.7504
  22508643.7584    8127226.65947   6332898.98546                  22508652.9844
        21.5004         20.5004
  20650185.5474   -4808187.27948  -3746639.28447                  20650192.3204
        29.0004         32.0004
 00  5 11 19 32 15.0000000  0  6G 5G 6G17G10G24G30
  21136209.0234    4262976.87747   3321793.73447                  21136217.6884
        26.7504         29.0004
  22021892.8594   -8180456.64547  -6307769.07046                  22021900.7154
        25.0004         24.7504
  23392650.7504   -7632226.19846  -5767536.35146                  23392661.9804
        14.2504         16.0004
  20973877.7664   -4041600.93748  -3149295.14447                  20973885.4804
        30.2504         30.7504
  22515551.5864    8163526.37147   6361184.44046                  22515560.9654
        21.2504         20.2504
  20649503.1644   -4811773.58848  -3749433.82047                  20649509.9264
        29.5004         32.0004
 00  5 11 19 32 30.0000000  0  6G 5G 6G17G10G24G30
  21142256.6024    4294757.90547   3346558.12247                  21142265.4184
        26.7504         29.0004
  22015755.5084   -8212708.56847  -6332900.42446                  22015763.5514
        24.2504         24.7504
  23385391.3444   -7670376.62146  -5797263.87846                  23385402.6334
        14.5004         16.0004
  20974101.6884   -4040424.09548  -3148378.12547                  20974109.3794
        30.5004         31.0004
  22522460.7814    8199834.17547   6389476.20846                  22522469.9144
        21.0004         19.7504
  20648847.2974   -4815219.54348  -3752118.98847                  20648854.0004
        28.0004         32.0004
 00  5 11 19 32 45.0000000  0  6G 5G 6G17G10G24G30
  21148323.4144    4326638.58547   3371400.16347                  21148332.0314
        26.5004         28.7504
  22009620.5084   -8244948.13147  -6358022.14046                  22009628.5514
        24.5004         24.7504
  23378139.6954   -7708483.10746  -5826957.16946                  23378151.1844
        14.2504         16.0004
  20974353.1484   -4039102.64748  -3147348.41947                  20974360.8754
        30.2504         31.0004
  22529370.8444    8236147.03847   6417771.90746                  22529379.7894
        20.7504         19.5004
  20648217.8054   -4818527.90748  -3754696.94447                  20648224.3674
        29.7504         32.0004
 00  5 11 19 33  0.0000000  0  6G 5G 6G17G10G24G30
  21154410.1024    4358625.13947   3396324.70547                  21154418.8834
        26.2504         28.7504
  22003488.9224   -8277168.86147  -6383129.18846                  22003497.0474
        24.2504         24.7504
  23370898.0784   -7746539.32646  -5856611.29546                  23370909.8954
        14.5004         16.0004
  20974633.4614   -4037630.36148  -3146201.17947                  20974641.0704
        30.0004         31.0004
  22536283.2114    8272471.32147   6446076.50846                  22536292.2974
        21.0004         19.7504
  20647615.8444   -4821692.09847  -3757162.55547                  20647622.5474
        27.5004         32.0004
 00  5 11 19 33 15.0000000  0  6G 5G 6G17G10G24G30
  21160517.0234    4390715.82547   3421330.37847                  21160525.8984
        26.2504         28.5004
  21997360.9924   -8309372.04547  -6408222.56046                  21997369.0824
        24.7504         25.0004
  23363665.2114   -7784546.58746  -5886227.27946                  23363677.0984
        14.2504         16.0004
  20974941.9694   -4036008.78848  -3144937.61747                  20974949.6254
        30.0004         31.0004
  22543197.2664    8308805.28147   6474388.64546                  22543206.3404
        20.5004         19.5004
  20647040.8524   -4824713.64747  -3759517.02347                  20647047.3914
        24.0004         32.2504
 00  5 11 19 33 30.0000000  0  6G 5G 6G17G10G24G30
  21166643.9774    4422912.71747   3446418.81647                  21166652.6414
        26.5004         28.5004
  21991236.7344   -8341555.20847  -6433300.33646                  21991244.7424
        24.7504         25.0004
  23356442.5004   -7822502.47746  -5915803.22246                  23356454.4344
        14.2504         16.0004
  20975279.4304   -4034235.61048  -3143555.91547                  20975287.1454
        30.2504         31.2504
  22550114.0234    8345151.20447   6502710.11446                  22550123.1564
        21.0004         19.5004
  20646493.5394   -4827590.06147  -3761758.39147                  20646500.3364
        26.5004         32.2504
 00  5 11 19 33 45.0000000  0  6G 5G 6G17G10G24G30
  21172790.7974    4455213.82847   3471588.46747                  21172799.5204
        26.0004         28.5004
  21985116.2034   -8373719.96347  -6458363.75446                  21985124.1414
        24.7504         25.2504
  23349228.9224   -7860408.63746  -5945340.41546                  23349240.6804
        14.5004         16.0004
  20975645.1804   -4032312.57348  -3142057.44047                  20975652.7544
        30.2504         30.7504
  22557032.0784    8381507.14747   6531039.38246                  22557041.2114
        20.5004         19.2504
  20645973.2034   -4830323.01147  -3763887.97047                  20645979.8954
        27.0004         32.5004
 00  5 11 19 34  0.0000000  0  6G 5G 6G17G10G24G30
  21178956.7664    4487617.21347   3496837.80247                  21178965.4064
        26.2504         28.5004
  21978998.5944   -8405867.82547  -6483414.02146                  21979006.4384
        25.0004         25.0004
  23342024.8054   -7898266.70546  -5974840.15146                  23342036.3164
        14.5004         16.2504
  20976039.4774   -4030241.39048  -3140443.53347                  20976047.2624
        30.2504         31.0004
  22563952.1174    8417871.20747   6559374.97746                  22563961.0744
        20.7504         19.2504
  20645480.3754   -4832914.28848  -3765907.16247                  20645487.1134
        29.5004         32.2504
 00  5 11 19 34 15.0000000  0  6G 5G 6G17G10G24G30
  21185142.1254    4520120.50547   3522164.99747                  21185150.8594
        25.7504         28.2504
  21972883.8054   -8438000.76647  -6508452.66146                  21972891.6254
        25.2504         25.2504
  23334829.3984   -7936078.77446  -6004304.02746                  23334840.7344
        14.7504         16.2504
  20976461.1174   -4028024.22548  -3138715.86947                  20976468.8444
        30.0004         31.0004
  22570873.0634    8454241.05047   6587715.08246                  22570881.8674
        21.0004         19.2504
  20645013.7504   -4835365.88948  -3767817.50947                  20645020.6214
        29.7504         32.2504
 00  5 11 19 34 30.0000000  0  6G 5G 6G17G10G24G30
  21191346.8834    4552728.13847   3547573.48747                  21191355.9694
        25.7504         28.2504
  21966772.7344   -8470113.99047  -6533475.93546                  21966780.6374
        25.2504         25.5004
  23327643.7274   -7973840.21146  -6033728.44746                  23327655.3204
        14.7504         16.2504
  20976911.8834   -4025656.34748  -3136870.76547                  20976919.5864
        30.0004         30.7504
  22577796.0164    8490621.26647   6616063.27646                  22577805.0664
        21.0004         19.0004
  20644574.6724   -4837673.12448  -3769615.36647                  20644581.5784
        31.0004         32.2504
 00  5 11 19 34 45.0000000  0  6G 5G 6G17G10G24G30
  21197571.2424    4585437.81947   3573061.49647                  21197580.2814
        25.5004         28.0004
  21960665.1954   -8502209.43947  -6558485.36046                  21960673.2274
        26.0004         25.5004
  23320466.9614   -8011553.04946  -6063115.02546                  23320477.9694
        14.7504         16.2504
  20977390.7584   -4023140.00548  -3134909.97447                  20977398.5904
        30.0004         30.7504
  22584720.5704    8527009.59147   6644417.77446                  22584729.3984
        20.7504         19.0004
  20644162.7114   -4839838.09448  -3771302.36647                  20644169.6294
        31.5004         32.2504
 00  5 11 19 35  0.0000000  0  6G 5G 6G17G10G24G30
  21203815.3834    4618249.73047   3598629.17347                  21203824.3404
        25.5004         27.7504
  21954561.2734   -8534286.57747  -6583480.51646                  21954569.0944
        25.5004         25.5004
  23313300.0234   -8049216.70846  -6092463.26046                  23313311.4064
        15.0004         16.5004
  20977897.8524   -4020474.73548  -3132833.14147                  20977905.6374
        29.7504         31.0004
  22591646.5864    8563406.15647   6672778.69946                  22591655.3204
        21.5004         18.7504
  20643777.7814   -4841860.23248  -3772878.06447                  20643784.8754
        32.2504         32.0004
 00  5 11 19 35 15.0000000  0  6G 5G 6G17G10G24G30
  21210078.7034    4651163.24247   3624276.01347                  21210087.7894
        25.2504         28.0004
  21948460.5084   -8566345.59247  -6608461.54947                  21948468.1054
        26.2504         25.7504
  23306141.9144   -8086831.48746  -6121773.40646                  23306153.3914
        15.2504         16.5004
  20978433.1174   -4017660.94948  -3130640.57747                  20978440.7034
        30.0004         30.7504
  22598574.1804    8599810.55447   6701145.73646                  22598582.8794
        21.5004         19.0004
  20643420.0474   -4843739.79248  -3774342.66647                  20643426.9064
        30.7504         32.0004
 00  5 11 19 35 30.0000000  0  6G 5G 6G17G10G24G30
  21216361.8284    4684180.18447   3650003.44947                  21216370.7154
        25.5004         27.7504
  21942363.7034   -8598384.34547  -6633426.79647                  21942371.4414
        26.2504         25.7504
  23298993.6334   -8124395.34546  -6151043.88646                  23299005.5664
        14.5004         17.0004
  20978997.4614   -4014696.68348  -3128330.75647                  20979005.1294
        30.0004         30.7504
  22605503.2194    8636224.63847   6729520.30946                  22605511.8484
        21.2504         19.2504
  20643090.1024   -4845474.78648  -3775694.62147                  20643096.8524
        30.7504         32.0004
 00  5 11 19 35 45.0000000  0  6G 5G 6G17G10G24G30
  21222664.1644    4717299.75047   3675810.84547                  21222673.3554
        25.7504         28.0004
  21936270.9844   -8630403.23047  -6658376.55847                  21936278.5474
        26.7504         26.0004
  23291855.1334   -8161908.84846  -6180275.11946                  23291866.6914
        15.0004         16.7504
  20979589.9774   -4011582.49948  -3125904.11847                  20979597.6214
        29.7504         30.7504
  22612434.6414    8672647.58347   6757901.78246                  22612443.5274
        21.7504         19.2504
  20642787.3134   -4847065.79448  -3776934.37847                  20642794.3014
        31.2504         32.0004
 00  5 11 19 36  0.0000000  0  6G 5G 6G17G10G24G30
  21228986.1334    4750521.54847   3701697.90747                  21228995.0904
        25.7504         28.0004
  21930181.6724   -8662402.20247  -6683310.80747                  21930189.4344
        26.2504         26.0004
  23284725.8204   -8199372.05846  -6209467.15946                  23284737.5784
        14.7504         16.7504
  20980211.1094   -4008318.55048  -3123360.77947                  20980218.8014
        30.0004         30.7504
  22619367.5784    8709079.28147   6786290.08946                  22619376.5004
        21.7504         19.2504
  20642511.9064   -4848512.76848  -3778061.90547                  20642518.6334
        30.0004         31.7504
 00  5 11 19 36 15.0000000  0  6G 5G 6G17G10G24G30
  21235327.2894    4783843.56147   3727663.06047                  21235336.2704
        26.0004         28.0004
  21924095.8594   -8694382.90747  -6708230.81447                  21924103.8094
        26.2504         26.0004
  23277606.2584   -8236786.66546  -6238621.32946                  23277618.0634
        15.2504         16.7504
  20980860.2734   -4004906.82148  -3120702.28747                  20980868.1414
        29.5004         31.0004
  22626301.4694    8745517.63547   6814683.58546                  22626310.4964
        21.2504         19.2504
  20642263.7274   -4849817.52748  -3779078.61147                  20642270.4304
        30.7504         31.7504
 00  5 11 19 36 30.0000000  0  6G 5G 6G17G10G24G30
  21241686.1804    4817260.98747   3753702.56047                  21241695.1134
        26.0004         27.7504
  21918012.6884   -8726349.79547  -6733140.06047                  21918020.4844
        26.5004         26.0004
  23270494.5394   -8274157.21646  -6267741.17046                  23270506.4734
        15.0004         17.0004
  20981536.9144   -4001351.87448  -3117932.19647                  20981544.6644
        29.7504         30.7504
  22633235.7424    8781957.90947   6843078.56346                  22633244.7814
        21.5004         19.2504
  20642041.6954   -4850984.60648  -3779988.03547                  20642048.4104
        28.7504         31.7504
 00  5 11 19 36 45.0000000  0  6G 5G 6G17G10G24G30
  21248064.8834    4850780.08547   3779821.28447                  21248073.7114
        26.0004         27.7504
  21911933.5004   -8758296.14647  -6758033.30747                  21911941.2974
        26.5004         26.2504
  23263392.8524   -8311477.13546  -6296821.57246                  23263404.2584
        14.7504         16.7504
  20982241.7504   -3997647.28848  -3115045.50347                  20982249.5704
        29.7504         30.7504
  22640171.7504    8818406.39947   6871479.95646                  22640180.3094
        21.5004         19.0004
  20641847.0554   -4852007.42348  -3780785.05347                  20641853.8284
        28.2504         32.0004
 00  5 11 19 37  0.0000000  0  6G 5G 6G17G10G24G30
  21254461.9304    4884397.61047   3806016.71047                  21254470.6764
        26.2504         27.7504
  21905857.6334   -8790224.89447  -6782912.82847                  21905865.3714
        26.0004         26.2504
  23256299.8444   -8348749.47346  -6325864.88546                  23256311.2154
        15.2504         16.7504
  20982974.6644   -3993796.17448  -3112044.63047                  20982982.5554
        29.7504         30.7504
  22647108.8134    8854859.95547   6899885.28446                  22647117.8634
        21.7504         19.2504
  20641679.3054   -4852889.08448  -3781472.07047                  20641685.9024
        30.2504         31.7504
 00  5 11 19 37 15.0000000  0  6G 5G 6G17G10G24G30
  21260879.3834    4918121.26947   3832294.83147                  21260888.2814
        26.2504         28.0004
  21899786.6484   -8822127.79947  -6807772.21547                  21899794.4454
        26.2504         26.2504
  23249217.8284   -8385966.12246  -6354864.80546                  23249229.0594
        15.2504         17.0004
  20983736.7504   -3989790.37648  -3108923.22947                  20983744.5594
        30.0004         30.7504
  22654047.9924    8891326.56747   6928300.79646                  22654057.1134
        21.2504         19.0004
  20641540.0634   -4853621.48848  -3782042.78747                  20641546.7664
        31.5004         32.0004
 00  5 11 19 37 30.0000000  0  6G 5G 6G17G10G24G30
  21267314.5474    4951937.69247   3858645.23847                  21267323.2114
        26.2504         28.0004
  21893718.3444   -8854017.86547  -6832621.59847                  21893726.0824
        26.2504         26.2504
  23242143.9224   -8423140.21646  -6383831.57246                  23242155.3754
        15.2504         17.2504
  20984526.1564   -3985643.13248  -3105691.61047                  20984533.8364
        30.0004         30.7504
  22660987.1954    8927792.78347   6956715.99646                  22660996.0004
        21.7504         19.5004
  20641426.6804   -4854217.62848  -3782507.33347                  20641433.3014
        30.0004         32.0004
 00  5 11 19 37 45.0000000  0  6G 5G 6G17G10G24G30
  21273769.4614    4985857.35047   3885076.08747                  21273778.3484
        26.0004         28.0004
  21887654.3134   -8885884.22047  -6857452.51247                  21887661.9224
        26.5004         26.2504
  23235080.1954   -8460260.99346  -6412756.78846                  23235091.3094
        15.7504         17.2504
  20985344.2424   -3981343.83448  -3102341.50547                  20985351.8524
        30.0004         30.7504
  22667928.7194    8964269.31247   6985139.22946                  22667937.4534
        21.2504         19.2504
  20641340.9694   -4854666.83448  -3782857.37647                  20641347.6844
        29.7504         32.0004
 00  5 11 19 38  0.0000000  0  6G 5G 6G17G10G24G30
  21280243.1254    5019876.06447   3911584.12047                  21280252.1174
        26.5004         28.0004
  21881593.9614   -8917730.59847  -6882267.85047                  21881601.6644
        27.0004         26.5004
  23228025.4534   -8497332.30846  -6441643.46046                  23228037.2344
        14.7504         17.0004
  20986190.6564   -3976896.50048  -3098876.04747                  20986198.2424
        30.0004         30.5004
  22674870.9924    9000751.94947   7013567.22546                  22674879.8674
        21.0004         19.0004
  20641282.9774   -4854973.01948  -3783095.97547                  20641289.7384
        31.0004         32.0004
 00  5 11 19 38 15.0000000  0  6G 5G 6G17G10G24G30
  21286735.7664    5053995.22347   3938170.42347                  21286744.7464
        26.5004         28.0004
  21875538.0554   -8949555.19547  -6907066.22347                  21875545.7704
        27.0004         26.5004
  23220980.9224   -8534352.45046  -6470490.26546                  23220992.2704
        15.2504         17.0004
  20987065.3834   -3972299.52748  -3095293.99247                  20987072.9224
        30.2504         30.7504
  22681814.6564    9037242.14447   7042001.10946                  22681823.5664
        21.2504         19.0004
  20641252.1564   -4855134.46448  -3783221.78747                  20641259.0164
        30.7504         32.0004
 00  5 11 19 38 30.0000000  0  6G 5G 6G17G10G24G30
  21293247.4304    5088214.78147   3964834.95447                  21293256.4574
        26.5004         28.0004
  21869486.2974   -8981357.69447  -6931847.37147                  21869494.0474
        27.0004         26.7504
  23213946.0784   -8571321.12946  -6499296.95746                  23213957.5434
        15.0004         16.7504
  20987968.6254   -3967552.73748  -3091595.18947                  20987976.0824
        30.5004         31.0004
  22688760.2274    9073740.01447   7070440.97546                  22688769.1484
        20.5004         19.0004
  20641249.2034   -4855150.98048  -3783234.67447                  20641255.9654
        29.7504         32.0004
 00  5 11 19 38 45.0000000  0  6G 5G 6G17G10G24G30
  21299777.0554    5122527.69947   3991572.23647                  21299785.8014
        26.7504         27.7504
  21863437.3444   -9013144.70947  -6956616.45647                  21863445.0594
        27.2504         26.7504
  23206919.3524   -8608245.17246  -6528068.88146                  23206930.8874
        15.0004         17.0004
  20988899.0084   -3962662.92248  -3087784.94247                  20988906.4884
        30.5004         30.7504
  22695705.6804    9110238.61747   7098881.40546                  22695714.8484
        21.0004         19.0004
  20641272.0314   -4855029.22148  -3783139.80747                  20641278.9384
        32.0004         32.0004
 00  5 11 19 39  0.0000000  0  6G 5G 6G17G10G24G30
  21306325.5474    5156939.99147   4018386.95547                  21306334.5274
        26.2504         27.7504
  21857392.8914   -9044909.78947  -6981368.44947                  21857400.6414
        27.2504         26.7504
  23199902.3754   -8645118.25846  -6556801.07946                  23199914.2974
        15.2504         17.0004
  20989858.0634   -3957623.95648  -3083858.47047                  20989865.6254
        30.5004         30.7504
  22702652.7114    9146744.20047   7127327.28546                  22702661.4454
        21.0004         18.7504
  20641322.8984   -4854762.87248  -3782932.28147                  20641329.7074
        28.7504         32.0004
 00  5 11 19 39 15.0000000  0  6G 5G 6G17G10G24G30
  21312893.2034    5191452.12047   4045279.46847                  21312902.0904
        26.5004         27.7504
  21851352.2194   -9076652.09547  -7006102.69547                  21851359.9344
        27.5004         26.7504
  23192895.9534   -8681939.59146  -6585492.96846                  23192907.4534
        16.2504         17.5004
  20990845.4614   -3952435.24948  -3079815.32147                  20990852.9064
        30.7504         31.0004
  22709600.5004    9183257.06847   7155778.83846                  22709609.6684
        20.7504         18.7504
  20641401.0394   -4854351.40748  -3782611.66747                  20641407.9224
        31.7504         32.0004
 00  5 11 19 39 30.0000000  0  6G 5G 6G17G10G24G30
  21319479.4694    5226063.36247   4072249.20947                  21319488.2384
        26.5004         27.5004
  21845316.2344   -9108372.03347  -7030819.51047                  21845324.0664
        27.7504         27.0004
  23185899.1334   -8718709.60346  -6614144.86746                  23185910.1994
        16.2504         17.2504
  20991861.3204   -3947097.33348  -3075655.90047                  20991868.9774
        30.7504         31.0004
  22716550.1174    9219776.68947   7184235.64046                  22716559.5664
        20.0004         18.7504
  20641506.8984   -4853795.30048  -3782178.35047                  20641513.8874
        32.2504         32.0004
 00  5 11 19 39 45.0000000  0  6G 5G 6G17G10G24G30
  21326084.7504    5260775.00747   4099297.18847                  21326093.2734
        26.5004         27.2504
  21839285.0004   -9140067.85647  -7055517.54147                  21839292.8914
        27.5004         26.7504
  23178911.7114   -8755426.72646  -6642755.55046                  23178923.3404
        15.7504         17.2504
  20992905.6174   -3941608.70848  -3071379.04947                  20992913.2154
        30.5004         31.0004
  22723501.1414    9256304.36747   7212698.73146                  22723510.4384
        20.2504         18.7504
  20641640.5234   -4853092.88548  -3781631.02647                  20641647.5944
        32.0004         32.2504
 00  5 11 19 40  0.0000000  0  6G 5G 6G17G10G24G30
  21332709.3674    5295587.16447   4126423.49447                  21332718.2074
        26.0004         27.2504
  21833257.9384   -9171738.99547  -7080196.33547                  21833265.6054
        27.2504         26.7504
  23171934.5634   -8792090.59946  -6671324.73046                  23171945.7114
        15.7504         17.5004
  20993978.8754   -3935969.11748  -3066984.55747                  20993986.5314
        30.7504         31.0004
  22730454.0394    9292840.50847   7241168.41946                  22730463.3014
        20.0004         18.5004
  20641802.3054   -4852243.74248  -3780969.37147                  20641809.3404
        31.5004         32.0004
 00  5 11 19 40 15.0000000  0  6G 5G 6G17G10G24G30
  21339352.0634    5330494.65447   4153624.07847                  21339360.6564
        26.5004         27.2504
  21827234.9304   -9203390.10947  -7104859.52047                  21827242.5514
        27.5004         26.7504
  23164967.0004   -8828706.00246  -6699856.15346                  23164978.5354
        15.2504         17.0004
  20995079.7114   -3930183.50248  -3062476.28547                  20995087.5204
        30.2504         31.0004
  22737406.9534    9329379.86246   7269640.61046                  22737416.6254
        19.5004         18.7504
  20641990.8134   -4851252.66848  -3780197.11847                  20641997.8134
        32.0004         32.2504
 00  5 11 19 40 30.0000000  0  6G 5G 6G17G10G24G30
  21346014.0474    5365503.23247   4180903.43447                  21346022.9104
        26.0004         27.5004
  21821216.9614   -9235015.10247  -7129502.35847                  21821224.5944
        27.7504         26.7504
  23158009.4144   -8865266.85646  -6728345.06146                  23158020.9024
        15.7504         17.2504
  20996209.6884   -3924245.80548  -3057849.50747                  20996217.4734
        30.5004         31.0004
  22744362.0554    9365928.36346   7298119.92146                  22744371.7154
        19.2504         18.5004
  20642207.4064   -4850113.75748  -3779309.67047                  20642214.2774
        30.7504         32.0004
 00  5 11 19 40 45.0000000  0  6G 5G 6G17G10G24G30
  21352695.0394    5400611.39147   4208260.38047                  21352703.9614
        26.2504         27.2504
  21815203.5164   -9266615.11147  -7154125.72347                  21815211.2544
        27.7504         26.7504
  23151062.1564   -8901774.41146  -6756792.44546                  23151073.0124
        15.7504         17.5004
  20997368.3284   -3918157.34548  -3053105.25347                  20997376.0084
        30.0004         31.0004
  22751318.2894    9402484.67146   7326605.31246                  22751327.7154
        19.7504         18.5004
  20642452.2194   -4848828.40748  -3778308.11347                  20642459.0634
        29.5004         32.2504
 00  5 11 19 41  0.0000000  0  6G 5G 6G17G10G24G30
  21359393.7894    5435814.74347   4235691.50447                  21359402.5944
        25.5004         27.0004
  21809194.2034   -9298194.18047  -7178732.77647                  21809201.8014
        27.0004         26.7504
  23144124.2424   -8938232.77046  -6785201.49846                  23144135.7194
        16.0004         17.5004
  20998554.7664   -3911922.47748  -3048246.91347                  20998562.7034
        30.0004         31.0004
  22758275.4224    9439044.32746   7355093.32746                  22758284.9304
        19.7504         18.2504
  20642723.9144   -4847400.60848  -3777195.55747                  20642730.7854
        30.2504         32.0004
 00  5 11 19 41 15.0000000  0  6G 5G 6G17G10G24G30
  21366110.9774    5471112.63247   4263196.29347                  21366119.8524
        26.0004         27.0004
  21803188.8674   -9329752.41847  -7203323.59347                  21803196.5944
        27.0004         26.7504
  23137196.0394   -8974642.26746  -6813572.46646                  23137207.1644
        16.2504         17.5004
  20999768.6804   -3905541.66048  -3043274.84547                  20999776.7344
        30.0004         31.0004
  22765233.2584    9475606.93646   7383583.63446                  22765242.9064
        19.2504         18.2504
  20643022.6564   -4845830.62548  -3775972.20647                  20643029.4414
        30.5004         32.2504
 00  5 11 19 41 30.0000000  0  6G 5G 6G17G10G24G30
  21372846.7274    5506509.18447   4290777.96047                  21372855.5314
        25.7504         27.0004
  21797188.2344   -9361285.37247  -7227894.71247                  21797195.9384
        27.2504         27.0004
  23130277.6564   -9010998.58346  -6841902.00446                  23130289.1094
        16.5004         17.5004
  21001011.7664   -3899010.79548  -3038185.86247                  21001019.5984
        30.0004         31.2504
  22772192.3594    9512176.60846   7412079.44346                  22772201.7624
        19.2504         18.2504
  20643349.1724   -4844114.26148  -3774634.80047                  20643356.0044
        30.2504         32.2504
 00  5 11 19 41 45.0000000  0  6G 5G 6G17G10G24G30
  21379600.5474    5541999.98547   4318433.07247                  21379609.3404
        25.2504         27.0004
  21791191.7814   -9392796.99247  -7252449.20447                  21791199.4144
        27.0004         26.7504
  23123368.5164   -9047305.78446  -6870193.27046                  23123379.6054
        16.0004         17.5004
  21002282.1334   -3892333.86048  -3032983.05547                  21002290.1174
        30.2504         31.0004
  22779151.6334    9548749.00746   7440577.38346                  22779161.0474
        19.2504         18.2504
  20643702.9064   -4842255.62748  -3773186.52747                  20643709.6914
        31.7504         32.0004
 00  5 11 19 42  0.0000000  0  6G 5G 6G17G10G24G30
  21386372.6414    5577587.74647   4346163.73647                  21386381.6564
        25.5004         26.7504
  21785200.0004   -9424284.02247  -7276984.53547                  21785207.9144
        27.0004         26.7504
  23116469.5474   -9083560.70046  -6898443.78646                  23116480.4844
        16.5004         17.2504
  21003581.2504   -3885507.95948  -3027664.17447                  21003589.1644
        30.0004         31.2504
  22786112.3984    9585327.10446   7469079.75246                  22786121.7304
        19.2504         18.5004
  20644084.4144   -4840251.58948  -3771624.95847                  20644091.2734
        32.5004         32.0004
 00  5 11 19 42 15.0000000  0  6G 5G 6G17G10G24G30
  21393163.2974    5613272.63047   4373970.08047                  21393172.3014
        25.2504         26.7504
  21779213.0394   -9455745.97847  -7301500.33047                  21779221.0004
        27.0004         26.7504
  23109580.2664   -9119762.98646  -6926653.30946                  23109590.9104
        16.7504         17.7504
  21004908.6174   -3878532.81848  -3022229.00047                  21004916.4964
        30.2504         31.0004
  22793073.6174    9621911.19046   7497586.79446                  22793082.7384
        18.7504         18.0004
  20644493.4304   -4838101.80748  -3769949.81947                  20644500.4064
        32.5004         32.0004
 00  5 11 19 42 30.0000000  0  6G 5G 6G17G10G24G30
  21399971.8674    5649051.33847   4401849.53347                  21399980.8834
        25.5004         26.7504
  21773230.2194   -9487185.73647  -7325998.82647                  21773237.9694
        27.7504         27.2504
  23102700.6094   -9155915.67346  -6954824.16346                  23102711.6764
        16.2504         17.5004
  21006263.9064   -3871411.56148  -3016679.96847                  21006271.5984
        30.5004         31.0004
  22800036.1804    9658498.04246   7526095.99846                  22800045.7234
        18.7504         17.7504
  20644929.6644   -4835809.47348  -3768163.59947                  20644936.4964
        32.7504         32.0004
 00  5 11 19 42 45.0000000  0  6G 5G 6G17G10G24G30
  21406798.2974    5684924.44947   4429802.53747                  21406807.5474
        25.5004         26.7504
  21767251.8364   -9518602.21947  -7350479.19247                  21767259.4804
        27.2504         27.0004
  23095830.4924   -9192017.78546  -6982955.62346                  23095841.7114
        16.0004         17.7504
  21007646.7114   -3864143.44848  -3011016.50247                  21007654.2734
        30.7504         31.2504
  22806999.1484    9695088.38246   7554607.90446                  22807008.6564
        19.0004         17.7504
  20645393.1254   -4833373.55448  -3766265.50047                  20645400.0784
        32.2504         32.0004
 00  5 11 19 43  0.0000000  0  6G 5G 6G17G10G24G30
  21413643.9304    5720897.82547   4457833.68247                  21413653.0274
        25.5004         26.5004
  21761279.1724   -9549989.16547  -7374936.53247                  21761286.8874
        27.5004         27.2504
  23088971.0704   -9228063.16146  -7011042.86446                  23088981.8674
        16.2504         17.5004
  21009058.9774   -3856722.45048  -3005233.90547                  21009066.6684
        30.5004         31.0004
  22813963.9064    9731688.13946   7583127.16446                  22813973.4494
        18.7504         18.0004
  20645885.3524   -4830787.96348  -3764250.76947                  20645892.3284
        32.5004         32.0004
 00  5 11 19 43 15.0000000  0  6G 5G 6G17G10G24G30
  21420508.0394    5756968.95247   4485940.98947                  21420517.1484
        25.2504         26.7504
  21755311.6174   -9581348.70948  -7399372.53147                  21755319.2384
        28.0004         27.2504
  23082122.5784   -9264054.06246  -7039087.66746                  23082133.7504
        16.5004         17.7504
  21010499.8204   -3849150.81948  -2999333.93147                  21010507.5234
        30.7504         31.0004
  22820930.1804    9768294.92246   7611651.88946                  22820939.9574
        19.2504         18.0004
  20646405.4304   -4828054.99348  -3762121.20047                  20646412.2624
        32.5004         32.0004
 00  5 11 19 43 30.0000000  0  6G 5G 6G17G10G24G30
  21427389.7584    5793133.35547   4514120.98247                  21427398.9844
        25.5004         26.5004
  21749348.5474   -9612684.81647  -7423790.26147                  21749356.0514
        27.7504         27.2504
  23075283.0164   -9299994.72746  -7067093.32346                  23075293.8364
        16.5004         17.7504
  21011968.4304   -3841432.87048  -2993319.94747                  21011976.0164
        30.5004         30.7504
  22827896.7344    9804904.42546   7640178.74246                  22827906.2304
        19.0004         17.7504
  20646952.7034   -4825178.77148  -3759880.00747                  20646959.5354
        32.2504         31.7504
 00  5 11 19 43 45.0000000  0  6G 5G 6G17G10G24G30
  21434288.9694    5829388.86047   4542371.96147                  21434298.2664
        25.0004         26.5004
  21743389.5704   -9643999.29148  -7448191.13847                  21743397.0744
        28.0004         27.5004
  23068452.7424   -9335886.95646  -7095061.23946                  23068463.6684
        16.5004         18.0004
  21013464.7584   -3833570.61648  -2987193.51547                  21013472.3674
        30.2504         30.7504
  22834863.2194    9841514.61146   7668706.13046                  22834872.1994
        19.0004         17.2504
  20647526.9694   -4822161.28848  -3757528.73747                  20647533.8874
        32.5004         31.7504
 00  5 11 19 44  0.0000000  0  6G 5G 6G17G10G24G30
  21441206.5314    5865739.43947   4570697.02547                  21441215.7704
        25.2504         26.5004
  21737435.3674   -9675287.76148  -7472571.74947                  21737443.0594
        28.2504         27.5004
  23061632.8914   -9371726.53246  -7122988.12746                  23061643.8754
        16.7504         18.0004
  21014988.8914   -3825560.10748  -2980951.56347                  21014996.5944
        30.2504         31.0004
  22841830.8984    9878129.35946   7697237.05946                  22841840.3484
        18.7504         17.2504
  20648128.7974   -4818998.40848  -3755064.17247                  20648135.8444
        32.5004         31.7504
 00  5 11 19 44 15.0000000  0  6G 5G 6G17G10G24G30
  21448141.2664    5902181.85847   4599093.65247                  21448150.7274
        24.7504         26.2504
  21731485.8984   -9706552.91348  -7496934.19047                  21731493.4144
        28.2504         27.2504
  23054822.0234   -9407516.34746  -7150876.22446                  23054832.8674
        16.7504         18.2504
  21016540.9144   -3817404.28048  -2974596.37547                  21016548.6644
        30.5004         31.0004
  22848798.7584    9914745.67646   7725769.21646                  22848808.6644
        18.7504         18.0004
  20648757.6484   -4815692.94748  -3752488.50647                  20648764.5784
        32.5004         31.7504
 00  5 11 19 44 30.0000000  0  6G 5G 6G17G10G24G30
  21455094.0554    5938718.85447   4627563.97447                  21455103.2934
        25.0004         26.5004
  21725541.5004   -9737791.59348  -7521276.00347                  21725548.9104
        28.7504         27.5004
  23048021.7274   -9443253.28446  -7178723.13346                  23048032.7114
        16.7504         18.2504
  21018121.0554   -3809100.11348  -2968125.59847                  21018128.8984
        30.2504         31.0004
  22855767.5944    9951366.50046   7754304.89546                  22855777.7584
        19.0004         18.0004
  20649414.4304   -4812241.98948  -3749799.46447                  20649421.4184
        32.5004         32.0004
 00  5 11 19 44 45.0000000  0  6G 5G 6G17G10G24G30
  21462064.3594    5975347.83547   4656105.97347                  21462073.5394
        24.7504         26.0004
  21719601.5234   -9769006.08348  -7545598.97547                  21719608.8754
        28.2504         27.2504
  23041230.9384   -9478939.73446  -7206530.68946                  23041241.8284
        16.7504         18.2504
  21019729.1724   -3800650.22048  -2961541.26747                  21019737.0044
        30.0004         31.0004
  22862736.7504    9987989.32146
        19.0004
  20650098.3984   -4808647.88548  -3746998.88447                  20650105.6094
        32.5004         31.7504
 00  5 11 19 45  0.0000000  0  6G 5G 6G17G10G24G30
  21469053.1414    6012073.75047   4684723.50447                  21469062.3794
        25.0004         26.2504
  21713667.3674   -9800190.91548  -7569898.83147                  21713674.6024
        28.5004         27.2504
  23034450.2734   -9514570.35346  -7234294.74646                  23034461.0234
        17.2504         18.7504
  21021365.7344   -3792049.28148  -2954839.24347                  21021373.5664
        30.2504         31.0004
  22869707.0944   10024619.19746
        19.2504
  20650810.5084   -4804905.39448  -3744082.67147                  20650817.6604
        32.2504         31.7504
 00  5 11 19 45 15.0000000  0  6G 5G 6G17G10G24G30
  21476059.2664    6048890.97647   4713412.18347                  21476068.6214
        24.7504         26.5004
  21707737.7194   -9831351.24548  -7594179.59347                  21707745.1644
        28.7504         27.0004
  23027679.6484   -9550150.49246  -7262019.47846                  23027690.2234
        17.5004         18.5004
  21023030.1564   -3783302.81148  -2948023.81747                  21023037.9304
        30.5004         31.0004
  22876677.7504   10061250.65946      5706.80056                  22876687.6914
        19.2504         17.5004
  20651550.0164   -4801019.91348  -3741055.04547                  20651557.1564
        32.2504         32.0004
 00  5 11 19 45 30.0000000  0  6G 5G 6G17G10G24G30
  21483082.9454    6085800.26947   4742172.60347                  21483092.1844
        25.0004         26.0004
  21701812.9924   -9862485.81848  -7618440.28847                  21701820.2154
        28.5004         27.0004
  23020918.7344   -9585679.10246  -7289704.04546                  23020929.4384
        17.5004         18.7504
  21024722.6484   -3774409.96448  -2941094.32847                  21024730.4454
        30.2504         31.0004
  22883648.8204   10097884.61646     34252.70546                  22883658.2934
        18.7504         17.7504
  20652316.7504   -4796990.39548  -3737915.17547                  20652323.9024
        32.5004         31.7504
 00  5 11 19 45 45.0000000  0  6G 5G 6G17G10G24G30
  21490125.1884    6122806.95347   4771008.91547                  21490134.3324
        24.7504         26.0004
  21695894.0474   -9893588.91848  -7642676.45947                  21695901.4344
        28.5004         27.2504
  23014168.9614   -9621150.49046  -7317344.03146                  23014179.9344
        17.5004         18.7504
  21026443.5784   -3765365.30148  -2934046.54047                  21026451.4454
        30.0004         31.2504
  22890621.8914   10134526.45546     62804.74746                  22890631.8444
        19.2504         18.0004
  20653111.8284   -4792811.19148  -3734658.67047                  20653118.9104
        32.2504         31.7504
 00  5 11 19 46  0.0000000  0  6G 5G 6G17G10G24G30
  21497185.0634    6159907.77447   4799918.58347                  21497194.4064
        24.5004         26.0004
  21689980.8444   -9924663.31248  -7666890.25747                  21689988.1954
        28.2504         27.0004
  23007429.0394   -9656567.68746  -7344941.79246                  23007439.8954
        17.2504         18.7504
  21028193.1484   -3756171.81348  -2926882.78547                  21028201.1454
        30.0004         31.0004
  22897595.5234   10171173.13446     91360.56446                  22897605.3954
        19.2504         17.5004
  20653935.2194   -4788485.44448  -3731287.97747                  20653942.3364
        32.5004         32.0004
 00  5 11 19 46 15.0000000  0  6G 5G 6G17G10G24G30
  21504263.2504    6197103.46647   4828902.17147                  21504272.5124
        25.0004         26.0004
  21684073.0704   -9955707.82248  -7691080.77147                  21684080.4454
        28.2504         27.0004
  23000699.7194   -9691929.70146  -7372496.55246                  23000710.6094
        16.7504         18.7504
  21029971.0234   -3746828.68048  -2919602.43047                  21029979.0664
        29.7504         31.2504
  22904570.3444   10207825.45946    119920.78446                  22904580.1454
        19.0004         17.7504
  20654786.5004   -4784012.12948  -3727802.29547                  20654793.5474
        32.2504         31.7504
 00  5 11 19 46 30.0000000  0  6G 5G 6G17G10G24G30
  21511359.0314    6234390.74947   4857957.13347                  21511368.7624
        24.2504         25.7504
  21678170.6804   -9986725.28347  -7715250.21447                  21678177.9384
        27.7504         27.2504
  22993980.5864   -9727239.44346  -7400010.58046                  22993991.6174
        16.7504         18.7504
  21031776.9454   -3737338.95048  -2912207.83647                  21031784.9884
        29.7504         31.0004
  22911545.4454   10244480.30946    148482.96246                  22911555.1994
        19.2504         17.5004
  20655665.2194   -4779394.23648  -3724203.96047                  20655672.2894
        32.2504         32.0004
 00  5 11 19 46 45.0000000  0  6G 5G 6G17G10G24G30
  21518471.9534    6271769.28847   4887083.19947                  21518481.5314
        24.5004         26.0004
  21672273.6254  -10017715.60948  -7739398.50547                  21672280.9304
        28.2504         27.2504
  22987271.2114   -9762496.94646  -7427483.90646                  22987282.4534
        17.0004         18.7504
  21033610.6724   -3727702.84448  -2904699.18947                  21033618.6334
        29.7504         31.0004
  22918521.4144   10281137.55346    177047.01446                  22918530.9804
        19.0004         17.5004
  20656571.4924   -4774631.83248  -3720493.01047                  20656578.5984
        32.2504         32.0004
 00  5 11 19 47  0.0000000  0  6G 5G 6G17G10G24G30
  21525602.5084    6309241.98747   4916282.64747                  21525611.9574
        24.2504         25.7504
  21666381.9924  -10048675.43948  -7763523.03447                  21666389.4144
        28.2504         27.5004
  22980572.4384   -9797698.97246  -7454914.00346                  22980583.4924
        16.7504         18.5004
  21035472.6954   -3717917.26248  -2897074.06547                  21035480.5514
        29.7504         31.0004
  22925498.0474   10317800.09546    205615.19046                  22925507.6254
        19.2504         17.5004
  20657505.8914   -4769721.77348  -3716667.01147                  20657512.9964
        32.5004         32.0004
 00  5 11 19 47 15.0000000  0  6G 5G 6G17G10G24G30
  21532751.7814    6346810.33847   4945556.61847                  21532761.4304
        24.0004         25.7504
  21660496.7424  -10079602.82648  -7787622.28347                  21660504.1994
        28.0004         27.5004
  22973884.2734   -9832843.69546  -7482299.44046                  22973895.2114
        17.7504         18.7504
  21037363.5704   -3707980.41348  -2889331.06947                  21037371.6954
        29.7504         31.2504
  22932475.8524   10354469.60446    234188.79446                  22932485.3594
        18.2504         17.5004
  20658468.6174   -4764662.45148  -3712724.69847                  20658475.6524
        32.0004         31.7504
 00  5 11 19 47 30.0000000  0  6G 5G 6G17G10G24G30
  21539917.9384    6384467.94247   4974900.13847                  21539927.3284
        24.2504         25.7504
  21654616.5394  -10110503.74148  -7811700.90747                  21654623.9964
        28.0004         27.5004
  22967206.8134   -9867937.30446  -7509645.05446                  22967217.8094
        17.7504         18.7504
  21039282.2114   -3697898.80748  -2881475.27947                  21039290.2544
        29.5004         31.0004
  22939454.3054   10391139.91046    262763.01546                  22939463.7664
        19.2504         17.2504
  20659458.6334   -4759459.90348  -3708670.78447                  20659465.7854
        32.2504         31.7504
 00  5 11 19 47 45.0000000  0  6G 5G 6G17G10G24G30
  21547101.9614    6422219.51047   5004316.88047                  21547111.5394
        24.2504         25.7504
  21648742.1954  -10141373.01748  -7835754.87547                  21648749.7114
        28.2504         27.7504
  22960539.0864   -9902974.76346  -7536946.91946                  22960549.8134
        17.7504         19.2504
  21041229.0864   -3687667.58648  -2873502.90547                  21041237.1524
        29.5004         31.0004
  22946433.3284   10427815.75946    291341.55646                  22946442.7894
        18.7504         17.2504
  20660476.8524   -4754109.21748  -3704501.43947                  20660484.0514
        32.2504         31.7504
 00  5 11 19 48  0.0000000  0  6G 5G 6G17G10G24G30
  21554301.4614    6460054.01947   5033798.24947                  21554310.8874
        24.5004         26.0004
  21642872.0554  -10172221.27648  -7859792.46547                  21642879.3484
        28.2504         27.5004
  22953880.4774   -9937966.71846  -7564213.32346                  22953891.6134
        18.0004         19.0004
  21043202.3364   -3677297.44648  -2865422.28047                  21043210.4614
        29.5004         31.0004
  22953411.6414   10464486.34246    319916.00346                  22953420.7624
        19.5004         17.2504
  20661521.3204   -4748621.26248  -3700225.12947                  20661528.4494
        32.0004         32.0004
 00  5 11 19 48 15.0000000  0  6G 5G 6G17G10G24G30
  21561518.5004    6497979.56147   5063350.55547                  21561527.8914
        23.5004         25.7504
  21637007.5164  -10203039.94548  -7883806.99847                  21637014.9844
        28.5004         27.7504
  22947231.7504   -9972904.76746  -7591437.72546                  22947242.2424
        18.0004         19.0004
  21045203.7504   -3666780.14248  -2857226.98447                  21045211.8524
        29.7504         31.0004
  22960390.3674   10501159.92746    348492.78546                  22960399.3594
        19.5004         17.2504
  20662593.2894   -4742987.57448  -3695835.26047                  20662600.4884
        32.0004         31.5004
 00  5 11 19 48 30.0000000  0  6G 5G 6G17G10G24G30
  21568754.2424    6536001.85747   5092978.24846                  21568763.7384
        24.2504         25.5004
  21631149.5864  -10233822.79648  -7907793.62647                  21631157.1254
        28.2504         27.7504
  22940594.6804  -10007782.87846  -7618615.41346                  22940605.4534
        18.2504         19.2504
  21047234.1644   -3656109.95248  -2848912.55647                  21047242.2774
        29.5004         31.0004
  22967370.9224   10537842.26146    377076.39046                  22967380.0904
        19.5004         17.0004
  20663694.2504   -4737202.23148  -3691327.22247                  20663701.3794
        32.0004         31.5004
 00  5 11 19 48 45.0000000  0  6G 5G 6G17G10G24G30
  21576006.0234    6574112.38447   5122674.69747                  21576015.5314
        24.0004         25.7504
  21625297.0234  -10264577.92548  -7931758.65347                  21625304.2934
        28.2504         28.0004
  22933967.4454  -10042609.38046  -7645752.90246                  22933977.8324
        18.0004         19.0004
  21049292.0944   -3645295.22448  -2840485.50047                  21049300.1374
        29.2504         30.7504
  22974351.5164   10574525.01246    405660.30346                  22974360.5784
        19.5004         17.0004
  20664822.5634   -4731273.42248  -3686707.38747                  20664829.7034
        32.0004         31.5004
 00  5 11 19 49  0.0000000  0  6G 5G 6G17G10G24G30
  21583275.2344    6612310.27147   5152439.21747                  21583284.7544
        23.7504         25.7504
  21619449.8834  -10295305.77148  -7955702.41747                  21619457.2704
        28.0004         27.7504
  22927349.9924  -10077384.85046  -7672850.62946                  22927360.3094
        18.0004         19.2504
  21051377.6334   -3634336.61248  -2831946.32647                  21051385.6414
        29.0004         30.7504
  22981332.1334   10611207.53246    434244.04846                  22981341.6294
        19.2504         17.2504
  20665977.6724   -4725202.04048  -3681976.45747                  20665984.7074
        31.7504         31.5004
 00  5 11 19 49 15.0000000  0  6G 5G 6G17G10G24G30
  21590561.1724    6650598.47747   5182274.11647                  21590570.7154
        24.2504         25.7504
  21613608.5234  -10326002.80148  -7979622.16847                  21613616.0634
        28.2504         27.7504
  22920742.2664  -10112105.94246  -7699905.97546                  22920752.7584
        18.0004         19.2504
  21053490.8054   -3623230.85848  -2823292.49747                  21053498.8364
        29.0004         30.5004
  22988313.1024   10647892.93246    462830.03446                  22988322.1414
        19.5004         17.0004
  20667161.0234   -4718984.60348  -3677131.71947                  20667168.1994
        32.0004         31.5004
 00  5 11 19 49 30.0000000  0  6G 5G 6G17G10G24G30
  21597862.8204    6688968.81347   5212173.01546                  21597872.4454
        23.5004         25.5004
  21607771.1804  -10356676.79748  -8003523.97647                  21607778.6134
        28.2504         28.0004
  22914144.3444  -10146780.52346  -7726925.07646                  22914154.9414
        18.0004         19.0004
  21055630.6094   -3611986.17048  -2814530.40847                  21055638.5594
        28.7504         30.5004
  22995292.9844   10684573.10846    491411.95446                  22995302.0944
        18.5004         17.0004
  20668370.3524   -4712629.07748  -3672179.38547                  20668377.4924
        31.7504         31.5004
 00  5 11 19 49 45.0000000  0  6G 5G 6G17G10G24G30
  21605181.7814    6727429.92047   5242142.64246                  21605191.6294
        23.7504         25.5004
  21601940.1804  -10387318.63548  -8027400.72247                  21601947.7194
        28.2504         28.0004
  22907556.1174  -10181399.59546  -7753900.92346                  22907566.9614
        18.0004         19.2504
  21057798.5004   -3600593.69848  -2805653.15847                  21057806.4844
        29.0004         30.5004
  23002273.3284   10721256.78446    519996.60046                  23002282.2854
        18.0004         16.7504
  20669607.8914   -4706126.60948  -3667112.54047                  20669615.0554
        31.7504         31.5004
 00  5 11 19 50  0.0000000  0  6G 5G 6G17G10G24G30
  21612518.2894    6765981.94447   5272183.11747                  21612528.3594
        23.7504         25.7504
  21596115.6484  -10417927.78348  -8051251.99947                  21596123.1524
        28.5004         28.0004
  22900979.0234  -10215962.82946  -7780833.26846                  22900989.9844
        17.5004         19.2504
  21059994.6724   -3589053.20648  -2796660.57647                  21060002.6454
        29.0004         30.7504
  23009255.0394   10757944.25246    548584.19246                  23009264.7114
        18.0004         17.0004
  20670873.0164   -4699476.86248  -3661930.94147                  20670880.1214
        31.7504         31.5004
 00  5 11 19 50 15.0000000  0  6G 5G 6G17G10G24G30
  21619871.0314    6804621.39547   5302291.71247                  21619880.9264
        24.2504         25.7504
  21590296.4924  -10448507.18448  -8075080.09147                  21590304.0084
        28.2504         27.7504
  22894411.7274  -10250473.32846  -7807724.51346                  22894422.5824
        17.5004         19.2504
  21062218.2584   -3577367.98448  -2787555.21247                  21062226.3244
        29.0004         30.5004
  23016236.3834   10794632.21146    577172.17046                  23016246.2664
        18.2504         17.0004
  20672165.9144   -4692683.12248  -3656637.13547                  20672173.0084
        31.5004         31.5004
 00  5 11 19 50 30.0000000  0  6G 5G 6G17G10G24G30
  21627239.6484    6843344.33147   5332465.36047                  21627249.3674
        24.2504         25.7504
  21584482.3834  -10479060.29448  -8098887.70047                  21584490.0164
        28.2504         28.0004
  22887853.9144  -10284934.65046  -7834577.43946                  22887864.7464
        17.2504         19.0004
  21064468.7974   -3565541.85248  -2778340.05047                  21064476.9454
        29.0004         30.5004
  23023217.6094   10831317.16046    605757.80046                  23023227.2234
        18.2504         16.2504
  20673485.6174   -4685748.99948  -3651233.94947                  20673492.8054
        31.7504         31.2504
 00  5 11 19 50 45.0000000  0  6G 5G 6G17G10G24G30
  21634625.6094    6882156.27847   5362708.37647                  21634635.3874
        23.7504         25.7504
  21578674.4924  -10509581.09748  -8122670.13647                  21578682.0784
        28.0004         28.0004
  22881306.7194  -10319341.00446  -7861387.53846                  22881317.5164
        17.5004         19.5004
  21066746.9304   -3553569.10048  -2769010.63747                  21066755.0084
        29.0004         30.7504
  23030199.0704   10868004.57946    634345.37346                  23030208.9414
        18.2504         16.5004
  20674832.8524   -4678668.65748  -3645716.81347                  20674840.1454
        31.5004         31.5004
 00  5 11 19 51  0.0000000  0  6G 5G 6G17G10G24G30
  21642027.5554    6921054.36447   5393018.50446                  21642037.3094
        24.5004         25.5004
  21572872.1644  -10540072.06048  -8146429.31647                  21572879.7034
        28.0004         28.0004
  22874769.2974  -10353694.99746  -7888156.83546                  22874780.1174
        17.5004         19.0004
  21069052.7504   -3541452.46448  -2759569.10847                  21069060.6994
        29.0004         30.5004
  23037179.9064   10904691.71846    662932.70146                  23037189.9414
        18.0004         16.7504
  20676207.4924   -4671444.95448  -3640087.97747                  20676214.8554
        31.7504         31.5004
 00  5 11 19 51 15.0000000  0  6G 5G 6G17G10G24G30
  21649446.1094    6960037.65047   5423395.02447                  21649455.7114
        24.0004         25.7504
  21567075.5554  -10570533.56848  -8170165.54947                  21567083.0944
        28.2504         28.0004
  22868241.8754  -10387997.10046  -7914885.70246                  22868252.5434
        17.5004         19.0004
  21071385.9694   -3529192.69348  -2750016.04847                  21071393.9064
        29.0004         30.5004
  23044161.2814   10941377.94746    691519.32846                  23044170.9304
        17.5004         16.2504
  20677609.4064   -4664078.59748  -3634347.98247                  20677616.6524
        31.5004         31.2504
 00  5 11 19 51 30.0000000  0  6G 5G 6G17G10G24G30
  21656880.1024    6999104.77047   5453836.87146                  21656889.9264
        24.0004         25.5004
  21561284.3914  -10600966.53848  -8193879.53447                  21561292.0354
        28.0004         28.2504
  22861723.8674  -10422248.44946  -7941575.01546                  22861734.1954
        18.2504         19.5004
  21073745.5944   -3516790.99648  -2740352.39447                  21073753.6484
        29.0004         30.5004
  23051141.9844   10978062.00946    720104.28546                  23051152.1604
        17.5004         16.0004
  20679037.9844   -4656570.64948  -3628497.64847                  20679045.2074
        31.5004         31.5004
 00  5 11 19 51 45.0000000  0  6G 5G 6G17G10G24G30
  21664330.0084    7038253.23347   5484342.09147                  21664339.8794
        24.2504         25.7504
  21555498.1804  -10631373.10348  -8217572.95347                  21555505.6844
        28.0004         27.7504
  22855215.4844  -10456451.32446  -7968226.56146                  22855225.7074
        18.0004         19.5004
  21076132.1884   -3504249.91048  -2730580.12647                  21076140.1604
        29.5004         30.5004
  23058121.8204   11014741.30046    748685.49846                  23058131.9734
        16.7504         16.0004
  20680493.2734   -4648923.42748  -3622538.79747                  20680500.5904
        31.5004         31.2504
 00  5 11 19 52  0.0000000  0  6G 5G 6G17G10G24G30
  21671796.2664    7077488.91747   5514915.28847                  21671806.2544
        23.7504         25.7504
  21549718.1724  -10661746.88148  -8241240.81447                  21549725.8984
        28.0004         28.0004
  22848717.3284  -10490599.46646  -7994835.45346                  22848728.1954
        18.0004         19.5004
  21078546.5004   -3491563.40748  -2720694.54247                  21078554.4144
        29.5004         30.5004
  23065102.0164   11051422.10746    777267.90746                  23065112.0744
        16.7504         16.0004
  20681976.2734   -4641130.79848  -3616466.64047                  20681983.5204
        31.5004         31.2504
 00  5 11 19 52 15.0000000  0  6G 5G 6G17G10G24G30
  21679278.2424    7116805.25147   5545551.32046                  21679288.3134
        23.5004         25.5004
  21543943.4454  -10692093.98248  -8264887.89447                  21543950.9494
        28.0004         28.2504
  22842228.2194  -10524699.08646  -8021406.53246                  22842238.8874
        18.2504         19.7504
  21080986.9454   -3478737.78048  -2710700.55347                  21080994.8714
        29.2504         30.5004
  23072081.0554   11088097.96246    805846.44146                  23072090.9614
        17.2504         15.7504
  20683485.4454   -4633199.07648  -3610286.09547                  20683492.6914
        31.5004         31.2504
 00  5 11 19 52 30.0000000  0  6G 5G 6G17G10G24G30
  21686776.0634    7156207.60547   5576254.38146                  21686786.2384
        23.5004         25.0004
  21538174.6644  -10722408.51748  -8288509.59847                  21538182.1914
        28.5004         28.5004
  22835749.3834  -10558744.52246  -8047935.39446                  22835760.0274
        17.7504         19.7504
  21083455.2424   -3465767.64148  -2700593.95447                  21083463.2154
        29.5004         30.5004
  23079060.4844   11124774.38146    834425.43146                  23079069.8754
        17.0004         15.7504
  20685022.4614   -4625122.63948  -3603992.79247                  20685030.0124
        32.0004         31.2504
 00  5 11 19 52 45.0000000  0  6G 5G 6G17G10G24G30
  21694290.2974    7195694.54547   5607023.35946                  21694300.1684
        23.5004         25.2504
  21532411.9844  -10752691.42948  -8312106.66047                  21532419.5594
        28.2504         28.2504
  22829281.2274  -10592736.93746  -8074422.94546                  22829291.7304
        17.7504         19.5004
  21085950.5784   -3452654.24148  -2690375.72947                  21085958.5164
        29.5004         30.5004
  23086039.6884   11161450.09646    863003.87146                  23086049.4064
        17.2504         15.5004
  20686586.7344   -4616902.71748  -3597587.67847                  20686594.0864
        31.5004         31.5004
 00  5 11 19 53  0.0000000  0  6G 5G 6G17G10G24G30
  21701820.0944    7235263.35447   5637856.11646                  21701830.0594
        23.7504         25.2504
  21526654.8984  -10782944.89248  -8335680.77747                  21526662.4494
        28.2504         28.5004
  22822821.7034  -10626678.61246  -8100870.95746                  22822832.2664
        18.0004         19.5004
  21088472.6884   -3439400.10048  -2680047.83047                  21088480.5314
        29.2504         30.5004
  23093018.3524   11198122.68946    891579.87446                  23093027.8244
        17.5004         15.5004
  20688177.8204   -4608541.73448  -3591072.64947                  20688185.1954
        31.7504         31.5004
 00  5 11 19 53 15.0000000  0  6G 5G 6G17G10G24G30
  21709365.0944    7274912.44747   5668751.44546                  21709375.0594
        23.5004         25.2504
  21520903.3364  -10813170.11048  -8359232.88447                  21520910.9104
        28.2504         28.7504
  22816372.2584  -10660570.90746  -8127280.48546                  22816382.5984
        18.2504         19.5004
  21091021.3984   -3426006.52348  -2669611.28247                  21091029.3484
        29.0004         30.2504
  23099996.1884   11234790.65646    920152.27246                  23100005.6374
        17.5004         15.5004
  20689795.2424   -4600041.12848  -3584448.82347                  20689802.5004
        31.7504         31.5004
 00  5 11 19 53 30.0000000  0  6G 5G 6G17G10G24G30
  21716925.6724    7314643.42847   5699710.57446                  21716935.7544
        23.5004         25.0004
  21515157.2194  -10843364.98848  -8382761.34847                  21515164.7114
        28.5004         28.5004
  22809932.8524  -10694411.96346  -8153650.09346                  22809943.3094
        18.2504         19.5004
  21093597.0864   -3412471.93248  -2659064.85447                  21093605.0004
        29.5004         30.2504
  23106973.4454   11271455.76446    948722.45046                  23106983.2464
        17.7504         15.7504
  20691440.0234   -4591398.99648  -3577714.71847                  20691447.3634
        31.7504         31.5004
 00  5 11 19 53 45.0000000  0  6G 5G 6G17G10G24G30
  21724502.6414    7354460.17447   5730736.54146                  21724512.6524
        23.5004         25.0004
  21509418.1804  -10873525.16648  -8406262.77147                  21509425.7074
        28.5004         28.5004
  22803503.1024  -10728197.57046  -8179976.49846                  22803513.7114
        18.2504         19.7504
  21096200.2584   -3398792.34348  -2648405.43347                  21096208.2424
        29.0004         30.2504
  23113950.7424   11308122.06246    977293.55846                  23113960.1214
        17.2504         15.2504
  20693112.2194   -4582611.24448  -3570867.13747                  20693119.5474
        31.7504         31.5004
 00  5 11 19 54  0.0000000  0  6G 5G 6G17G10G24G30
  21732095.0704    7394358.70147   5761826.22946                  21732105.2814
        23.5004         25.2504
  21503684.6024  -10903654.07448  -8429739.83147                  21503692.1294
        28.7504         28.5004
  22797084.0394  -10761931.39946  -8206262.56046                  22797094.5204
        18.2504         19.5004
  21098830.0944   -3384971.61148  -2637636.03947                  21098838.0664
        29.0004         30.2504
  23120927.7504   11344785.75546   1005862.62646                  23120937.1764
        17.7504         15.2504
  20694811.5474   -4573681.63248  -3563909.02447                  20694818.8634
        32.0004         31.7504
 00  5 11 19 54 15.0000000  0  6G 5G 6G17G10G24G30
  21739702.7344    7434336.61047   5792977.76846                  21739712.4534
        23.7504         25.0004
  21497957.0474  -10933753.75248  -8453194.10947                  21497964.6454
        28.5004         28.7504
  22790674.0944  -10795615.60646  -8232509.95646                  22790684.2584
        18.0004         19.5004
  21101486.5474   -3371012.06148  -2626758.47747                  21101494.6484
        29.0004         30.5004
  23127903.6804   11381444.53146   1034427.87246                  23127913.7974
        17.0004         15.0004
  20696537.2194   -4564612.51648  -3556842.20447                  20696544.5474
        32.2504         31.7504
 00  5 11 19 54 30.0000000  0  6G 5G 6G17G10G24G30
  21747326.2034    7474397.53847   5824194.00146                  21747336.3204
        23.7504         25.0004
  21492235.5164  -10963820.13248  -8476622.44847                  21492243.0314
        28.2504         28.5004
  22784274.4454  -10829246.25746  -8258715.61346                  22784284.9384
        18.5004         19.7504
  21104170.2894   -3356909.82848  -2615769.72447                  21104178.3914
        29.5004         30.5004
  23134879.1334   11418102.19846   1062992.24746                  23134889.1214
        17.2504         14.7504
  20698290.4694   -4555400.09048  -3549663.71447                  20698297.8444
        32.0004         31.5004
 00  5 11 19 54 45.0000000  0  6G 5G 6G17G10G24G30
  21754964.7194    7514537.25147   5855471.63046                  21754974.4384
        23.7504         24.5004
  21486519.6564  -10993856.85948  -8500027.67547                  21486527.3714
        28.5004         28.7504
  22777884.2894  -10862827.21646  -8284882.55146                  22777895.0274
        18.7504         20.2504
  21106880.1884   -3342669.08248  -2604673.04847                  21106888.2894
        29.2504         30.5004
  23141854.2194   11454754.83446   1091552.69746                  23141863.7624
        17.5004         15.2504
  20700070.0004   -4546048.33148  -3542376.65247                  20700077.3634
        31.7504         31.2504
 00  5 11 19 55  0.0000000  0  6G 5G 6G17G10G24G30
  21762617.9304    7554755.62547   5886810.54946                  21762628.0234
        23.5004         24.5004
  21480809.7034  -11023863.55848  -8523409.51047                  21480817.4064
        28.2504         28.7504
  22771503.2424  -10896358.27346  -8311010.60846                  22771514.0864
        18.0004         20.0004
  21109616.4844   -3328289.76648  -2593468.39047                  21109624.7034
        29.2504         30.5004
  23148827.7274   11491402.41546   1120109.22546                  23148836.9774
        16.7504         14.7504
  20701876.2424   -4536557.03648  -3534980.86147                  20701883.5474
        31.7504         31.2504
 00  5 11 19 55 15.0000000  0  6G 5G 6G17G10G24G30
  21770286.2344    7595053.08747   5918211.09246                  21770296.2464
        23.7504         24.7504
  21475105.4924  -11053839.33848  -8546767.24647                  21475113.2194
        28.2504         28.7504
  22765132.1024  -10929838.79246  -8337099.27546                  22765142.6174
        18.7504         20.2504
  21112379.2584   -3313771.26848  -2582155.28447                  21112387.3364
        29.7504         30.5004
  23155801.1644   11528045.48546   1148662.21846                  23155810.4614
        15.7504         14.2504
  20703709.0234   -4526925.60048  -3527475.86947                  20703716.2934
        31.7504         31.2504
 00  5 11 19 55 30.0000000  0  6G 5G 6G17G10G24G30
  21777970.0004    7635430.59647   5949674.00846                  21777979.9884
        23.7504         24.5004
  21469407.3594  -11083782.81948  -8570099.81547                  21469415.0744
        28.0004         28.5004
  22758770.9224  -10963267.45246  -8363147.54746                  22758781.0394
        18.7504         20.2504
  21115168.7664   -3299112.54848  -2570732.90947                  21115176.9494
        29.5004         30.7504
  23162773.2194   11564685.19146   1177212.59546                  23162782.5864
        15.7504         14.5004
  20705568.6564   -4517152.73348  -3519860.67347                  20705575.9494
        31.5004         31.2504
 00  5 11 19 55 45.0000000  0  6G 5G 6G17G10G24G30
  21785668.0394    7675883.41847   5981195.61246                  21785677.9574
        23.5004         24.5004
  21463714.5944  -11113698.13248  -8593410.43747                  21463722.2384
        28.0004         28.5004
  22752418.5084  -10996648.55446  -8389158.74546                  22752428.9414
        18.5004         20.2504
  21117983.8834   -3284318.25148  -2559204.89347                  21117991.9734
        29.0004         30.5004
  23169744.0394   11601317.19646   1205756.98946                  23169753.8634
        15.5004         14.2504
  20707454.4384   -4507242.90748  -3512138.75647                  20707461.6024
        32.2504         31.5004
 00  5 11 19 56  0.0000000  0  6G 5G 6G17G10G24G30
  21793380.9224    7716415.14647   6012778.69646                  21793390.6764
        23.2504         24.2504
  21458027.7894  -11143581.23148  -8616695.96047                  21458035.3634
        28.2504         28.5004
  22746076.0784  -11029978.21846  -8415129.88046                  22746086.3244
        19.0004         20.2504
  21120825.6644   -3269384.60348  -2547568.29147                  21120833.7194
        29.0004         30.2504
  23176713.7034   11637945.06646   1234298.13546                  23176723.2114
        14.7504         14.7504
  20709367.0944   -4497192.42548  -3504307.23247                  20709374.2114
        32.0004         31.5004
 00  5 11 19 56 15.0000000  0  6G 5G 6G17G10G24G30
  21801108.9304    7757025.89447   6044423.36246                  21801118.8244
        23.2504         24.0004
  21452347.5554  -11173431.50248  -8639955.89447                  21452355.1414
        28.0004         28.5004
  22739743.6954  -11063256.04746  -8441060.61146                  22739754.1524
        18.7504         20.5004
  21123694.2584   -3254311.37848  -2535822.92747                  21123702.4304
        29.5004         30.2504
  23183683.3444   11674569.15946   1262836.34346                  23183693.1214
        15.0004         14.2504
  20711306.4774   -4487000.96948  -3496365.86147                  20711313.6054
        31.7504         31.5004
 00  5 11 19 56 30.0000000  0  6G 5G 6G17G10G24G30
  21808851.6724    7797715.06147   6076129.12746                  21808861.6134
        23.0004         24.0004
  21446673.6484  -11203249.09548  -8663190.37447                  21446681.1644
        28.2504         28.5004
  22733420.7664  -11096482.35046  -8466951.19646                  22733431.0944
        18.5004         20.5004
  21126588.8444   -3239099.10148  -2523969.21647                  21126597.0984
        29.0004         30.2504
  23190651.8594   11711189.11746   1291371.33446                  23190662.3754
        14.7504         14.2504
  20713272.8524   -4476669.00848  -3488315.00847                  20713280.0394
        32.2504         31.2504
 00  5 11 19 56 45.0000000  0  6G 5G 6G17G10G24G30
  21816609.7114    7838482.53147   6107895.90646                  21816619.8284
        22.7504         24.0004
  21441005.6414  -11233033.56148  -8686399.03447                  21441013.2034
        28.2504         28.5004
  22727107.7974  -11129656.85746  -8492801.41346                  22727117.9734
        18.5004         20.5004
  21129510.0004   -3223747.71848  -2512007.10347                  21129518.1374
        29.0004         30.2504
  23197619.7034   11747804.96646   1319903.11846                  23197629.7624
        14.5004         14.2504
  20715265.5234   -4466196.46548  -3480154.60647                  20715272.6414
        32.2504         31.2504
 00  5 11 19 57  0.0000000  0  6G 5G 6G17G10G24G30
  21824381.8914    7879325.13547   6139721.22646                  21824392.0204
        22.7504         24.0004
  21435343.7584  -11262787.60048  -8709583.99147                  21435351.2734
        28.5004         28.7504
  22720804.1484  -11162782.47446  -8518613.54646                  22720814.8874
        19.0004         20.2504
  21132457.4224   -3208260.30648  -2499939.00347                  21132465.5004
        29.0004         30.0004
  23204586.4064   11784413.73046   1348429.37946                  23204596.3364
        14.7504         14.5004
  20717284.5784   -4455586.30048  -3471886.96947                  20717291.6604
        32.2504         31.2504
 00  5 11 19 57 15.0000000  0  6G 5G 6G17G10G24G30
  21832169.1334    7920247.26347   6171608.52146                  21832179.2154
        22.5004         23.7504
  21429688.5704  -11292506.35848  -8732741.45247                  21429696.2384
        29.0004         28.7504
  22714510.8134  -11195854.55246  -8544383.96046                  22714520.9534
        19.0004         20.2504
  21135431.2894   -3192632.33548  -2487761.37147                  21135439.4384
        28.7504         30.2504
  23211552.2034   11821019.94046   1376953.64746                  23211562.1214
        15.2504         14.7504
  20719330.8914   -4444833.70548  -3463508.35047                  20719337.9964
        32.0004         31.0004
 00  5 11 19 57 30.0000000  0  6G 5G 6G17G10G24G30
  21839970.3984    7961242.58247   6203552.84046                  21839980.6564
        22.2504         23.7504
  21424038.8834  -11322195.53448  -8755875.86647                  21424046.5394
        29.0004         28.7504
  22708226.4454  -11228879.00946  -8570117.26246                  22708236.7384
        18.7504         20.2504
  21138430.7584   -3176869.77448  -2475478.86447                  21138438.9414
        28.7504         30.0004
  23218516.4774   11857617.49546   1405471.17846                  23218526.3594
        15.2504         15.0004
  20721402.8204   -4433944.91448  -3455023.60147                  20721409.8094
        31.7504         31.2504
 00  5 11 19 57 45.0000000  0  6G 5G 6G17G10G24G30
  21847786.3524    8002316.53147   6235558.43346                  21847796.6804
        22.2504         23.7504
  21418395.8984  -11351849.28748  -8778982.67447                  21418403.3674
        29.2504         29.0004
  22701952.5004  -11261850.09146  -8595808.97046                  22701962.6054
        19.2504         20.2504
  21141456.7344   -3160967.38248  -2463087.39547                  21141464.8954
        29.0004         30.2504
  23225480.0474   11894212.11946   1433986.43146                  23225490.2234
        15.0004         15.0004
  20723502.0864   -4422914.29048  -3446428.33047                  20723508.9454
        32.0004         31.2504
 00  5 11 19 58  0.0000000  0  6G 5G 6G17G10G24G30
  21855617.7974    8043469.52547   6267625.62046                  21855628.1954
        21.7504         23.2504
  21412760.0634  -11381466.77648  -8802061.22647                  21412767.6604
        29.0004         29.2504
  22695688.3364  -11294767.08046  -8621458.52846                  22695698.5944
        19.2504         20.7504
  21144509.7734   -3144924.60848  -2450586.54347                  21144517.9804
        28.7504         30.0004
  23232443.5704   11930804.32346   1462499.78846                  23232453.8164
        15.0004         15.0004
  20725628.2034   -4411741.21648  -3437722.06847                  20725635.2274
        32.2504         31.2504
 00  5 11 19 58 15.0000000  0  6G 5G 6G17G10G24G30
  21863462.6644    8084694.89447   6299749.20246                  21863473.0984
        21.7504         23.5004
  21407129.6174  -11411054.15248  -8825116.31547                  21407137.2034
        29.2504         29.2504
  22689433.4304  -11327636.32546  -8647070.89146                  22689443.8054
        19.2504         20.5004
  21147588.0164   -3128747.93848  -2437981.35347                  21147596.2114
        28.7504         30.0004
  23239405.4144   11967387.56046   1491006.16746                  23239415.2504
        15.7504         15.2504
  20727780.2194   -4400432.08548  -3428909.78047                  20727787.1374
        32.2504         31.0004
 00  5 11 19 58 30.0000000  0  6G 5G 6G17G10G24G30
  21871321.9224    8125995.48147   6331931.39346                  21871332.6604
        21.7504         23.5004
  21401505.6724  -11440608.03548  -8848145.30347                  21401513.1994
        29.0004         29.0004
  22683188.2114  -11360454.69546  -8672643.60846                  22683198.6684
        19.0004         20.5004
  21150692.3754   -3112434.30348  -2425269.44247                  21150700.5124
        28.7504         30.0004
  23246365.6024   12003964.86946   1519507.92446                  23246375.4384
        15.0004         15.2504
  20729958.6804   -4388983.97448  -3419989.20347                  20729965.6684
        32.2504         31.2504
 00  5 11 19 58 45.0000000  0  6G 5G 6G17G10G24G30
  21879194.2584    8167365.41347   6364167.61546                  21879204.5274
        21.7504         23.5004
  21395886.8754  -11470133.77348  -8871152.36047                  21395894.4144
        28.7504         29.2504
  22676951.7344  -11393227.77046  -8698181.02746                  22676961.9804
        19.5004         20.7504
  21153821.7424   -3095989.61348  -2412455.40447                  21153830.0314
        28.5004         30.0004
  23253324.1484   12040530.74646   1548000.75746                  23253334.1024
        16.2504         15.0004
  20732162.5864   -4377402.56948  -3410964.75247                  20732169.5634
        32.2504         31.0004
 00  5 11 19 59  0.0000000  0  6G 5G 6G17G10G24G30
  21887080.6954    8208806.90347   6396459.60846                  21887090.8244
        22.0004         23.5004
  21390274.3444  -11499628.65148  -8894135.37147                  21390282.0004
        29.0004         29.2504
  22670724.3444  -11425952.95446  -8723681.12646                  22670734.5664
        19.5004         20.7504
  21156976.2894   -3079411.49648  -2399537.40347                  21156984.6484
        28.7504         30.2504
  23260280.8984   12077087.38446   1576486.40346                  23260290.8634
        16.2504         15.2504
  20734392.3914   -4365685.33448  -3401834.46947                  20734399.5554
        32.2504         31.2504
 00  5 11 19 59 15.0000000  0  6G 5G 6G17G10G24G30
  21894981.3054    8250324.49347   6428810.88946                  21894991.8674
        21.5004         23.0004
  21384668.3834  -11529087.62748  -8917090.40947                  21384675.9224
        29.0004         29.2504
  22664506.9304  -11458625.40146  -8749140.14346                  22664517.3164
        18.7504         20.7504
  21160157.4924   -3062695.31748  -2386511.82047                  21160165.9104
        28.0004         29.7504
  23267236.4304   12113639.68546   1604968.67446                  23267246.5124
        16.0004         15.5004
  20736648.7734   -4353827.55748  -3392594.67347                  20736655.9024
        32.0004         31.2504
 00  5 11 19 59 30.0000000  0  6G 5G 6G17G10G24G30
  21902894.6094    8291910.21647   6461215.26246                  21902904.9024
        21.5004         23.2504
  21379067.9614  -11558518.11348  -8940023.24547                  21379075.5594
        29.0004         29.2504
  22658298.0554  -11491252.72446  -8774563.98346                  22658308.5004
        19.5004         20.7504
  21163362.9924   -3045848.88748  -2373384.74347                  21163371.2704
        28.0004         29.7504
  23274189.9224   12150179.85846   1633441.48146                  23274199.7814
        16.5004         15.0004
  20738930.5634   -4341836.97848  -3383251.38847                  20738937.6094
        31.5004         31.0004
 00  5 11 19 59 45.0000000  0  6G 5G 6G17G10G24G30
  21910822.8984    8333572.89947   6493679.60446                  21910833.3914
        21.5004         23.0004
  21373474.8134  -11587910.81048  -8962926.63347                  21373482.3874
        29.0004         29.2504
  22652099.6724  -11523825.77446  -8799945.54446                  22652110.0594
        19.2504         20.7504
  21166595.3834   -3028863.19648  -2360149.14947                  21166603.8134
        28.2504         30.0004
  23281142.7194   12186716.85046   1661911.82646                  23281152.3204
        16.2504         15.0004
  20741239.2814   -4329704.60048  -3373797.61447                  20741246.3524
        31.7504         31.0004
 00  5 11 20  0  0.0000000  0  6G 5G 6G17G10G24G30
  21918763.8594    8375302.69547   6526196.23746                  21918774.3524
        21.7504         23.0004
  21367886.9064  -11617275.14648  -8985807.92547                  21367894.5984
        28.7504         29.0004
  22645909.4844  -11556354.18646  -8825292.32546                  22645919.4144
        19.2504         20.5004
  21169852.2344   -3011747.92748  -2346812.59147                  21169860.6994
        28.2504         29.7504
  23288093.0864   12223241.11046   1690372.24146                  23288103.0164
        16.7504         15.2504
  20743573.1174   -4317440.01148  -3364240.81947                  20743580.1994
        32.0004         30.7504
 00  5 11 20  0 15.0000000  0  6G 5G 6G17G10G24G30
  21926717.7114    8417100.70347   6558766.02546                  21926728.0394
        21.2504         23.0004
  21362304.8444  -11646609.39948  -9008665.77447                  21362312.3834
        28.5004         29.2504
  22639728.4384  -11588836.46146  -8850603.15346                  22639738.7894
        19.5004         20.5004
  21173134.0784   -2994501.96548  -2333374.18847                  21173142.5554
        28.2504         30.0004
  23295041.3444   12259753.93646   1718823.74646                  23295050.9804
        17.0004         15.7504
  20745932.3754   -4305042.10148  -3354580.13747                  20745939.5394
        31.7504         30.7504
 00  5 11 20  0 30.0000000  0  6G 5G 6G17G10G24G30
  21934685.7114    8458972.57947   6591393.37246                  21934696.1804
        21.7504         23.0004
  21356729.5394  -11675907.38248  -9031495.36347                  21356737.0314
        29.0004         29.5004
  22633557.3674  -11621266.66946  -8875873.40046                  22633567.7424
        19.0004         20.7504
  21176441.8834   -2977119.59348  -2319829.50047                  21176450.3014
        28.5004         29.7504
  23301988.2194   12296261.17546   1747270.91246                  23301998.1954
        16.2504         15.5004
  20748318.0784   -4292504.91948  -3344810.93247                  20748325.2664
        31.7504         30.7504
 00  5 11 20  0 45.0000000  0  6G 5G 6G17G10G24G30
  21942667.9924    8500918.35347   6624078.30246                  21942678.6134
        21.2504         22.7504
  21351161.5164  -11705168.67648  -9054296.35647                  21351169.1374
        29.0004         29.5004
  22627395.7194  -11653644.52246  -8901102.87246                  22627405.5904
        19.0004         20.5004
  21179775.8284   -2959600.66748  -2306178.39647                  21179784.0124
        28.7504         29.7504
  23308934.1414   12332763.00546   1775713.84446                  23308944.0234
        16.2504         15.0004
  20750730.4694   -4279828.35148  -3334933.11247                  20750737.4804
        31.7504         31.0004
 00  5 11 20  1  0.0000000  0  6G 5G 6G17G10G24G30
  21950663.5314    8542934.07747   6656817.73446                  21950674.0704
        22.0004         22.7504
  21345599.3054  -11734396.80648  -9077071.51547                  21345606.8914
        29.0004         29.7504
  22621243.8834  -11685973.72046  -8926294.41846                  22621253.9064
        19.2504         21.0004
  21183134.6724   -2941949.03048  -2292423.88647                  21183142.8794
        28.5004         29.7504
  23315878.8754   12369255.65046   1804149.62546                  23315889.1334
        15.7504         15.0004
  20753168.4534   -4267016.16748  -3324949.62047                  20753175.4534
        31.7504         30.7504
 00  5 11 20  1 15.0000000  0  6G 5G 6G17G10G24G30
  21958671.7584    8585018.57347   6689610.76446                  21958682.3554
        21.2504         23.0004
  21340043.6644  -11763592.42048  -9099821.34047                  21340051.2504
        29.0004         29.7504
  22615100.9064  -11718255.01847  -8951448.64746                  22615111.0234
        20.0004         21.2504
  21186518.8054   -2924165.78948  -2278566.82847                  21186526.9774
        29.2504         30.0004
  23322821.2664   12405738.12346   1832577.49846                  23322831.5944
        16.0004         14.7504
  20755632.2114   -4254069.28148  -3314861.16647                  20755639.4344
        31.5004         30.7504
 00  5 11 20  1 30.0000000  0  6G 5G 6G17G10G24G30
  21966693.4774    8627171.12447   6722456.80846                  21966704.1214
        21.2504         22.7504
  21334494.1484  -11792755.55948  -9122545.85247                  21334501.8284
        29.7504         29.7504
  22608966.9064  -11750488.71146  -8976565.77446                  22608977.1994
        19.5004         21.0004
  21189927.9064   -2906251.43048  -2264607.59647                  21189936.0554
        29.0004         29.7504
  23329761.5394   12442210.06346   1860997.13946                  23329772.5124
        15.7504         15.0004
  20758121.5234   -4240988.12148  -3304668.08347                  20758128.5474
        31.7504         30.7504
 00  5 11 20  1 45.0000000  0  6G 5G 6G17G10G24G30
  21974727.6334    8669391.76847   6755355.92546                  21974738.3714
        21.2504         22.5004
  21328950.9144  -11821885.68948  -9145244.64547                  21328958.7114
        29.5004         29.7504
  22602842.1884  -11782674.53546  -9001645.60646                  22602852.4574
        19.5004         21.0004
  21193361.8054   -2888205.89148  -2250546.14947                  21193370.0004
        29.0004         29.7504
  23336700.2734   12478671.64546   1889408.71146                  23336711.1994
        15.5004         15.0004
  20760636.4454   -4227772.57148  -3294370.28547                  20760643.5864
        32.0004         31.0004
 00  5 11 20  2  0.0000000  0  6G 5G 6G17G10G24G30
  21982774.7344    8711679.09347   6788306.99246                  21982785.4964
        21.2504         22.5004
  21323413.6804  -11850983.81148  -9167918.49647                  21323421.4414
        29.5004         29.7504
  22596726.2974  -11814813.67247  -9026689.05046                  22596736.4734
        20.0004         21.0004
  21196820.5634   -2870030.50348  -2236383.52147                  21196828.8404
        29.0004         30.0004
  23343636.0784   12515121.57446   1917811.21146                  23343646.9694
        15.0004         14.7504
  20763176.6484   -4214423.74848  -3283968.63247                  20763183.8014
        31.5004         31.0004
 00  5 11 20  2 15.0000000  0  6G 5G 6G17G10G24G30
  21990834.1484    8754030.48847   6821307.98346                  21990844.8524
        21.2504         22.7504
  21317882.0784  -11880052.02248  -9190569.04047                  21317889.8524
        29.7504         30.2504
  22590618.6254  -11846908.34246  -9051697.84646                  22590628.5314
        19.5004         21.2504
  21200303.4614   -2851727.81948  -2222121.70047                  21200311.6094
        29.0004         29.7504
  23350569.8524   12551557.43446   1946202.73946                  23350580.8954
        15.0004         14.7504
  20765741.7974   -4200944.19648  -3273465.11447                  20765749.1484
        32.0004         31.2504
 00  5 11 20  2 30.0000000  0  6G 5G 6G17G10G24G30
  21998905.4844    8796445.38947   6854358.45546                  21998915.9304
        21.5004         22.5004
  21312356.3674  -11909090.24448  -9213196.22047                  21312364.0704
        29.7504         30.0004
  22584519.8284  -11878958.68546  -9076672.11146                  22584529.4884
        19.7504         21.2504
  21203810.4144   -2833298.09948  -2207760.88847                  21203818.6804
        29.0004         29.7504
  23357500.4144   12587979.03746   1974583.16246                  23357511.1644
        14.7504         14.7504
  20768331.9064   -4187334.14248  -3262859.91347                  20768339.1764
        32.0004         31.2504
 00  5 11 20  2 45.0000000  0  6G 5G 6G17G10G24G30
  22006989.7974    8838929.11447   6887462.56546                  22007000.2894
        21.2504         22.0004
  21306837.1644  -11938092.71248  -9235795.53047                  21306844.8324
        29.7504         30.0004
  22578430.1564  -11910959.18746  -9101607.52146                  22578440.1334
        19.7504         21.2504
  21207342.6954   -2814736.06748  -2193296.98047                  21207350.9384
        28.5004         29.7504
  23364429.7424   12624391.84746   2002956.73546                  23364440.9024
        14.7504         14.5004
  20770947.3444   -4173588.21448  -3252148.82347                  20770954.7194
        32.0004         31.2504
 00  5 11 20  3  0.0000000  0  6G 5G 6G17G10G24G30
  22015088.4454    8881487.13947   6920624.56546                  22015099.3954
        21.0004         22.2504
  21301326.3284  -11967053.48948  -9258362.36047                  21301334.0084
        29.5004         30.0004
  22572351.5864  -11942904.10747  -9126499.63046                  22572361.7274
        20.0004         21.2504
  21210901.0314   -2796036.11448  -2178725.59747                  21210909.4734
        29.0004         30.0004
  23371358.1954   12660801.57546   2031327.90746                  23371369.5904
        15.0004         14.2504
  20773590.2974   -4159700.70148  -3241327.41847                  20773597.6954
        32.2504         31.5004
 00  5 11 20  3 15.0000000  0  6G 5G 6G17G10G24G30
  22023199.9774    8924113.97547   6953840.18846                  22023210.9614
        21.2504         22.0004
  21295822.1724  -11995977.49848  -9280900.54247                  21295829.6524
        29.5004         30.0004
  22566282.0084  -11974798.54646  -9151352.40046                  22566291.7974
        19.5004         21.2504
  21214484.7974   -2777203.57548  -2164050.90347                  21214493.0864
        28.7504         29.7504
  23378285.1804   12697202.88446   2059692.52146                  23378295.7544
        14.2504         14.5004
  20776258.7664   -4145676.90948  -3230399.81947                  20776266.2584
        32.0004         31.5004
 00  5 11 20  3 30.0000000  0  6G 5G 6G17G10G24G30
  22031324.7034    8966808.80447   6987108.78546                  22031335.3594
        21.2504         22.2504
  21290325.1564  -12024864.98348  -9303410.25847                  21290332.7304
        29.7504         30.0004
  22560222.2424  -12006642.94346  -9176166.17846                  22560232.3134
        19.5004         21.2504
  21218093.7114   -2758239.17848  -2149273.46247                  21218102.0474
        28.7504         29.7504
  23385210.3754   12733595.27846   2088050.16946                  23385220.8674
        14.5004         14.2504
  20778953.1024   -4131517.58548  -3219366.61047                  20778960.6174
        32.2504         31.5004
 00  5 11 20  3 45.0000000  0  6G 5G 6G17G10G24G30
  22039461.5084    9009566.98147   7020426.74746                  22039472.1524
        21.0004         22.0004
  21284834.2344  -12053720.11148  -9325894.76447                  21284841.8554
        29.7504         30.0004
  22554170.8984  -12038441.66646  -9200944.36446                  22554180.8054
        19.5004         21.0004
  21221726.7734   -2739147.45448  -2134396.80647                  21221735.1214
        28.7504         29.7504
  23392132.9454   12769974.29046   2116397.41546                  23392143.5554
        14.2504         14.2504
  20781672.7894   -4117227.07748  -3208231.18047                  20781680.1994
        32.2504         31.5004
 00  5 11 20  4  0.0000000  0  6G 5G 6G17G10G24G30
  22047610.0084    9052388.04347   7053793.71646                  22047620.9804
        20.7504         22.0004
  21279349.3134  -12082542.83048  -9348354.01547                  21279356.9924
        29.5004         30.0004
  22548128.3754  -12070194.93146  -9225687.13146                  22548138.6334
        19.5004         21.0004
  21225384.0864   -2719928.72248  -2119421.18647                  21225392.4574
        29.0004         29.7504
  23399053.0704   12806339.55746   2144733.94046                  23399063.7034
        14.5004         14.2504
  20784417.0234   -4102805.71948  -3196993.78747                  20784424.4224
        32.2504         31.5004
 00  5 11 20  4 15.0000000  0  6G 5G 6G17G10G24G30
  22055770.9064    9095272.87347   7087210.36046                  22055782.0204
        21.0004         22.2504
  21273870.9144  -12111331.73248  -9370786.91947                  21273878.4654
        29.7504         30.0004
  22542094.7584  -12101901.60146  -9250393.58246                  22542104.9924
        19.5004         21.2504
  21229065.5394   -2700582.15648  -2104345.94947                  21229073.8874
        29.5004         30.0004
  23405971.1174   12842692.23746   2173060.66246                  23405981.7034
        15.0004         13.7504
  20787186.5164   -4088252.46348  -3185653.62147                  20787193.8794
        32.2504         31.5004
 00  5 11 20  4 30.0000000  0  6G 5G 6G17G10G24G30
  22063944.6024    9138225.22747   7120679.62046                  22063955.4694
        21.0004         22.0004
  21268399.8984  -12140082.57948  -9393190.16547                  21268407.5904
        29.7504         30.0004
  22536070.9774  -12133557.48046  -9275060.46346                  22536081.4104
        19.7504         21.2504
  21232772.0394   -2681103.88448  -2089168.08847                  21232780.1524
        29.5004         30.0004
  23412887.2664   12879036.35846   2201380.70546                  23412898.0984
        14.0004         13.7504
  20789981.8754   -4073563.29948  -3174207.54947                  20789989.1214
        32.2504         31.5004
 00  5 11 20  4 45.0000000  0  6G 5G 6G17G10G24G30
  22072130.9924    9181244.55547   7154201.07746                  22072141.6844
        21.2504         22.0004
  21262935.9064  -12168795.43148  -9415563.80447                  21262943.3754
        29.7504         30.0004
  22530056.3284  -12165162.85646  -9299687.99046                  22530066.5274
        19.5004         21.2504
  21236503.6094   -2661494.37748  -2073887.96547                  21236511.8284
        29.5004         30.0004
  23419801.3984   12915371.55846   2229693.81846                  23419812.3484
        14.0004         13.2504
  20792802.8674   -4058738.71948  -3162655.96147                  20792810.1134
        32.2504         31.5004
 00  5 11 20  5  0.0000000  0  6G 5G 6G17G10G24G30
  22080329.9534    9224330.41747   7187774.37946                  22080340.7384
        20.5004         22.2504
  21257479.3594  -12197470.23048  -9437907.79447                  21257486.8634
        30.0004         30.2504
  22524051.6804  -12196717.84146  -9324276.25146                  22524061.6684
        19.5004         21.0004
  21240260.1564   -2641753.94548  -2058505.82447                  21240268.4224
        29.5004         30.0004
  23426714.0314   12951697.49346   2257999.67446                  23426725.0634
        13.5004         13.2504
  20795649.6094   -4043779.02548  -3150999.09147                  20795656.9024
        32.2504         31.2504
 00  5 11 20  5 15.0000000  0  6G 5G 6G17G10G24G30
  22088542.3204    9267485.04747   7221401.26046                  22088553.3874
        21.0004         22.2504
  21252030.6334  -12226104.19248  -9460219.96247                  21252038.1134
        30.2504         30.2504
  22518057.0084  -12228219.86246  -9348823.23346                  22518066.9024
        19.2504         21.5004
  21244042.0554   -2621880.27148  -2043019.85147                  21244050.4844
        29.7504         30.0004
  23433625.6644   12988016.72146   2286300.34046                  23433636.1684
        13.7504         13.0004
  20798522.4844   -4028681.77248  -3139235.03047                  20798529.6724
        32.0004         31.2504
 00  5 11 20  5 30.0000000  0  6G 5G 6G17G10G24G30
  22096766.8524    9310705.38847   7255079.34246                  22096777.6604
        21.5004         22.0004
  21246589.0004  -12254699.76648  -9482502.22047                  21246596.5514
        30.0004         30.2504
  22512072.1884  -12259671.59346  -9373331.04246                  22512082.3524
        19.7504         21.5004
  21247848.7114   -2601876.18648  -2027432.26847                  21247857.0354
        29.7504         30.0004
  23440535.0634   13024326.47846   2314593.60046                  23440545.5554
        13.7504         13.0004
  20801421.0394   -4013449.79848  -3127365.99647                  20801428.4384
        32.0004         31.2504
 00  5 11 20  5 45.0000000  0  6G 5G 6G17G10G24G30
  22105003.4774    9353988.36047   7288806.23846                  22105014.3914
        21.5004         22.0004
  21241154.0634  -12283259.63348  -9504756.65547                  21241161.4024
        29.7504         30.2504
  22506096.0784  -12291075.89947  -9397801.89146                  22506106.0084
        20.0004         21.7504
  21251679.5394   -2581744.74548  -2011745.43847                  21251687.8634
        29.7504         30.0004
  23447442.0004   13060623.84646   2342877.22546                  23447451.6954
        13.7504         13.2504
  20804344.6414   -3998085.98048  -3115394.22347                  20804351.8404
        31.7504         31.0004
 00  5 11 20  6  0.0000000  0  6G 5G 6G17G10G24G30
  22113252.0634    9397333.97447   7322581.93346                  22113262.8714
        21.5004         22.2504
  21235726.2894  -12311783.11048  -9526982.73147                  21235733.6174
        29.7504         30.0004
  22500129.2344  -12322432.42547  -9422235.50846                  22500138.8954
        20.5004         21.7504
  21255534.6414   -2561485.89748  -1995959.33647                  21255542.9064
        29.7504         30.0004
  23454347.2584   13096909.05546   2371151.37246                  23454357.6914
        13.7504         12.7504
  20807293.5704   -3982590.14448  -3103319.57547                  20807300.8984
        31.7504         31.2504
 00  5 11 20  6 15.0000000  0  6G 5G 6G17G10G24G30
  22121513.3674    9440747.66347   7356410.67446                  22121523.9654
        21.2504         22.0004
  21230306.6484  -12340264.34248  -9549175.89247                  21230314.2344
        29.7504         30.2504
  22494172.2344  -12353735.46447  -9446627.44746                  22494182.3634
        20.0004         21.7504
  21259415.2734   -2541094.16548  -1980069.68947                  21259423.4574
        29.7504         30.0004
  23461250.6024   13133187.69246   2399420.38946                  23461261.4104
        13.7504         12.2504
  20810268.6414   -3966956.75648  -3091137.75047                  20810275.9924
        31.7504         31.2504
 00  5 11 20  6 30.0000000  0  6G 5G 6G17G10G24G30
  22129787.4384    9484229.03647   7390292.16246                  22129798.1174
        20.7504         21.7504
  21224894.7814  -12368703.17748  -9571336.01447                  21224902.3794
        29.7504         30.2504
  22488225.6804  -12384985.01047  -9470977.70446                  22488235.6214
        20.2504         21.5004
  21263320.8284   -2520569.69748  -1964076.60847                  21263329.0354
        29.2504         29.7504
  23468153.0784   13169459.71046   2427684.26346                  23468163.7234
        12.7504         12.2504
  20813269.7344   -3951185.95248  -3078848.84847                  20813277.0634
        32.2504         31.7504
 00  5 11 20  6 45.0000000  0  6G 5G 6G17G10G24G30
  22138075.1334    9527778.09847   7424226.39046                  22138085.9774
        21.2504         21.5004
  21219491.1564  -12397099.18848  -9593462.76847                  21219498.6724
        29.7504         30.2504
  22482289.2664  -12416180.84847  -9495286.11046                  22482298.8444
        20.2504         21.5004
  21267251.9064   -2499912.60348  -1947980.18647                  21267260.0314
        29.7504         29.7504
  23475054.2734   13205725.22746   2455943.04046                  23475064.7544
        13.5004         12.5004
  20816296.8054   -3935277.68948  -3066452.82947                  20816304.0634
        32.2504         31.5004
 00  5 11 20  7  0.0000000  0  6G 5G 6G17G10G24G30
  22146373.7584    9571389.85947   7458209.48146                  22146384.4734
        20.7504         21.7504
  21214094.9774  -12425456.69848  -9615559.51847                  21214102.5864
        30.0004         30.2504
  22476362.2734  -12447327.57047  -9519556.24946                  22476371.9224
        20.2504         21.5004
  21271207.1884   -2479127.62048  -1931784.10447                  21271215.2544
        29.5004         29.5004
  23481953.1484   13241979.63546   2484193.19646                  23481963.7584
        13.2504         12.2504
  20819349.4614   -3919236.73748  -3053953.42147                  20819356.7544
        31.2504         31.7504
 00  5 11 20  7 15.0000000  0  6G 5G 6G17G10G24G30
  22154684.7974    9615063.27147   7492240.60646                  22154695.6414
        20.5004         21.2504
  21208705.8674  -12453776.23248  -9637626.68347                  21208713.3244
        30.0004         30.2504
  22470444.4844  -12478425.89847  -9543788.66946                  22470454.3914
        20.2504         21.7504
  21275186.3204   -2458215.73948  -1915489.14447                  21275194.2814
        29.7504         29.7504
  23488850.4144   13278221.86246   2512433.84346                  23488859.8054
        13.5004         12.2504
  20822427.0784   -3903063.89748  -3041351.24147                  20822434.6294
        30.7504         32.0004
 00  5 11 20  7 30.0000000  0  6G 5G 6G17G10G24G30
  22163007.3674    9658799.54947   7526320.71546                  22163018.0594
        20.0004         21.0004
  21203324.4064  -12482056.07748  -9659662.91347                  21203331.9104
        29.7504         30.2504
  22464536.1094  -12509474.35447  -9567982.23846                  22464546.0864
        20.2504         21.7504
  21279190.2734   -2437175.66048  -1899094.29247                  21279198.2704
        29.5004         29.2504
  23495744.8754   13314453.61946   2540666.34846                  23495754.9344
        13.5004         12.2504
  20825530.0474   -3886757.80248  -3028645.22647                  20825537.3284
        31.5004         31.7504
 00  5 11 20  7 45.0000000  0  6G 5G 6G17G10G24G30
  22171342.5314    9702599.82947   7560450.69746                  22171353.2464
        20.5004         21.0004
  21197950.7274  -12510294.56448  -9681666.92047                  21197958.2074
        30.0004         30.2504
  22458637.4694  -12540471.44946  -9592135.78246                  22458647.5044
        19.7504         21.5004
  21283218.7114   -2416006.20548  -1882598.61947                  21283226.9304
        29.7504         29.7504
  23502638.0234   13350676.14946   2568891.64245                  23502648.3634
        13.2504         11.7504
  20828658.5634   -3870317.28748  -3015834.47047                  20828666.0314
        30.0004         31.7504
 00  5 11 20  8  0.0000000  0  6G 5G 6G17G10G24G30
  22179690.1024    9746465.82247   7594631.89246                  22179701.0984
        20.0004         21.0004
  21192585.5314  -12538489.49148  -9703636.98347                  21192593.0354
        30.0004         30.5004
  22452748.9924  -12571415.09247  -9616247.67246                  22452758.5124
        20.2504         21.5004
  21287272.0704   -2394705.51048  -1866000.68747                  21287280.1134
        29.5004         29.5004
  23509529.1564   13386891.47246   2597111.31945                  23509539.0274
        14.0004         11.7504
  20831813.2034   -3853740.45948  -3002917.49447                  20831820.4964
        32.0004         32.0004
 00  5 11 20  8 15.0000000  0  6G 5G 6G17G10G24G30
  22188049.6334    9790393.35046   7628861.02246                  22188060.7234
        19.5004         20.7504
  21187227.7504  -12566644.51048  -9725575.95547                  21187235.1484
        30.0004         30.2504
  22446870.1884  -12602309.26947  -9640321.01946                  22446879.6844
        21.0004         21.7504
  21291349.6644   -2373277.68048  -1849303.68947                  21291357.7664
        29.7504         29.5004
  23516418.9844   13423095.55146   2625322.23646                  23516429.1024
        14.0004         12.2504
  20834992.7114   -3837031.21648  -2989897.33847                  20835000.1564
        31.7504         32.0004
 00  5 11 20  8 30.0000000  0  6G 5G 6G17G10G24G30
  22196419.8754    9834380.70047   7663136.77046                  22196431.0474
        20.0004         20.7504
  21181877.4844  -12594760.65348  -9747484.62347                  21181884.9064
        29.7504         30.2504
  22441000.2664  -12633155.31847  -9664356.87146                  22441009.9024
        20.5004         21.7504
  21295451.2114   -2351724.23148  -1832508.80247                  21295459.3134
        29.7504         29.2504
  23523306.2664   13459286.97346   2653523.30846                  23523316.2074
        14.7504         12.5004
  20838197.5394   -3820191.14748  -2976775.24247                  20838205.0904
        31.7504         32.0004
 00  5 11 20  8 45.0000000  0  6G 5G 6G17G10G24G30
  22204803.0234    9878435.32446   7697464.95346                  22204814.1374
        19.2504         20.5004
  21176535.8984  -12622829.94648  -9769356.79647                  21176543.3674
        30.0004         30.5004
  22435141.1884  -12663945.37047  -9688349.07946                  22435151.0594
        20.5004         22.0004
  21299577.9384   -2330037.67748  -1815610.20147                  21299586.1334
        29.5004         29.2504
  23530192.2274   13495473.38946   2681720.46846                  23530201.2774
        15.0004         12.5004
  20841428.4144   -3803212.66248  -2963545.28747                  20841435.9534
        32.0004         32.0004
 00  5 11 20  9  0.0000000  0  6G 5G 6G17G10G24G30
  22213198.3914    9922551.19446   7731840.84046                  22213209.5394
        18.7504         20.2504
  21171202.4304  -12650857.98048  -9791196.81147                  21171209.8404
        29.7504         30.2504
  22429291.6024  -12694685.24547  -9712302.18546                  22429301.4494
        21.0004         21.7504
  21303728.9384   -2308224.09748  -1798612.61347                  21303737.0984
        29.5004         29.0004
  23537076.3674   13531649.13346   2709909.33046                  23537086.0634
        15.0004         12.7504
  20844684.4064   -3786101.70348  -2950212.10647                  20844691.9224
        32.2504         32.0004
 00  5 11 20  9 15.0000000  0  6G 5G 6G17G10G24G30
  22221605.1484    9966731.16746   7766266.69546                  22221616.5084
        19.5004         20.0004
  21165877.5234  -12678841.37748  -9813002.04947                  21165884.7814
        29.7504         30.2504
  22423452.0474  -12725371.77847  -9736213.74446                  22423461.8014
        21.0004         21.7504
  21307904.6954   -2286280.41948  -1781513.65647                  21307912.9264
        29.0004         29.0004
  23543958.3674   13567817.09546   2738092.10546                  23543968.4614
        15.0004         12.5004
  20847966.3054   -3768855.19748  -2936773.30247                  20847973.8324
        32.0004         32.0004
 00  5 11 20  9 30.0000000  0  6G 5G 6G17G10G24G30
  22230023.8984   10010970.34746   7800738.67446                  22230035.3524
        18.5004         20.0004
  21160559.9774  -12706784.48148  -9834775.88747                  21160567.3754
        29.7504         30.2504
  22417621.9224  -12756009.48147  -9760087.24946                  22417631.3014
        20.5004         22.0004
  21312104.1884   -2264211.49848  -1764317.10747                  21312112.2544
        29.0004         29.0004
  23550839.0944   13603972.78446   2766265.29846                  23550849.4804
        15.2504         13.2504
  20851273.1484   -3751477.90348  -2923232.59147                  20851280.8634
        32.5004         31.7504
 00  5 11 20  9 45.0000000  0  6G 5G 6G17G10G24G30
  22238453.9924   10055270.15046   7835257.88346                  22238465.3634
        18.7504         20.0004
  21155250.7504  -12734685.28848  -9856516.76747                  21155258.2544
        30.0004         30.2504
  22411801.3594  -12786596.62647  -9783921.35846                  22411810.9144
        20.5004         21.7504
  21316327.8984   -2242015.92848  -1747021.86747                  21316336.0594
        29.0004         29.0004
  23557717.1174   13640117.76946   2794430.18746                  23557726.8014
        15.0004         13.0004
  20854605.0554   -3733968.13548  -2909588.64847                  20854612.6994
        32.2504         31.7504
 00  5 11 20 10  0.0000000  0  6G 5G 6G17G10G24G30
  22246895.7424   10099632.14446   7869825.56246                  22246907.1604
        19.0004         20.0004
  21149949.6884  -12762541.67548  -9878223.03547                  21149957.1094
        30.0004         30.5004
  22405990.5944  -12817131.39647  -9807714.64346                  22406000.5234
        21.0004         22.2504
  21320576.1254   -2219691.98848  -1729626.60347                  21320584.2734
        28.7504         28.7504
  23564593.8984   13676253.84446   2822588.11146                  23564604.1214
        15.5004         13.0004
  20857962.7194   -3716324.25848  -2895840.20847                  20857970.3054
        32.0004         31.7504
 00  5 11 20 10 15.0000000  0  6G 5G 6G17G10G24G30
  22255348.4534   10144050.38446   7904437.06246                  22255359.6134
        18.7504         20.0004
  21144655.9924  -12790359.08048  -9899898.92847                  21144663.4964
        30.0004         30.5004
  22400188.9304  -12847619.39347  -9831471.49146                  22400198.8244
        20.5004         22.2504
  21324847.5084   -2197245.55448  -1712135.88747                  21324855.5634
        28.7504         28.5004
  23571467.3054   13712375.38146   2850734.71746                  23571476.7774
        15.2504         13.0004
  20861344.7814   -3698552.03648  -2881991.75847                  20861352.2624
        32.2504         32.0004
 00  5 11 20 10 30.0000000  0  6G 5G 6G17G10G24G30
  22263812.3984   10188527.88746   7939094.75446                  22263823.5594
        18.5004         19.5004
  21139370.7664  -12818134.02548  -9921541.73447                  21139378.2584
        30.0004         30.5004
  22394396.6954  -12878057.25247  -9855189.27046                  22394406.5314
        20.5004         22.2504
  21329142.6724   -2174673.62248  -1694547.38347                  21329150.6804
        28.7504         28.7504
  23578339.1094   13748485.52946   2878872.43846                  23578348.4304
        15.0004         13.5004
  20864751.7194   -3680648.37748  -2868040.89547                  20864759.1524
        31.7504         32.0004
 00  5 11 20 10 45.0000000  0  6G 5G 6G17G10G24G30
  22272287.4224   10233063.04446   7973797.35146                  22272298.9804
        18.7504         19.7504
  21134093.2974  -12845867.57348  -9943152.28147                  21134100.8244
        30.0004         30.5004
  22388613.7584  -12908446.39047  -9878869.08646                  22388623.4184
        20.5004         22.0004
  21333461.7194   -2151977.79248  -1676862.32747                  21333469.9264
        28.7504         28.5004
  23585208.1564   13784582.92246   2907000.23046                  23585218.2384
        14.5004         12.7504
  20868183.3524   -3662614.84548  -2853988.82247                  20868191.0434
        31.7504         32.0004
 00  5 11 20 11  0.0000000  0  6G 5G 6G17G10G24G30
  22280774.1024   10277660.16346   8008548.24846                  22280785.5084
        18.7504         19.7504
  21128824.6484  -12873554.78148  -9964726.72447                  21128832.2234
        30.2504         30.7504
  22382841.0864  -12938782.13247  -9902507.29646                  22382850.7114
        20.5004         22.2504
  21337804.9774   -2129153.54348  -1659077.21247                  21337813.1604
        28.2504         28.5004
  23592075.4924   13820672.18446   2935121.69646                  23592085.1174
        14.5004         13.0004
  20871640.6644   -3644446.90448  -2839832.02447                  20871648.3204
        32.2504         32.0004
 00  5 11 20 11 15.0000000  0  6G 5G 6G17G10G24G30
  22289271.0634   10322312.04946   8043341.81546                  22289282.5744
        18.2504         19.5004
  21123563.4454  -12901202.39948  -9986270.31647                  21123570.9384
        30.2504         30.7504
  22377077.1884  -12969071.36447  -9926109.26546                  22377087.0824
        20.5004         22.2504
  21342171.5004   -2106207.83148  -1641197.44647                  21342179.8244
        28.2504         28.5004
  23598940.7504   13856746.31246   2963231.32846                  23598950.9264
        14.5004         12.7504
  20875122.2504   -3626151.47748  -2825575.88647                  20875129.8014
        31.5004         32.0004
 00  5 11 20 11 30.0000000  0  6G 5G 6G17G10G24G30
  22297779.4774   10367023.31146   8078181.63346                  22297791.0594
        19.2504         19.7504
  21118310.5634  -12928805.22748 -10007779.00647                  21118318.1024
        30.0004         30.7504
  22371323.0084  -12999309.11847  -9949671.11846                  22371332.7504
        21.2504         22.5004
  21346561.7344   -2083136.16648  -1623219.53647                  21346570.0594
        28.5004         28.5004
  23605803.3594   13892810.15146   2991332.98246                  23605812.9144
        14.2504         12.5004
  20878628.8364   -3607723.90648  -2811216.77347                  20878636.4104
        32.2504         32.0004
 00  5 11 20 11 45.0000000  0  6G 5G 6G17G10G24G30
  22306298.9614   10411793.32046   8113067.24346                  22306310.5784
        18.7504         19.7504
  21113066.5394  -12956363.35848 -10029252.86847                  21113074.0554
        30.0004         30.7504
  22365579.0234  -13029495.64547  -9973193.06046                  22365588.5784
        21.0004         22.5004
  21350976.0784   -2059939.03448  -1605143.85747                  21350984.4494
        28.2504         28.2504
  23612664.0314   13928863.44346   3019426.40446                  23612675.2974
        14.2504         13.0004
  20882160.7584   -3589164.67948  -2796755.07847                  20882168.4024
        31.2504         32.0004
 00  5 11 20 12  0.0000000  0  6G 5G 6G17G10G24G30
  22314829.2504   10456619.12446   8147996.32646                  22314841.1024
        18.7504         19.7504
  21107830.4534  -12983879.22648 -10050693.79647                  21107837.9804
        30.2504         30.5004
  22359843.6954  -13059633.62547  -9996677.16946                  22359853.1214
        20.5004         22.2504
  21355413.4144   -2036619.39848  -1586972.72547                  21355421.6684
        28.0004         28.5004
  23619521.9454   13964903.23946   3047509.29946                  23619532.6604
        13.7504         12.7504
  20885716.9304   -3570476.62048  -2782192.99047                  20885724.5164
        32.5004         31.7504
 00  5 11 20 12 15.0000000  0  6G 5G 6G17G10G24G30
  22323370.0864   10501501.88346   8182969.78346                  22323381.6334
        19.5004         20.5004
  21102602.9144  -13011351.03748 -10072100.39747                  21102610.3834
        30.2504         30.5004
  22354118.2584  -13089721.50747 -10020122.24046                  22354127.8244
        21.0004         22.2504
  21359874.5554   -2013175.97348  -1568705.12947                  21359882.7624
        28.2504         28.2504
  23626378.2734   14000931.16346   3075582.94146                  23626388.1214
        13.5004         13.2504
  20889297.9774   -3551658.36548  -2767529.45047                  20889305.5394
        32.5004         32.0004
 00  5 11 20 12 30.0000000  0  6G 5G 6G17G10G24G30
  22331921.4384   10546437.21246   8217984.21246                  22331932.9494
        19.5004         20.0004
  21097382.8834  -13038782.67648 -10093475.69247                  21097390.4224
        30.2504         30.5004
  22348401.3834  -13119763.39147 -10043531.47446                  22348411.0204
        21.5004         22.5004
  21364358.5864   -1989613.03647  -1550344.41347                  21364366.8874
        27.7504         28.5004
  23633230.4774   14036942.96846   3103644.05546                  23633241.1094
        13.2504         12.2504
  20892902.9454   -3532714.09948  -2752767.72347                  20892910.6134
        32.5004         32.0004
 00  5 11 20 12 45.0000000  0  6G 5G 6G17G10G24G30
  22340482.5394   10591426.81947   8253040.93546                  22340493.9694
        20.2504         20.5004
  21092170.8594  -13066171.90648 -10114817.94647                  21092178.2584
        30.5004         30.2504
  22342693.6884  -13149757.37047 -10066903.37846                  22342703.3714
        21.0004         22.7504
  21368865.6254   -1965928.76848  -1531889.15147                  21368874.0784
        28.2504         28.0004
  23640080.8834   14072940.68046   3131694.15246                  23640092.1844
        13.0004         12.5004
  20896532.2504   -3513642.14448  -2737906.49547                  20896539.8364
        32.2504         31.7504
 00  5 11 20 13  0.0000000  0  6G 5G 6G17G10G24G30
  22349055.1024   10636474.80446   8288143.14846                  22349067.0124
        19.5004         20.5004
  21086967.7274  -13093514.05348 -10136123.51147                  21086975.0434
        30.0004         30.5004
  22336996.0474  -13179698.90847 -10090234.41746                  22337005.8244
        21.5004         22.7504
  21373396.4614   -1942119.12348  -1513336.18947                  21373404.9024
        28.0004         28.2504
  23646929.0554   14108928.69646   3159736.73446                  23646939.7584
        12.5004         12.2504
  20900186.5704   -3494438.18948  -2722942.41047                  20900194.1804
        32.2504         31.7504
 00  5 11 20 13 15.0000000  0  6G 5G 6G17G10G24G30
  22357637.6484   10681575.78846   8323286.63846                  22357649.4304
        19.7504         20.5004
  21081772.7584  -13120813.92248 -10157396.13247                  21081780.1684
        30.0004         30.2504
  22331307.3054  -13209593.04847 -10113528.52746                  22331317.0824
        21.5004         22.7504
  21377950.1024   -1918189.34748  -1494689.62347                  21377958.3554
        28.0004         28.2504
  23653775.0084   14144901.84046   3187767.70046                  23653785.7114
        13.2504         12.2504
  20903865.1174   -3475107.49348  -2707879.56847                  20903872.7734
        32.2504         31.7504
 00  5 11 20 13 30.0000000  0  6G 5G 6G17G10G24G30
  22366230.1024   10726729.81346   8358471.47646                  22366241.8244
        19.7504         20.2504
  21076585.8444  -13148070.99048 -10178635.39947                  21076593.2424
        30.2504         30.5004
  22325627.6724  -13239439.48047 -10136785.45846                  22325637.3094
        21.5004         22.7504
  21382526.6174   -1894139.32648  -1475949.35947                  21382534.9884
        28.0004         28.0004
  23660617.8054   14180860.37546   3215787.28946                  23660628.8134
        13.0004         12.7504
  20907567.8674   -3455649.82048  -2692717.78247                  20907575.5704
        32.2504         31.7504
 00  5 11 20 13 45.0000000  0  6G 5G 6G17G10G24G30
  22374833.4454   10771940.39346   8393700.37946                  22374845.4264
        19.5004         20.2504
  21071407.8364  -13175281.34048 -10199838.26747                  21071415.1294
        30.2504         30.5004
  22319957.8134  -13269234.44347 -10160002.29046                  22319967.7194
        21.5004         22.7504
  21387126.8364   -1869965.51847  -1457112.63947                  21387135.2074
        27.5004         28.2504
  23667458.1254   14216807.99846   3243798.36046                  23667469.0984
        13.2504         12.2504
  20911295.2114   -3436061.57548  -2677454.25747                  20911302.7624
        32.2504         31.2504
 00  5 11 20 14  0.0000000  0  6G 5G 6G17G10G24G30
  22383446.9614   10817203.93747   8428970.54746                  22383458.8244
        20.0004         20.2504
  21066238.1414  -13202447.93048 -10221007.03447                  21066245.4924
        30.2504         30.2504
  22314297.2034  -13298981.16747 -10183181.52246                  22314307.1564
        21.2504         23.0004
  21391749.7664   -1845671.31148  -1438182.10247                  21391758.0434
        28.0004         28.2504
  23674295.6644   14252741.42546   3271798.40546                  23674306.7544
        12.7504         12.0004
  20915047.0704   -3416346.28648  -2662091.73147                  20915054.6094
        32.5004         31.5004
 00  5 11 20 14 15.0000000  0  6G 5G 6G17G10G24G30
  22392070.3134   10862520.02947   8464281.66746                  22392081.7194
        20.0004         19.7504
  21061076.9844  -13229570.59848 -10242141.57647                  21061084.3834
        30.2504         30.5004
  22308645.6174  -13328679.73947 -10206323.23646                  22308655.5824
        21.2504         23.0004
  21396395.7664   -1821257.26847  -1419158.18647                  21396404.1484
        27.7504         28.2504
  23681130.7194   14288660.52946   3299787.25946                  23681141.4804
        12.2504         12.2504
  20918822.9534   -3396504.13248  -2646630.35147                  20918830.5744
        32.2504         31.7504
 00  5 11 20 14 30.0000000  0  6G 5G 6G17G10G24G30
  22400704.6484   10907891.70446   8499636.10646                  22400716.2304
        19.7504         20.2504
  21055924.9534  -13256645.76248 -10263239.09947                  21055932.2934
        30.5004         30.5004
  22303003.8914  -13358326.89847 -10229424.88546                  22303014.0664
        21.5004         23.0004
  21401065.1334   -1796720.23248  -1400038.42647                  21401073.5394
        28.0004         28.2504
  23687964.2974   14324568.49746   3327767.44546                  23687976.5474
        13.0004         12.2504
  20922623.6094   -3376531.96148  -2631067.65947                  20922631.2664
        32.0004         31.5004
 00  5 11 20 14 45.0000000  0  6G 5G 6G17G10G24G30
  22409348.5314   10953316.08246   8535031.60146                  22409360.6884
        19.7504         20.5004
  21050781.0314  -13283675.81448 -10284301.47547                  21050788.3484
        30.2504         30.2504
  22297371.5554  -13387925.20247 -10252488.47646                  22297381.3444
        21.2504         23.0004
  21405757.1564   -1772062.99647  -1380825.01347                  21405765.5744
        27.7504         28.0004
  23694795.0084   14360462.71146   3355736.92746                  23694806.9304
        13.0004         12.2504
  20926448.3594   -3356432.60848  -2615405.87047                  20926456.2274
        32.2504         31.5004
 00  5 11 20 15  0.0000000  0  6G 5G 6G17G10G24G30
  22418002.2344   10998791.70946   8570467.03246                  22418014.2154
        19.7504         20.2504
  21045645.9064  -13310661.63648 -10305329.38147                  21045653.1644
        30.7504         30.2504
  22291748.0784  -13417475.78747 -10275514.87846                  22291757.8674
        21.2504         23.0004
  21410471.7194   -1747286.97448  -1361519.03347                  21410480.0434
        28.2504         28.2504
  23701622.3444   14396342.10546   3383694.84246                  23701633.4224
        13.5004         12.2504
  20930296.9844   -3336207.35548  -2599645.96847                  20930304.8164
        32.0004         31.5004
 00  5 11 20 15 15.0000000  0  6G 5G 6G17G10G24G30
  22426665.6254   11044317.75946   8605941.73946                  22426677.3484
        19.2504         20.0004
  21040519.0004  -13337603.51048 -10326323.04347                  21040526.3164
        30.2504         30.2504
  22286133.9614  -13446979.17547 -10298504.49646                  22286143.9964
        21.2504         23.0004
  21415209.0784   -1722392.82048  -1342121.00547                  21415217.4144
        28.2504         28.2504
  23708446.8364   14432205.97946   3411640.68446                  23708457.6454
        13.5004         12.7504
  20934169.5634   -3315856.92748  -2583788.53447                  20934177.3364
        32.2504         31.5004
 00  5 11 20 15 30.0000000  0  6G 5G 6G17G10G24G30
  22435339.9774   11089900.11646   8641460.33646                  22435351.9224
        19.2504         20.0004
  21035401.7504  -13364494.88348 -10347277.35547                  21035409.0664
        30.2504         30.5004
  22280529.9064  -13476429.03647 -10321452.41446                  22280539.4494
        21.5004         23.2504
  21419969.8674   -1697374.53047  -1322626.24847                  21419978.2974
        27.7504         28.2504
  23715270.5474   14468060.62746   3439579.30846                  23715281.6484
        13.0004         12.0004
  20938067.2194   -3295375.16348  -2567828.76047                  20938075.0984
        31.5004         31.5004
 00  5 11 20 15 45.0000000  0  7G26G 5G 6G17G10G24G30
  24351762.3834     -23946.12055
         8.2504
  22444024.1414   11135535.43846   8677020.20246                  22444036.0984
        18.2504         19.5004
  21030293.5084  -13391338.62148 -10368194.54747                  21030300.9064
        30.2504         30.5004
  22274935.1884  -13505828.44647 -10344361.01646                  22274944.8134
        21.2504         23.0004
  21424753.6804   -1672235.39647  -1303037.32647                  21424762.1214
        27.7504         28.2504
  23722090.3284   14503902.93946   3467508.34146                  23722101.0434
        12.7504         12.0004
  20941989.1094   -3274765.33948  -2551769.19847                  20941997.0004
        31.2504         31.5004
 00  5 11 20 16  0.0000000  0  7G26G 5G 6G17G10G24G30
  24343215.7274     -68857.33345
         7.5004
  22452718.1724   11181223.51946   8712621.17646                  22452730.4104
        18.0004         19.5004
  21025194.5164  -13418134.36648 -10389074.34647                  21025201.8204
        30.2504         30.2504
  22269350.5394  -13535177.32247 -10367230.24046                  22269360.0124
        21.5004         23.2504
  21429560.5394   -1646975.67248  -1283354.43947                  21429568.9104
        28.0004         28.2504
  23728909.0474   14539732.85546   3495427.70645                  23728919.3524
        12.7504         11.7504
  20945935.3674   -3254027.56348  -2535609.93447                  20945943.2464
        31.5004         31.5004
 00  5 11 20 16 15.0000000  0  7G26G 5G 6G17G10G24G30
  24334667.9614    -113777.58044
         7.2504
  22461422.6334   11226963.93446   8748262.91746                  22461435.0944
        18.5004         19.2504
  21020104.4384  -13444881.90848 -10409916.57647                  21020111.8834
        30.0004         30.5004
  22263774.8754  -13564475.64147 -10390060.06646                  22263784.1484
        22.0004         23.2504
  21434390.1804   -1621595.82048  -1263577.94347                  21434398.5274
        28.0004         28.2504
  23735724.5784   14575550.35946   3523337.39946                  23735735.7974
        12.5004         12.0004
  20949906.2034   -3233162.09748  -2519351.16847                  20949914.1414
        31.5004         31.2504
 00  5 11 20 16 30.0000000  0  7G26G 5G 6G17G10G24G30
  24326116.8524    -158710.49044
         7.2504
  22470136.0234   11272752.55246   8783942.23946                  22470148.5784
        18.0004         19.5004
  21015022.9694  -13471584.90348 -10430724.10047                  21015030.3204
        30.2504         30.5004
  22258208.7424  -13593727.33047 -10412853.56146                  22258218.2624
        22.0004         23.5004
  21439241.9064   -1596099.71247  -1243710.85847                  21439250.3364
        27.5004         28.0004
  23742537.4224   14611351.55446   3551234.37545                  23742548.0084
        12.5004         11.7504
  20953900.2424   -3212172.89148  -2502995.98547                  20953907.9574
        32.0004         31.2504
 00  5 11 20 16 45.0000000  0  7G26G 5G 6G17G10G24G30
  24317565.1954    -203649.90644    -23343.76855                  24317583.5274
         6.7504          8.2504
  22478859.0864   11318594.75846   8819663.30046                  22478871.6414
        18.0004         19.5004
  21009951.2114  -13498237.44148 -10451492.30347                  21009958.6914
        30.2504         30.5004
  22252652.3054  -13622926.77447 -10435606.34446                  22252661.6954
        22.0004         23.5004
  21444116.7504   -1570481.98147  -1223749.00647                  21444125.2034
        27.5004         28.0004
  23749348.1804   14647141.92146   3579122.91146                  23749359.1414
        12.2504         12.0004
  20957918.7194   -3191054.65448  -2486540.25947                  20957926.5864
        32.0004         31.5004
 00  5 11 20 17  0.0000000  0  7G26G 5G 6G17G10G24G30
  24309012.0474    -248598.04744    -58368.06745                  24309032.8554
         6.7504          8.5004
  22487592.4614   11364487.71046   8855423.91046                  22487604.8284
        17.7504         19.2504
  21004888.6564  -13524841.86548 -10472223.02047                  21004896.1374
        30.2504         30.5004
  22247105.2034  -13652076.46147 -10458320.36046                  22247114.6994
        22.0004         23.5004
  21449014.2734   -1544745.51347  -1203694.63247                  21449022.7734
        27.5004         27.5004
  23756156.5944   14682918.94346   3607001.05745                  23756168.1764
        12.2504         11.2504
  20961961.5314   -3169810.02148  -2469986.04447                  20961969.2464
        31.5004         31.2504
 00  5 11 20 17 15.0000000  0  7G26G 5G 6G17G10G24G30
  24300457.8834    -293551.53445    -93396.53745                  24300478.1954
         8.7504          9.2504
  22496335.8284   11410433.84846   8891225.95946                  22496348.5354
        17.5004         19.5004
  20999835.8134  -13551395.08348 -10492913.82947                  20999843.2464
        30.2504         30.2504
  22241568.3364  -13681173.57947 -10480993.40746                  22241577.7854
        22.7504         23.2504
  21453934.5864   -1518887.65647  -1183545.66647                  21453942.9574
        27.7504         27.5004
  23762962.5474   14718685.32745   3634870.90645                  23762973.1684
        11.5004         11.5004
  20966028.9844   -3148436.40248  -2453331.31547                  20966036.9344
        31.2504         31.5004
 00  5 11 20 17 30.0000000  0  7G26G 5G 6G17G10G24G30
  24291900.9844    -338514.90245   -128432.76845                  24291920.1484
         8.7504          9.5004
  22505088.4304   11456428.05546   8927065.45746                  22505101.1134
        17.2504         19.2504
  20994791.7114  -13577901.66748 -10513568.29947                  20994799.2274
        30.2504         30.2504
  22236040.1334  -13710222.97547 -10503629.26746                  22236049.6414
        22.7504         23.5004
  21458877.4614   -1492913.55247  -1163306.11547                  21458885.9264
        27.0004         27.5004
  23769766.3204   14754436.44346   3662728.85445                  23769775.7464
        12.0004         11.7504
  20970119.9224   -3126938.70548  -2436579.90447                  20970127.8594
        31.5004         31.5004
 00  5 11 20 17 45.0000000  0  7G26G 5G 6G17G10G24G30
  24283344.0234    -383483.19045   -163472.77245                  24283363.3284
         9.0004          9.2504
  22513850.9144   11502474.52146   8962945.68446                  22513863.5394
        17.2504         18.7504
  20989757.2814  -13604356.86248 -10534182.73047                  20989764.4694
        29.7504         30.5004
  22230522.3054  -13739220.06347 -10526224.37946                  22230531.8714
        22.5004         23.7504
  21463843.2584   -1466818.90947  -1142972.64347                  21463851.6524
        27.0004         27.5004
  23776566.8364   14790176.44945   3690578.17745                  23776577.7624
        11.2504         11.0004
  20974235.1334   -3105312.77848  -2419728.57847                  20974243.1414
        31.2504         31.5004
 00  5 11 20 18  0.0000000  0  7G26G 5G 6G17G10G24G30
  24274785.5004    -428459.79445   -198519.31245                  24274804.0554
         9.7504          9.5004
  22522622.1804   11548569.02146   8998863.33646                  22522634.5704
        17.7504         19.0004
  20984732.4924  -13630764.32148 -10554759.96747                  20984739.7274
        30.0004         30.0004
  22225013.7974  -13768168.68347 -10548781.71346                  22225023.4454
        22.2504         24.2504
  21468831.1174   -1440607.86047  -1122548.46547                  21468839.4184
        27.2504         27.5004
  23783365.2114   14825901.61046   3718415.88345                  23783375.9264
        12.0004         11.5004
  20978374.1564   -3083562.59948  -2402780.43047                  20978382.0944
        31.5004         31.5004
 00  5 11 20 18 15.0000000  0  7G26G 5G 6G17G10G24G30
  24266225.5004    -473443.22145   -233571.14845                  24266243.7624
         9.5004          9.5004
  22531403.5634   11594712.48646   9034819.14446                  22531416.1174
        17.7504         19.2504
  20979716.3364  -13657122.61748 -10575298.89047                  20979723.6764
        30.2504         30.2504
  22219514.2664  -13797067.68747 -10571300.39046                  22219523.7274
        22.7504         24.0004
  21473841.0474   -1414279.48847  -1102032.86447                  21473849.2664
        27.2504         27.2504
  23790161.3134   14861612.98545   3746242.87345                  23790172.0164
        11.7504         11.7504
  20982536.8134   -3061687.13948  -2385734.66047                  20982544.8094
        31.2504         31.5004
 00  5 11 20 18 30.0000000  0  7G26G 5G 6G17G10G24G30
  24257663.0784    -518436.45145   -268630.57645                  24257682.5234
         8.2504          9.7504
  22540193.0554   11640901.24346   9070810.23546                  22540205.9614
        17.5004         19.0004
  20974709.2194  -13683434.96848 -10595802.01147                  20974716.6174
        30.0004         30.2504
  22214023.6724  -13825920.49947 -10593783.07746                  22214033.1214
        23.0004         24.2504
  21478872.9924   -1387837.39947  -1081428.65647                  21478881.3164
        27.2504         27.2504
  23796952.9224   14897307.17045   3774056.48145                  23796963.0864
        11.7504         11.5004
  20986722.8204   -3039690.19748  -2368594.22947                  20986731.1214
        31.2504         31.5004
 00  5 11 20 18 45.0000000  0  7G26G 5G 6G17G10G24G30
  24249099.1954    -563435.46445   -303694.52345                  24249117.8094
         7.5004          9.0004
  22548991.9224   11687138.47846   9106839.10246                  22549004.7234
        17.5004         19.0004
  20969711.8594  -13709697.53048 -10616266.34347                  20969719.2234
        30.0004         30.5004
  22208542.7814  -13854723.55247 -10616226.98746                  22208552.2774
        22.7504         24.2504
  21483926.8984   -1361278.33847  -1060733.30147                  21483935.2344
        27.2504         27.5004
  23803743.0164   14932987.61345   3801859.36545                  23803754.7734
        11.2504         11.5004
  20990932.6024   -3017568.27648  -2351356.41947                  20990940.7974
        31.5004         31.5004
 00  5 11 20 19  0.0000000  0  7G26G 5G 6G17G10G24G30
  24240536.0704    -608433.84844   -338758.04745                  24240554.8244
         7.2504          7.5004
  22557800.9064   11733429.91646   9142910.20846                  22557813.2624
        17.7504         18.7504
  20964724.7504  -13735904.05148 -10636687.00247                  20964732.1374
        30.0004         30.5004
  22203072.0314  -13883470.77247 -10638627.38246                  22203081.6214
        22.7504         24.5004
  21489004.5164   -1334596.54447  -1039942.30547                  21489012.8164
        27.2504         27.5004
  23810531.7734   14968660.23646   3829656.16045                  23810541.5514
        12.2504         11.2504
  20995167.0784   -2995315.56548  -2334016.68347                  20995175.3094
        31.2504         31.7504
 00  5 11 20 19 15.0000000  0  7G26G 5G 6G17G10G24G30
  24231972.9454    -653434.42743   -373823.21945                  24231989.2034
         6.0004          7.5004
  22566619.7194   11779771.92646   9179020.71346                  22566632.2974
        18.2504         18.7504
  20959747.8524  -13762057.61648 -10657066.39647                  20959755.3444
        30.0004         30.5004
  22197611.7894  -13912165.50047 -10660986.87646                  22197621.4734
        23.0004         24.5004
  21494104.5084   -1307795.66247  -1019058.51947                  21494112.8444
        27.7504         27.5004
  23817318.0784   15004321.82946   3857444.35945                  23817329.0744
        12.5004         11.5004
  20999425.8984   -2972935.60248  -2316577.79747                  20999433.9654
        31.2504         31.7504
 00  5 11 20 19 30.0000000  0  7G26G 5G 6G17G10G24G30
  24223407.5864    -698442.84644   -408894.44545                  24223427.4884
         6.5004          8.0004
  22575446.8594   11826158.34446   9215165.82946                  22575459.8134
        18.2504         18.7504
  20954780.1954  -13788163.84848 -10677408.91047                  20954787.7234
        30.0004         30.5004
  22192160.2734  -13940813.65247 -10683310.08446                  22192169.6764
        23.5004         24.7504
  21499225.8984   -1280881.94747   -998086.80947                  21499234.1764
        27.2504         27.2504
  23824100.4384   15039966.32345   3885219.24245                  23824112.7814
        11.2504         11.2504
  21003707.7344   -2950434.42648  -2299044.45547                  21003716.0234
        30.7504         31.7504
 00  5 11 20 19 45.0000000  0  7G26G 5G 6G17G10G24G30
  24214842.6174    -743452.75444   -443966.90045                  24214861.0904
         7.2504          8.0004
  22584283.5394   11872594.61846   9251349.79446                  22584296.1644
        18.0004         19.0004
  20949822.4384  -13814216.74048 -10697709.86147                  20949830.0234
        30.2504         30.5004
  22186718.6484  -13969409.53247 -10705592.55646                  22186727.9104
        23.7504         24.7504
  21504370.1724   -1253849.71847   -977022.74947                  21504378.6024
        27.5004         27.2504
  23830882.0234   15075599.53346   3912985.32545                  23830892.5044
        12.2504         11.5004
  21008013.7274   -2927806.55448  -2281412.39347                  21008022.1214
        30.5004         31.7504
 00  5 11 20 20  0.0000000  0  7G26G 5G 6G17G10G24G30
  24206276.9144    -788465.98444   -479041.94445                  24206296.1844
         6.7504          8.2504
  22593129.1094   11919078.25246   9287570.66346                  22593141.7934
        18.0004         18.7504
  20944874.5004  -13840218.27048 -10717970.78647                  20944882.0394
        30.5004         30.5004
  22181286.3364  -13997955.31447 -10727835.99146                  22181295.7034
        23.5004         24.7504
  21509536.1564   -1226701.43247   -955868.25647                  21509544.6804
        27.0004         27.2504
  23837659.7734   15111219.15045   3940740.81845                  23837671.5204
        11.0004         10.7504
  21012343.4694   -2905054.31448  -2263683.42147                  21012351.8754
        30.5004         31.5004
 00  5 11 20 20 15.0000000  0  7G26G 5G 6G17G10G24G30
  24197710.5554    -833479.33044   -514116.99845                  24197729.5434
         6.5004          8.5004
  22601984.3134   11965611.69446   9323830.33146                  22601997.2074
        18.2504         18.7504
  20939936.9224  -13866165.35048 -10738189.28647                  20939944.4024
        30.2504         30.7504
  22175864.2034  -14026448.05347 -10750038.09346                  22175873.5824
        23.5004         24.7504
  21514724.9774   -1199434.57247   -934621.36847                  21514733.4064
        27.2504         27.2504
  23844436.0394   15146828.03546   3968487.95945                  23844447.2934
        12.0004         11.5004
  21016697.0944   -2882175.15848  -2245855.55347                  21016705.5594
        31.0004         31.5004
 00  5 11 20 20 30.0000000  0  7G26G 5G 6G17G10G24G30
  24189144.2974    -878495.06745   -549194.03645                  24189162.4774
         8.0004          8.5004
  22610848.0394   12012191.81146   9360126.37546                  22610861.0164
        18.0004         18.5004
  20935009.3674  -13892060.49448 -10758367.32147                  20935016.8954
        30.7504         30.7504
  22170452.0704  -14054890.63347 -10772201.10746                  22170461.5434
        23.5004         24.7504
  21519935.6174   -1172052.10747   -913284.39847                  21519944.0944
        27.0004         27.0004
  23851209.8364   15182423.30745   3996224.47445                  23851221.0434
        11.2504         11.0004
  21021074.4924   -2859172.12148  -2227931.15747                  21021082.9454
        30.7504         31.7504
 00  5 11 20 20 45.0000000  0  7G26G 5G 6G17G10G24G30
  24180578.0084    -923512.00745   -584271.97645                  24180598.1564
         7.7504          8.7504
  22619721.3594   12058819.20946   9396459.26246                  22619734.3364
        18.0004         18.5004
  20930091.6724  -13917902.61548 -10778504.03247                  20930099.1994
        30.7504         30.7504
  22165049.4694  -14083282.20447 -10794324.38046                  22165058.7774
        23.5004         24.7504
  21525168.4384   -1144553.52647   -891856.95047                  21525176.8444
        26.7504         27.0004
  23857980.5704   15218005.78146   4023951.01345                  23857990.9104
        12.0004         10.5004
  21025475.4534   -2836044.54848  -2209909.71947                  21025483.9414
        30.7504         31.5004
 00  5 11 20 21  0.0000000  0  7G26G 5G 6G17G10G24G30
  24172009.4144    -968532.93445   -619352.99145                  24172026.4224
         7.5004          8.0004
  22628603.0314   12105490.40846   9432826.27046                  22628615.8324
        18.0004         18.5004
  20925183.6024  -13943694.68348 -10798601.74547                  20925191.0124
        30.7504         30.7504
  22159655.4064  -14111626.07447 -10816410.48246                  22159664.6914
        23.2504         24.7504
  21530422.6724   -1116942.32647   -870341.74647                  21530431.1024
        26.5004         26.7504
  23864748.8204   15253572.25645   4051665.10745                  23864759.4184
        11.2504         10.7504
  21029899.7664   -2812795.78848  -2191793.84947                  21029908.1254
        31.0004         31.7504
 00  5 11 20 21 15.0000000  0  8G26G 5G 6G17G10G23G24G30
  24163442.4924   -1013555.93245   -654435.66145                  24163461.5394
         7.5004          9.2504
  22637492.5704   12152206.49346   9469228.26446                  22637505.1374
        18.5004         18.7504
  20920285.3204  -13969434.98548 -10818659.12047                  20920292.6724
        30.7504         30.7504
  22154271.3984  -14139920.67347 -10838458.18946                  22154281.1294
        24.0004         25.0004
  21535698.7584   -1089217.31847   -848737.86647                  21535707.2344
        26.7504         27.0004
  24433681.7734      -7374.22755
         8.5004
  23871514.3054   15289124.03646   4079367.72245                  23871525.3364
        12.0004         10.7504
  21034347.1414   -2789424.69348  -2173582.65047                  21034355.4774
        30.5004         31.7504
 00  5 11 20 21 30.0000000  0  8G26G 5G 6G17G10G23G24G30
  24154874.6724   -1058580.61444   -689519.57145                  24154894.8674
         7.2504          8.7504
  22646391.2504   12198967.02946   9505664.90346                  22646404.2274
        18.0004         18.0004
  20915397.1804  -13995123.25848 -10838675.95547                  20915404.3914
        30.2504         30.7504
  22148896.3134  -14168166.03047 -10860467.53146                  22148905.7854
        23.7504         25.2504
  21540996.1644   -1061378.70047   -827045.44747                  21541004.6994
        26.5004         26.7504
  24423153.6564     -62699.68645
        10.5004
  23878276.4304   15324661.17245   4107058.96345                  23878289.2544
        11.0004         10.7504
  21038818.0164   -2765931.31448  -2155276.16847                  21038826.3754
        31.0004         31.7504
 00  5 11 20 21 45.0000000  0  8G26G 5G 6G17G10G23G24G30
  24146305.6024   -1103607.50745   -724605.24645                  24146325.2464
         8.0004          8.7504
  22655297.5864   12245770.79646   9542135.20846                  22655310.3634
        17.7504         18.0004
  20910518.6484  -14020760.21748 -10858652.80147                  20910525.9774
        31.0004         30.7504
  22143530.4924  -14196363.15647 -10882439.28846                  22143539.7894
        23.7504         25.0004
  21546314.8134   -1033427.88047   -805265.60647                  21546323.1254
        26.7504         26.7504
  24412628.1564    -118008.45545
         9.7504
  23885035.9454   15360182.69645   4134737.99545                  23885047.2234
        11.2504         10.7504
  21043311.4924   -2742316.86448  -2136875.34247                  21043319.7814
        31.0004         31.5004
 00  5 11 20 22  0.0000000  0  8G26G 5G 6G17G10G23G24G30
  24137738.2194   -1148633.16845   -759689.91645                  24137757.6524
         8.2504          9.0004
  22664212.9774   12292620.45746   9578641.27546                  22664226.1294
        17.2504         17.7504
  20905650.5394  -14046342.68048 -10878587.18647                  20905657.7034
        30.7504         30.7504
  22138174.8364  -14224509.05347 -10904371.12446                  22138184.1454
        23.7504         25.2504
  21551655.8984   -1005362.10847   -783396.19147                  21551664.3054
        26.7504         26.7504
  24402106.7974    -173297.30245
         9.0004
  23891792.9224   15395691.40445   4162407.08145                  23891804.7384
        11.0004         10.0004
  21047828.8204   -2718578.70548  -2118378.12247                  21047837.1334
        31.2504         31.5004
 00  5 11 20 22 15.0000000  0  8G26G 5G 6G17G10G23G24G30
  24129168.9144   -1193661.11145   -794776.42845                  24129186.8484
         8.5004          8.2504
  22673136.0234   12339512.03246   9615180.00446                  22673149.1764
        17.7504         18.2504
  20900792.1414  -14071874.17048 -10898481.84947                  20900799.2464
        30.7504         30.7504
  22132827.4454  -14252607.43447 -10926265.93746                  22132836.6134
        24.0004         25.2504
  21557017.6564    -977185.23447   -761440.20647                  21557025.9104
        27.0004         26.7504
  24391588.6174    -228569.70645
         9.5004
  23898547.3834   15431183.54445   4190063.26045                  23898559.3284
        10.7504         10.2504
  21052368.8284   -2694720.86848  -2099787.64647                  21052377.1174
        30.7504         31.5004
 00  5 11 20 22 30.0000000  0  8G26G 5G 6G17G10G23G24G30
  24120601.1884   -1238686.05445   -829860.56945                  24120618.4774
         9.2504          8.2504
  22682068.0474   12386449.78746   9651754.71846                  22682081.0944
        17.5004         18.2504
  20895943.9064  -14097349.82348 -10918333.00447                  20895951.1414
        30.7504         30.7504
  22127490.4384  -14280653.68947 -10948120.13646                  22127499.7584
        24.2504         25.2504
  21562401.3914    -948892.89547   -739394.24347                  21562409.6564
        27.0004         26.5004
  24381074.2274    -283820.65045    -11476.59355                  24381096.4064
         9.2504         10.2504
  23905298.8594   15466663.79245   4217710.15745                  23905311.4844
        11.0004         10.0004
  21056932.5084   -2670738.76348  -2081100.33947                  21056940.8094
        31.2504         31.5004
 00  5 11 20 22 45.0000000  0  8G26G 5G 6G17G10G23G24G30
  24112033.1414   -1283710.51245   -864944.40445                  24112051.7194
         8.7504          9.2504
  22691008.7194   12433430.58746   9688362.96646                  22691021.6484
        17.5004         18.0004
  20891106.2504  -14122772.16648 -10938142.61947                  20891113.4144
        30.7504         30.7504
  22122162.8834  -14308650.56747 -10969935.85546                  22122171.7934
        24.2504         25.2504
  21567806.7504    -920488.25847   -717260.78247                  21567814.9344
        26.7504         26.7504
  24370563.7734    -339052.64445    -54514.24445                  24370586.9734
         8.0004         10.0004
  23912047.8524   15502129.25345   4245345.52245                  23912059.1174
        10.5004         10.2504
  21061519.2114   -2646635.50048  -2062318.62447                  21061527.4064
        31.0004         31.5004
 00  5 11 20 23  0.0000000  0  8G26G 5G 6G17G10G23G24G30
  24103465.1414   -1328734.66545   -900027.88445                  24103483.3444
         8.2504          7.7504
  22699956.6724   12480453.50146   9725004.03846                  22699969.4844
        17.0004         17.5004
  20886278.5164  -14148141.62648 -10957911.02547                  20886285.8324
        31.0004         30.7504
  22116844.5704  -14336598.76047 -10991713.63946                  22116853.4924
        24.5004         25.0004
  21573233.2974    -891972.24347   -695040.52347                  21573241.4344
        26.7504         26.5004
  24360056.9384    -394266.00545    -97537.40145                  24360080.7464
         8.0004         10.2504
  23918793.5554   15537579.33745   4272968.90445                  23918803.8594
        10.7504         10.5004
  21066128.8134   -2622411.90748  -2043443.14647                  21066136.8914
        31.2504         31.5004
 00  5 11 20 23 15.0000000  0  8G26G 5G 6G17G10G23G24G30
  24094897.8054   -1373753.99845   -935107.67545                  24094914.3914
         8.2504          7.2504
  22708913.4064   12527522.26746   9761680.83946                  22708926.5704
        17.0004         17.2504
  20881461.8674  -14173453.84848 -10977634.83347                  20881469.0904
        31.0004         31.0004
  22111536.1884  -14364494.24447 -11013450.35046                  22111545.1684
        24.5004         25.2504
  21578681.5864    -863341.00247   -672730.48147                  21578689.8164
        27.0004         26.5004
  24349554.3754    -449456.34844   -140542.60145                  24349578.7584
         6.7504          9.5004
  23925536.8594   15573017.94945   4300583.35845                  23925548.9454
        10.2504         10.5004
  21070762.1414   -2598064.23148  -2024470.97547                  21070770.3364
        31.0004         31.5004
 00  5 11 20 23 30.0000000  0  8G26G 5G 6G17G10G23G24G30
  24086330.7344   -1418774.72645   -970188.54845                  24086350.4494
         8.7504          8.5004
  22717878.1484   12574629.90946   9798387.92646                  22717891.3484
        16.5004         17.0004
  20876654.8984  -14198715.28848 -10997319.07147                  20876662.0984
        31.2504         30.7504
  22106236.6954  -14392343.67047 -11035151.17346                  22106245.8524
        24.2504         25.0004
  21584150.7424    -834601.57747   -650336.14347                  21584159.0554
        27.2504         26.7504
  24339054.8524    -504630.03744   -183534.79245                  24339080.7584
         6.5004          9.0004
  23932277.5164   15608438.36045   4328183.62145                  23932290.1994
        11.0004         10.0004
  21075417.6884   -2573599.34648  -2005407.47847                  21075425.9064
        30.7504         31.2504
 00  5 11 20 23 45.0000000  0  8G26G 5G 6G17G10G23G24G30
  24077762.5784   -1463798.55045  -1005271.82645                  24077780.1134
         8.7504          8.5004
  22726849.2034   12621774.12046   9835123.50946                  22726862.6134
        16.0004         17.2504
  20871856.9924  -14223927.71548 -11016965.11247                  20871864.2734
        31.0004         31.0004
  22100944.9774  -14420149.18847 -11056817.78446                  22100954.0394
        24.0004         24.7504
  21589639.6414    -805756.33147   -627859.34547                  21589648.0234
        27.0004         26.5004
  24328558.0634    -559788.83844   -226515.39345                  24328582.0474
         6.7504          9.5004
  23939014.0864   15643838.54545   4355768.12645                  23939025.4924
        10.2504         10.0004
  21080095.0634   -2549019.49648  -1986254.39647                  21080103.3054
        30.2504         31.2504
 00  5 11 20 24  0.0000000  0  8G26G 5G 6G17G10G23G24G30
  24069195.6644   -1508819.21245  -1040352.63545                  24069212.4844
         8.5004          8.7504
  22735828.8834   12668960.41146   9871891.88046                  22735841.9774
        16.0004         17.0004
  20867069.7584  -14249085.06148 -11036568.23947                  20867076.9924
        31.2504         30.7504
  22095663.4924  -14447904.89147 -11078445.57646                  22095672.2624
        24.0004         24.7504
  21595150.0394    -776799.61047   -605295.68247                  21595158.3284
        27.0004         26.7504
  24318064.7274    -614926.52143   -269479.58945                  24318090.1414
         5.5004          8.7504
  23945748.4304   15679224.32745   4383341.39445                  23945760.0704
        10.5004         10.2504
  21084795.5004   -2524318.95748  -1967007.27747                  21084803.6024
        30.7504         31.2504
 00  5 11 20 24 15.0000000  0  8G26G 5G 6G17G10G23G24G30
  24060628.0004   -1553838.20245  -1075432.12845                  24060647.5164
         8.2504          9.5004
  22744815.6804   12716186.43046   9908691.19146                  22744828.7034
        16.5004         17.2504
  20862292.5234  -14274189.13248 -11056129.84547                  20862299.7704
        31.5004         31.0004
  22090391.1174  -14475612.84047 -11100036.15446                  22090400.0634
        24.2504         25.0004
  21600680.8594    -747733.82147   -582647.03647                  21600689.1484
        27.0004         26.7504
  24307576.1254    -670044.84942   -312428.60845                  24307601.5394
         4.7504          8.0004
  23952478.5784   15714593.54345   4410901.80045                  23952490.0554
        10.0004         10.5004
  21089518.3054   -2499500.20548  -1947668.03447                  21089526.5474
        31.0004         31.2504
 00  5 11 20 24 30.0000000  0  8G26G 5G 6G17G10G23G24G30
  24052060.8204   -1598859.17745  -1110513.16245                  24052079.3524
         8.2504          9.5004
  22753809.3284   12763447.93646   9945518.17546                  22753822.5744
        15.7504         17.2504
  20857524.9144  -14299243.57448 -11075652.78347                  20857532.0434
        31.2504         30.7504
  22085126.5474  -14503276.89547 -11121592.53546                  22085135.5274
        24.2504         25.2504
  21606232.0004    -718563.04647   -559916.57947                  21606240.2424
        27.0004         26.5004
  24297090.9534    -725147.32943   -355365.32745                  24297117.2464
         5.7504          8.0004
  23959205.5234   15749942.47045   4438446.32245                  23959217.5744
        10.2504         10.2504
  21094263.0004   -2474567.11448  -1928239.70247                  21094271.4064
        30.7504         31.5004
 00  5 11 20 24 45.0000000  0  8G26G 5G 6G17G10G23G24G30
  24043494.2814   -1643875.30845  -1145590.45245                  24043513.6334
         8.7504          9.0004
  22762810.7344   12810750.94046   9982377.47546                  22762824.3444
        16.2504         16.7504
  20852768.0314  -14324241.77848 -11095131.90047                  20852775.1724
        30.7504         30.7504
  22079871.9144  -14530890.74847 -11143109.78746                  22079880.9304
        24.0004         25.2504
  21611804.2194    -689281.16347   -537099.54747                  21611812.4264
        27.2504         26.5004
  24286609.0784    -780227.31344   -398284.52945                  24286632.7584
         6.2504          8.2504
  23965929.2274   15785277.20745   4465979.85145                  23965940.5274
        10.2504         10.5004
  21099030.5164   -2449513.68548  -1908717.59847                  21099038.9104
        30.5004         31.2504
 00  5 11 20 25  0.0000000  0  8G26G 5G 6G17G10G23G24G30
  24034928.8834   -1688886.99245  -1180664.29245                  24034947.1564
         8.0004          8.7504
  22771820.4534   12858094.28646  10019268.21846                  22771833.8874
        16.0004         16.5004
  20848021.3914  -14349184.33948 -11114567.66247                  20848028.5204
        31.2504         30.7504
  22074626.4924  -14558455.24847 -11164588.59346                  22074635.4264
        23.7504         25.2504
  21617397.3284    -659889.37647   -514196.87747                  21617405.4884
        27.0004         26.7504
  24276132.2274    -835285.48744   -441186.73945                  24276156.7504
         6.5004          9.0004
  23972650.3594   15820597.00645   4493501.69845                  23972662.7384
        10.7504          9.7504
  21103820.7814   -2424341.10848  -1889102.65347                  21103829.1994
        30.5004         31.2504
 00  5 11 20 25 15.0000000  0  8G26G 5G 6G17G10G23G24G30
  24026362.8914   -1733897.96045  -1215737.51045                  24026380.3554
         7.7504          8.7504
  22780836.2734   12905473.51346  10056186.92246                  22780849.5904
        15.7504         16.7504
  20843284.8674  -14374075.22748 -11133963.15447                  20843291.9614
        30.7504         30.7504
  22069389.6644  -14585974.48547 -11186032.12746                  22069398.7034
        24.5004         25.5004
  21623010.4694    -630392.15647   -491212.04747                  21623018.6764
        27.7504         26.7504
  24265658.8594    -890325.53745   -484074.82445                  24265682.0944
         7.5004          8.0004
  23979368.2664   15855897.54045   4521008.56545                  23979379.8834
        11.2504         10.5004
  21108632.8444   -2399053.63248  -1869398.17447                  21108641.2154
        30.0004         31.0004
 00  5 11 20 25 30.0000000  0  8G26G 5G 6G17G10G23G24G30
  24017798.8524   -1778904.44745  -1250807.28845                  24017817.1374
         7.7504          8.5004
  22789859.7424   12952891.65146  10093135.94546                  22789873.2464
        15.7504         16.7504
  20838558.8284  -14398910.88548 -11153315.61047                  20838566.0394
        31.2504         30.7504
  22064162.3284  -14613445.21247 -11207437.86246                  22064171.2384
        24.2504         25.5004
  21628644.4614    -600786.43647   -468142.67447                  21628652.7274
        27.5004         26.7504
  24255188.2894    -945343.89045   -526946.05945                  24255211.0784
         8.0004          7.7504
  23986082.3524   15891182.14345   4548503.02945                  23986094.0514
        10.7504         10.0004
  21113467.5084   -2373648.27348  -1849601.84047                  21113475.9614
        30.5004         31.2504
 00  5 11 20 25 45.0000000  0  8G26G 5G 6G17G10G23G24G30
  24009235.0474   -1823904.99645  -1285872.42745                  24009253.1564
         7.7504          8.2504
  22798891.0554   13000349.35746  10130115.79346                  22798904.7344
        16.0004         17.0004
  20833843.5084  -14423689.97248 -11172623.98047                  20833850.7424
        30.7504         30.7504
  22058943.9774  -14640866.39447 -11228804.97746                  22058953.2384
        24.2504         25.5004
  21634299.0004    -571071.39847   -444988.11547                  21634307.4774
        27.2504         26.5004
  24244722.7664   -1000339.17945   -569799.26545                  24244746.5274
         8.0004          7.7504
  23992794.5634   15926451.83245   4575985.82545                  23992805.3014
        11.5004         10.7504
  21118324.4774   -2348124.21948  -1829713.01647                  21118332.8364
        30.2504         31.2504
 00  5 11 20 26  0.0000000  0  8G26G 5G 6G17G10G23G24G30
  24000672.9304   -1868898.16045  -1320931.81345                  24000691.0394
         8.2504          8.7504
  22807929.6254   13047847.26746  10167126.97046                  22807943.0944
        16.2504         17.2504
  20829139.1254  -14448411.26448 -11191887.31947                  20829146.5124
        30.5004         30.7504
  22053735.7274  -14668237.09547 -11250132.76946                  22053745.1174
        24.0004         25.5004
  21639974.2504    -541246.45047   -421747.91047                  21639982.5984
        26.7504         26.2504
  24234262.0394   -1055310.14945   -612633.53645                  24234285.4144
         9.0004          8.5004
  23999502.5784   15961707.51745   4603457.73445                  23999513.2584
        11.0004         10.7504
  21123204.3284   -2322480.78048  -1809731.16947                  21123212.5824
        30.5004         31.0004
 00  5 11 20 26 15.0000000  0  8G26G 5G 6G17G10G23G24G30
  23992112.3134   -1913885.32345  -1355986.54745                  23992131.7114
         8.5004          8.7504
  22816975.6954   13095383.39846  10204167.91346                  22816989.8554
        15.2504         17.0004
  20824445.5474  -14473076.23448 -11211106.76947                  20824453.0274
        30.7504         30.7504
  22048536.0784  -14695558.98247 -11271422.52446                  22048545.2584
        24.2504         25.5004
  21645670.5944    -511313.47047   -398423.53047                  21645679.0354
        27.5004         26.5004
  24223806.0004   -1110258.13245   -655449.89745                  24223828.1804
         9.7504          8.7504
  24006209.3364   15996947.60045   4630917.48745                  24006222.2194
        11.2504         10.2504
  21128106.4924   -2296719.75748  -1789657.69147                  21128114.9344
        30.2504         31.0004
 00  5 11 20 26 30.0000000  0  8G26G 5G 6G17G10G23G24G30
  23983553.0944   -1958863.21245  -1391033.99545                  23983571.1804
         7.5004          8.2504
  22826029.2344   13142960.19146  10241240.53146                  22826043.3484
        15.7504         16.7504
  20819763.2344  -14497681.86948 -11230279.98947                  20819770.6094
        31.0004         31.0004
  22043346.7734  -14722829.34747 -11292672.13046                  22043356.0824
        23.5004         25.2504
  21651387.3754    -481270.05347   -375013.09347                  21651395.8404
        26.7504         26.2504
  24213354.5164   -1165180.06345   -698245.97645                  24213376.2154
        10.2504          9.0004
  24012912.8594   16032174.76745   4658367.17345                  24012925.4144
        11.0004         10.5004
  21133031.4614   -2270838.67048  -1769490.66447                  21133039.9264
        30.2504         31.2504
 00  5 11 20 26 45.0000000  0  8G26G 5G 6G17G10G23G24G30
  23974995.0704   -2003833.33245  -1426075.40845                  23975014.1414
         7.7504          9.0004
  22835090.0784   13190575.38646  10278343.10346                  22835104.1804
        15.2504         16.5004
  20815091.9774  -14522229.86748 -11249408.29147                  20815099.2814
        30.7504         31.0004
  22038166.7424  -14750050.08847 -11313883.06646                  22038176.1684
        23.5004         25.2504
  21657125.0784    -451118.52347   -351518.41247                  21657133.4494
        27.0004         26.0004
  24202907.7194   -1220077.59845   -741023.02545                  24202931.2464
        10.7504          9.7504
  24019613.2194   16067386.91245   4685805.13445                  24019625.0594
        10.7504         10.5004
  21137979.1094   -2244839.77348  -1749231.83047                  21137987.5044
        30.5004         31.0004
 00  5 11 20 27  0.0000000  0  8G26G 5G 6G17G10G23G24G30
  23966438.8134   -2048797.62345  -1461112.36345                  23966456.3594
         8.2504          8.5004
  22844158.1334   13238226.35046  10315473.53446                  22844171.8364
        15.5004         16.7504
  20810431.1954  -14546722.33648 -11268493.32847                  20810438.4414
        31.2504         31.0004
  22032995.8914  -14777223.58547 -11335057.19046                  22033005.3524
        23.2504         25.2504
  21662883.0004    -420861.41847   -327941.46547                  21662891.5004
        26.5004         26.2504
  24192464.7814   -1274952.87045   -783782.71345                  24192487.7344
        10.0004          9.5004
  24026310.8054   16102581.75245   4713229.62545                  24026322.6334
        11.0004         10.5004
  21142948.3834   -2218725.60648  -1728883.18447                  21142956.7774
        30.7504         31.2504
 00  5 11 20 27 15.0000000  0  8G26G 5G 6G17G10G23G24G30
  23957884.2894   -2093752.44545  -1496141.85245                  23957901.8364
         8.0004          8.7504
  22853233.4384   13285916.02446  10352634.11946                  22853247.6914
        16.0004         17.0004
  20805781.7734  -14571155.78448 -11287532.37547                  20805789.0084
        31.2504         31.0004
  22027834.6884  -14804346.59847 -11356191.97646                  22027843.9264
        23.2504         25.2504
  21668661.2664    -390495.88847   -304280.03047                  21668669.6604
        27.0004         26.0004
  24182027.1414   -1329802.24245   -826522.21645                  24182048.6764
         9.5004          9.2504
  24033005.2034   16137762.53645   4740643.18345                  24033017.5354
        11.0004         10.5004
  21147940.3594   -2192493.20048  -1708442.39347                  21147948.7194
        30.7504         31.2504
 00  5 11 20 27 30.0000000  0  8G26G 5G 6G17G10G23G24G30
  23949330.3284   -2138699.82744  -1531165.53045                  23949348.1804
         7.2504          8.2504
  22862315.1024   13333641.55746  10389822.67246                  22862329.1094
        15.2504         17.0004
  20801142.9534  -14595532.46748 -11306527.18747                  20801150.2234
        31.5004         31.0004
  22022681.9304  -14831421.63547 -11377289.38746                  22022691.4964
        23.2504         25.5004
  21674459.9064    -360024.61147   -280536.19647                  21674468.4184
        26.5004         26.2504
  24171593.5474   -1384627.83645   -869243.22945                  24171617.7774
         9.2504          9.5004
  24039697.6094   16172926.76845   4768043.80845                  24039709.6954
        10.7504         10.5004
  21152954.3364   -2166145.26448  -1687911.58547                  21152962.8484
        31.0004         31.0004
 00  5 11 20 27 45.0000000  0  8G26G 5G 6G17G10G23G24G30
  23940778.1334   -2183641.39445  -1566184.72445                  23940796.6524
         8.0004          8.7504
  22871403.8834   13381400.65046  10427037.35146                  22871417.8794
        15.7504         16.5004
  20796514.7504  -14619853.98048 -11325479.01447                  20796521.9264
        31.2504         31.0004
  22017538.8674  -14858450.68147 -11398350.95346                  22017548.2814
        23.2504         25.5004
  21680277.9924    -329449.84947   -256711.72347                  21680286.4804
        26.5004         26.0004
  24161164.6484   -1439431.32045   -911946.93745                  24161187.7664
         9.2504          9.5004
  24046385.4454   16208072.36045   4795429.93845                  24046397.8954
        11.0004         10.0004
  21157989.6804   -2139684.00648  -1667292.47547                  21157998.1914
        30.7504         31.0004
 00  5 11 20 28  0.0000000  0  8G26G 5G 6G17G10G23G24G30
  23932227.7194   -2228572.14345  -1601195.51245                  23932247.4344
         8.2504          8.7504
  22880499.5554   13429197.38046  10464281.37746                  22880513.7384
        16.0004         17.0004
  20791897.8914  -14644115.72448 -11344384.26447                  20791905.0554
        31.2504         31.0004
  22012404.7504  -14885429.30647 -11419373.23346                  22012414.0004
        23.0004         25.2504
  21686116.4304    -298767.40647   -232803.34646                  21686124.8014
        26.2504         25.5004
  24150741.1484   -1494207.96645   -954629.78945                  24150763.1414
         8.7504          9.0004
  24053070.9454   16243203.69245   4822804.93445                  24053082.2704
        10.7504         10.2504
  21163047.4384   -2113105.23348  -1646581.79747                  21163055.9494
        31.5004         31.2504
 00  5 11 20 28 15.0000000  0  8G26G 5G 6G17G10G23G24G30
  23923679.5944   -2273495.54645  -1636200.54845                  23923698.3134
         8.0004          9.5004
  22889601.0084   13477027.51946  10501551.42946                  22889615.0274
        15.0004         16.7504
  20787291.7424  -14668321.38448 -11363245.81347                  20787298.8834
        31.5004         30.7504
  22007279.8834  -14912361.38547 -11440359.24146                  22007289.1684
        23.5004         25.2504
  21691975.0314    -267981.47947   -208814.32746                  21691983.3204
        26.2504         25.5004
  24140321.7114   -1548961.40845   -997294.54445                  24140344.0554
         8.2504          9.7504
  24059752.8054   16278316.94645   4850165.85345                  24059763.5434
        10.5004         10.0004
  21168126.8524   -2086413.08748  -1625782.77147                  21168135.2584
        30.5004         31.0004
 00  5 11 20 28 30.0000000  0  8G26G 5G 6G17G10G23G24G30
  23915131.8674   -2318411.06045  -1671199.41145                  23915150.0594
         7.5004          8.7504
  22898709.5234   13524890.97846  10538847.43046                  22898724.3054
        15.2504         16.5004
  20782696.2274  -14692470.54648 -11382063.33647                  20782703.4964
        30.7504         30.7504
  22002163.6644  -14939246.71747 -11461308.82046                  22002173.2074
        23.2504         25.2504
  21697853.1254    -237092.19647   -184744.77946                  21697861.2854
        26.5004         25.5004
  24129905.9224   -1603691.19745  -1039940.85745                  24129927.5394
         7.5004          9.5004
  24066430.3444   16313412.20545   4877512.74845                  24066441.7624
        10.0004         10.0004
  21173227.8674   -2059607.69148  -1604895.50047                  21173236.3204
        31.2504         31.0004
 00  5 11 20 28 45.0000000  0  8G26G 5G 6G17G10G23G24G30
  23906587.1334   -2363313.37945  -1706188.02145                  23906605.1254
         8.0004          9.0004
  22907825.1954   13572792.26446  10576172.91046                  22907839.6954
        15.7504         16.5004
  20778112.4064  -14716558.04848 -11400832.81647                  20778119.6994
        30.7504         31.0004
  21997057.4844  -14966080.49747 -11482218.22646                  21997066.6054
        23.2504         25.5004
  21703751.5784    -206094.92647   -160591.07346                  21703759.7734
        26.0004         25.5004
  24119497.4384   -1658392.07845  -1082564.63145                  24119519.0084
         7.7504          9.5004
  24073106.5394   16348494.32445   4904849.40945                  24073119.8094
         9.5004          9.2504
  21178351.2584   -2032684.28948  -1583916.27747                  21178359.7934
        30.7504         31.0004
 00  5 11 20 29  0.0000000  0  8G26G 5G 6G17G10G23G24G30
  23898044.4144   -2408200.67945  -1741164.92545                  23898061.7154
         8.0004          8.7504
  22916947.7504   13620732.45946  10613528.73746                  22916962.0394
        16.5004         16.2504
  20773540.7504  -14740582.30848 -11419553.01747                  20773547.9144
        31.0004         31.0004
  21991961.0944  -14992861.40347 -11503086.44146                  21991970.3674
        23.5004         25.5004
  21709670.8674    -174988.63647   -136352.42746                  21709679.2854
        26.0004         25.2504
  24109093.3284   -1713062.27245  -1125164.49445                  24109115.8594
         8.2504         10.0004
  24079780.7814   16383564.60545   4932176.83345                  24079792.3524
        11.0004         10.2504
  21183497.2894   -2005641.78948  -1562844.25947                  21183505.8594
        31.5004         31.2504
 00  5 11 20 29 15.0000000  0  8G26G 5G 6G17G10G23G24G30
  23889505.7504   -2453073.14945  -1776130.24945                  23889523.1214
         8.2504          9.5004
  22926077.7814   13668710.59346  10650914.08546                  22926091.7664
        15.5004         16.2504
  20768981.0634  -14764543.71848 -11438224.24247                  20768988.1914
        30.7504         30.7504
  21986874.7584  -15019590.10947 -11523913.97246                  21986884.0664
        23.7504         25.5004
  21715610.9454    -143774.26647   -112029.55746                  21715619.3634
        25.5004         25.2504
  24098696.4384   -1767702.34745  -1167740.90145                  24098718.7114
         7.5004         10.0004
  24086451.6564   16418622.54845   4959494.68045                  24086463.1804
        10.0004          9.7504
  21188665.8364   -1978481.23148  -1541680.23547                  21188674.3134
        31.0004         31.2504
 00  5 11 20 29 30.0000000  0  8G26G 5G 6G17G10G23G24G30
  23880968.0944   -2497939.14945  -1811090.58545                  23880985.8754
         8.5004          8.5004
  22935213.6094   13716717.70146  10688322.00546                  22935228.7774
        15.2504         16.0004
  20764431.8054  -14788450.69448 -11456853.05247                  20764439.0164
        30.5004         30.5004
  21981796.7584  -15046275.28347 -11544707.58546                  21981805.9964
        23.7504         25.5004
  21721569.5864    -112460.85447    -87629.51246                  21721578.1684
        25.7504         25.0004
  24088301.9534   -1822320.48345  -1210300.18945                  24088324.7664
         7.7504          9.2504
  24093119.3674   16453659.33345   4986795.97545                  24093130.6214
        10.5004          9.7504
  21193855.1254   -1951211.48148  -1520431.13547                  21193863.5204
        31.5004         31.0004
 00  5 11 20 29 45.0000000  0  8G26G 5G 6G17G10G23G24G30
  23872433.8054   -2542787.97445  -1846037.47645                  23872451.4804
         9.0004          9.0004
  22944356.6094   13764763.67646  10725760.21346                  22944370.6644
        15.5004         16.0004
  20759894.8754  -14812292.74148 -11475431.26847                  20759902.0984
        30.5004         30.7504
  21976729.0394  -15072906.69647 -11565459.30946                  21976738.1604
        23.5004         25.5004
  21727549.1094     -81038.44147    -63144.53546                  21727557.7154
        25.5004         25.2504
  24077914.0864   -1876906.28144  -1252834.28845                  24077937.0274
         6.5004          9.7504
  24099784.4844   16488685.01245   5014088.68645                  24099796.5124
        11.0004         10.0004
  21199067.0394   -1923822.58848  -1499089.19247                  21199075.6684
        31.0004         31.0004
 00  5 11 20 30  0.0000000  0  8G26G 5G 6G17G10G23G24G30
  23863901.7194   -2587626.22345  -1880976.19545                  23863918.2814
         9.0004          9.2504
  22953505.6414   13812841.15446  10763222.98846                  22953519.2504
        15.2504         16.0004
  20755368.7894  -14836076.66148 -11493964.19347                  20755375.8714
        30.7504         30.5004
  21971670.1564  -15099491.45747 -11586174.68146                  21971679.4654
        23.7504         25.2504
  21733547.9144     -49514.32447    -38580.30246                  21733556.5664
        25.5004         24.7504
  24067531.3284   -1931466.39645  -1295348.35245                  24067554.1884
         8.0004         10.0004
  24106446.4614   16523692.68045   5041367.32145                  24106456.9774
        10.2504          9.7504
  21204300.3524   -1896321.86148  -1477660.10747                  21204309.0274
        30.5004         31.0004
 00  5 11 20 30 15.0000000  0  8G26G 5G 6G17G10G23G24G30
  23855371.0704   -2632452.15945  -1915905.28145                  23855389.4494
         9.7504          9.7504
  22962660.7034   13860951.15946  10800711.10446                  22962674.8754
        15.0004         15.7504
  20750854.4064  -14859800.89248 -11512450.60147                  20750861.5824
        31.2504         30.5004
  21966620.2974  -15126028.24247 -11606852.67347                  21966629.3244
        23.7504         25.7504
  21739566.4144     -17887.57747    -13936.10646                  21739574.9494
        25.2504         25.0004
  24057154.0084   -1985999.26844  -1337841.23945                  24057175.4024
         6.7504          8.5004
  24113105.3204   16558683.50545   5068632.81745                  24113117.2074
        10.5004         10.0004
  21209555.0784   -1868708.21548  -1456143.03547                  21209563.7074
        30.7504         30.7504
 00  5 11 20 30 30.0000000  0  8G26G 5G 6G17G10G23G24G30
  23846843.1804   -2677265.85945  -1950824.81245                  23846859.8834
         9.0004          9.7504
  22971821.8914   13909092.79846  10838223.85646                  22971836.3324
        15.2504         16.0004
  20746350.8674  -14883465.76748 -11530890.75947                  20746358.0664
        30.7504         30.5004
  21961579.5474  -15152517.62047 -11627493.71247                  21961588.6684
        24.0004         25.7504
  21745604.1024      13841.04547     10787.48046                  21745612.7774
        25.5004         25.0004
  24046782.1334   -2040505.12544  -1380313.02145                  24046805.7774
         7.2504          8.7504
  24119760.1804   16593657.06345   5095884.87245                  24119772.2304
        10.5004         10.2504
  21214831.0474   -1840982.43448  -1434538.58547                  21214839.5234
        30.7504         30.7504
 00  5 11 20 30 45.0000000  0  8G26G 5G 6G17G10G23G24G30
  23838318.8204   -2722063.06545  -1985731.54745                  23838336.6954
         9.2504         10.2504
  22980989.9844   13957269.42746  10875763.88946                  22981004.7774
        15.7504         15.7504
  20741859.7814  -14907067.29548 -11549281.56147                  20741866.9224
        30.7504         30.5004
  21956548.4924  -15178955.80147 -11648094.87147                  21956557.6724
        24.2504         25.7504
  21751661.8594      45675.02847     35593.16146                  21751670.3834
        25.5004         25.0004
  24036415.3444   -2094979.80045  -1422760.51545                  24036437.9804
         8.2504         10.0004
  24126412.8674   16628617.03945   5123126.35545                  24126425.7974
        10.5004         10.0004
  21220129.1564   -1813141.06448  -1412844.06647                  21220137.7734
        30.7504         30.7504
 00  5 11 20 31  0.0000000  0  8G26G 5G 6G17G10G23G24G30
  23829796.4844   -2766845.19245  -2020626.47645                  23829813.6564
         9.5004         10.0004
  22990163.7344   14005479.05446  10913329.64446                  22990178.3284
        14.5004         15.2504
  20737380.3984  -14930606.90348 -11567624.11247                  20737387.5514
        30.7504         30.5004
  21951526.7974  -15205344.53047 -11668657.48647                  21951535.8954
        24.2504         26.0004
  21757739.3674      77612.41247     60479.41446                  21757747.8324
        25.5004         25.0004
  24026054.8204   -2149424.71745  -1465184.86845                  24026077.3404
         8.2504         10.0004
  24133062.4924   16663561.75345   5150355.93345                  24133073.9924
        10.7504         10.0004
  21225448.9924   -1785186.08348  -1391061.01747                  21225457.5394
        31.0004         30.7504
 00  5 11 20 31 15.0000000  0  8G26G 5G 6G17G10G23G24G30
  23821277.6414   -2811613.07845  -2055510.31845                  23821294.7664
         9.5004          9.7504
  22999344.2974   14053720.00246  10950919.77446                  22999359.3594
        15.2504         15.2504
  20732912.4924  -14954085.67848 -11585919.26347                  20732919.6334
        30.2504         30.7504
  21946514.2424  -15231685.24347 -11689182.68847                  21946523.4804
        24.0004         26.0004
  21763836.2664     109651.39247     85444.83546                  21763844.6604
        26.2504         25.0004
  24015699.5784   -2203841.07045  -1507586.90845                  24015721.8054
         8.7504          9.7504
  24139709.0314   16698489.68245   5177572.43845                  24139720.3674
        10.0004          9.7504
  21230790.0474   -1757119.11148  -1369190.70747                  21230798.6414
        31.2504         30.7504
 00  5 11 20 31 30.0000000  0  8G26G 5G 6G17G10G23G24G30
  23812760.5634   -2856363.47145  -2090380.57245                  23812776.9964
         9.5004         10.0004
  23008530.9224   14101994.99446  10988536.46046                  23008546.0784
        14.5004         15.0004
  20728456.8204  -14977500.49348 -11604164.57147                  20728463.9024
        31.2504         30.5004
  21941511.5704  -15257974.90947 -11709668.11947                  21941521.1484
        24.2504         26.0004
  21769952.8984     141794.70347    110491.54946                  21769961.3284
        25.7504         25.0004
  24005350.8914   -2258225.50545  -1549964.10945                  24005372.8244
         9.7504         10.5004
  24146353.6484   16733403.78345   5204778.17145                  24146365.4654
        10.0004          9.5004
  21236152.8524   -1728937.39948  -1347230.98247                  21236161.4924
        30.7504         30.7504
 00  5 11 20 31 45.0000000  0  8G26G 5G 6G17G10G23G24G30
  23804248.4534   -2901098.18245  -2125238.59945                  23804265.8134
        10.0004         10.2504
  23017723.0084   14150301.32746  11026177.54346                  23017737.7424
        14.0004         14.7504
  20724012.9384  -15000853.46448 -11622361.68847                  20724020.0664
        30.7504         30.5004
  21936517.9384  -15284215.88547 -11730115.60847                  21936527.4344
        24.2504         26.2504
  21776088.8674     174039.58847    135617.41746                  21776097.2854
        26.0004         25.0004
  23995007.0084   -2312580.04145  -1592318.00845                  23995028.4734
         9.7504         10.0004
  24152994.3834   16768301.72045   5231971.30045                  24153005.6844
        10.7504         10.2504
  21241536.8984   -1700643.65548  -1325183.96847                  21241545.5394
        31.2504         30.5004
 00  5 11 20 32  0.0000000  0  8G26G 5G 6G17G10G23G24G30
  23795739.1884   -2945815.46745  -2160082.99345                  23795756.2774
        10.2504         10.7504
  23026921.8284   14198639.96946  11063843.79846                  23026936.4804
        14.0004         14.5004
  20719581.1644  -15024142.94448 -11640509.33947                  20719588.3634
        30.2504         30.5004
  21931534.0084  -15310406.91747 -11750524.17847                  21931543.3754
        24.7504         26.2504
  21782244.6564     206387.16247    160823.29546                  21782252.8634
        26.0004         25.0004
  23984669.3054   -2366903.05045  -1634647.33245                  23984690.4304
        10.0004         10.2504
  24159632.2734   16803184.84845   5259152.88745                  24159643.4344
        10.7504         10.0004
  21246942.6804   -1672236.65948  -1303048.69847                  21246951.3094
        31.2504         30.5004
 00  5 11 20 32 15.0000000  0  8G26G 5G 6G17G10G23G24G30
  23787232.1644   -2990517.59045  -2194915.62945                  23787250.3204
        10.0004         10.0004
  23036126.1804   14247007.94046  11101532.92546                  23036141.0664
        14.7504         14.7504
  20715160.7034  -15047371.42448 -11658609.45147                  20715167.9144
        30.5004         30.5004
  21926558.9384  -15336550.62047 -11770895.86947                  21926568.4454
        24.5004         26.5004
  21788419.0474     238834.45147    186106.87946                  21788427.4534
        25.5004         24.7504
  23974337.7034   -2421196.89145  -1676953.96745                  23974358.6054
        10.0004         10.2504
  24166267.5164   16838050.41145   5286320.78745                  24166278.6294
        11.2504         10.5004
  21252369.4304   -1643719.40448  -1280827.51647                  21252378.0124
        30.7504         30.5004
 00  5 11 20 32 30.0000000  0  8G26G 5G 6G17G10G23G24G30
  23778728.2734   -3035201.15345  -2229733.75945                  23778745.8794
         9.5004         10.5004
  23045336.5704   14295407.84746  11139246.92646                  23045351.6334
        14.7504         15.2504
  20710752.7734  -15070535.78948 -11676659.60047                  20710760.0784
        30.5004         30.5004
  21921593.5554  -15362644.18047 -11791228.49247                  21921602.8404
        24.7504         26.5004
  21794612.8444     271384.00647    211470.15046                  21794620.9694
        25.7504         24.5004
  23964011.6644   -2475458.37445  -1719235.37045                  23964033.5634
         9.7504         10.5004
  24172899.4534   16872901.23445   5313477.22245                  24172911.9964
        10.5004         10.0004
  21257817.5784   -1615089.44248  -1258518.50847                  21257826.1484
        30.5004         30.2504
 00  5 11 20 32 45.0000000  0  8G26G 5G 6G17G10G23G24G30
  23770229.9304   -3079864.28145  -2264535.97445                  23770246.7154
        10.5004         10.2504
  23054552.9774   14343840.85346  11176986.71046                  23054568.1684
        14.2504         14.7504
  20706357.3204  -15093634.22248 -11694658.37647                  20706364.6844
        30.5004         30.7504
  21916638.1334  -15388686.14747 -11811520.90747                  21916647.4064
        24.7504         26.2504
  21800826.7274     304037.00147    236914.02146                  21800835.0274
        25.2504         24.7504
  23953692.0634   -2529685.75545  -1761490.16745                  23953714.4414
         9.7504         10.0004
  24179528.2504   16907738.93345   5340623.42245                  24179540.3714
        10.0004         10.0004
  21263287.4924   -1586345.51948  -1236120.70647                  21263296.2274
        30.7504         30.5004
 00  5 11 20 33  0.0000000  0  8G26G 5G 6G17G10G23G24G30
  23761732.7814   -3124515.16845  -2299328.68045                  23761750.1414
        10.5004         10.7504
  23063774.1564   14392298.05246  11214745.32646                  23063788.6914
        13.2504         14.2504
  20701972.7584  -15116675.08248 -11712612.29447                  20701979.9104
        30.7504         30.7504
  21911690.4454  -15414685.13047 -11831779.82947                  21911699.7544
        24.5004         26.2504
  21807058.4304     336784.56547    262431.58446                  21807066.9414
        25.5004         24.5004
  23943377.9924   -2583887.37445  -1803724.92045                  23943400.2074
         9.5004         10.5004
  24186154.0164   16942554.74845   5367752.53045                  24186165.7624
        10.2504         10.2504
  21268777.1254   -1557496.43548  -1213640.95447                  21268785.7664
        30.7504         30.5004
 00  5 11 20 33 15.0000000  0  8G26G 5G 6G17G10G23G24G30
  23753238.3054   -3169153.87845  -2334111.87145                  23753254.9264
        10.0004         10.7504
  23073000.1024   14440778.64046  11252522.18246                  23073015.3524
        13.5004         14.0004
  20697598.9534  -15139658.51648 -11730521.46047                  20697606.2584
        30.7504         30.5004
  21906751.1254  -15440641.54947 -11852005.58947                  21906760.2814
        24.7504         26.0004
  21813307.9844     369626.04347    288022.33046                  21813316.2854
        25.0004         24.5004
  23933067.8754   -2638063.27245  -1845939.61345                  23933089.6914
         9.7504         10.2504
  24192774.7974   16977348.39145   5394864.42445                  24192786.0044
        10.5004         10.2504
  21274286.8284   -1528542.85048  -1191079.77947                  21274295.3524
        31.0004         30.7504
 00  5 11 20 33 30.0000000  0  8G26G 5G 6G17G10G23G24G30
  23744748.5314   -3213766.62745  -2368874.84745                  23744764.0864
        10.2504         10.0004
  23082232.8134   14489295.48246  11290327.31746                  23082247.1954
        13.5004         13.7504
  20693239.0004  -15162571.13148 -11748375.44547                  20693246.2584
        30.2504         30.7504
  21901822.4224  -15466542.22447 -11872187.90747                  21901831.5204
        25.2504         26.2504
  21819577.6484     402574.23547    313696.22946                  21819586.1134
        25.2504         24.5004
  23922766.3834   -2692199.99145  -1888123.79845                  23922787.4734
        10.2504         10.7504
  24199394.0394   17012132.80745   5421969.08345                  24199406.5124
         9.7504         10.0004
  21279819.0474   -1499471.80348  -1168427.07347                  21279827.6764
        31.5004         30.7504
 00  5 11 20 33 45.0000000  0  8G26G 5G 6G17G10G23G24G30
  23736262.7274   -3258358.50545  -2403621.52745                  23736278.7034
         9.7504         10.2504
  23091470.7814   14537842.87746  11328156.28046                  23091486.4064
        13.5004         14.5004
  20688891.0944  -15185418.07848 -11766178.25747                  20688898.2584
        30.7504         30.7504
  21896903.3524  -15492392.60447 -11892331.03847                  21896912.3204
        25.5004         26.2504
  21825866.8284     435623.37747    339448.78946                  21825875.4344
        25.2504         24.2504
  23912470.1564   -2746302.61845  -1930281.43245                  23912490.9884
         9.5004         10.2504
  24206010.8134   17046902.74345   5449062.47245                  24206023.3324
         9.5004         10.0004
  21285372.3364   -1470289.12948  -1145687.38547                  21285380.9304
        31.0004         30.5004
 00  5 11 20 34  0.0000000  0  8G26G 5G 6G17G10G23G24G30
  23727780.6564   -3302931.65045  -2438353.69045                  23727797.8984
        10.0004         10.0004
  23100714.5944   14586417.86746  11366006.72146                  23100730.3594
        14.5004         14.7504
  20684555.7274  -15208201.75348 -11783931.76947                  20684562.9144
        30.7504         30.5004
  21891993.1094  -15518195.36347 -11912437.05947                  21892001.9024
        25.5004         26.2504
  21832174.5704     468770.63247    365277.79946                  21832183.0004
        25.5004         24.2504
  23902180.2974   -2800373.48245  -1972414.27145                  23902200.8094
         8.2504          9.5004
  24212623.5084   17081655.47345   5476142.47045                  24212635.6764
        10.2504         10.5004
  21290946.4774   -1440997.52248  -1122862.81347                  21290955.0234
        30.5004         30.5004
 00  5 11 20 34 15.0000000  0  8G26G 5G 6G17G10G23G24G30
  23719302.8054   -3347483.19845  -2473068.93645                  23719318.3954
         9.5004         10.2504
  23109964.2114   14635022.52446  11403880.26946                  23109979.5554
        14.2504         14.5004
  20680232.7424  -15230919.43948 -11801633.85847                  20680240.0594
        30.5004         30.5004
  21887092.5704  -15543948.12047 -11932504.11847                  21887101.3404
        25.2504         26.2504
  21838501.4534     502018.16147    391184.94946                  21838509.8594
        25.2504         24.5004
  23891897.6954   -2854409.92445  -2014520.28345                  23891919.1604
         9.0004          9.7504
  24219234.4144   17116393.37245   5503210.88345                  24219247.2384
        10.0004         10.2504
  21296541.4384   -1411595.04448  -1099951.85247                  21296550.1254
        30.5004         30.5004
 00  5 11 20 34 30.0000000  0  8G26G 5G 6G17G10G23G24G30
  23710828.0474   -3392014.93445  -2507768.77145                  23710845.1724
         9.7504         10.2504
  23119218.3364   14683654.36746  11441775.00346                  23119233.2344
        13.2504         14.2504
  20675922.0234  -15253573.10548 -11819286.06447                  20675929.2114
        30.7504         30.5004
  21882201.1724  -15569653.00447 -11952533.87147                  21882209.6604
        25.5004         26.0004
  21844846.8754     535363.40447    417168.23046                  21844855.3054
        25.5004         24.5004
  23881621.0394   -2908413.78445  -2056600.93845                  23881641.4804
         9.2504         10.5004
  24225841.6024   17151114.26445   5530266.03945                  24225852.9734
         9.0004          9.2504
  21302157.4064   -1382084.01848  -1076956.30947                  21302165.9654
        30.5004         30.5004
 00  5 11 20 34 45.0000000  0  8G26G 5G 6G17G10G23G24G30
  23702358.7584   -3436522.09745  -2542449.46845                  23702375.0634
        10.5004         10.2504
  23128478.8594   14732317.42646  11479694.04646                  23128494.4494
        13.2504         14.2504
  20671624.1334  -15276158.24248 -11836884.86747                  20671631.4384
        30.7504         30.5004
  21877319.6174  -15595305.79847 -11972523.03747                  21877328.0704
        26.2504         26.2504
  21851211.6024     568810.21147    443230.65746                  21851219.8914
        25.5004         24.5004
  23871351.4774   -2962380.41445  -2098652.56645                  23871372.5554
         9.2504         10.2504
  24232446.1254   17185822.42945   5557311.31645                  24232458.2464
         9.2504         10.0004
  21307794.6804   -1352460.50748  -1053873.11447                  21307803.3674
        30.5004         30.2504
 00  5 11 20 35  0.0000000  0  8G26G 5G 6G17G10G23G24G30
  23693893.6804   -3481006.70845  -2577112.59745                  23693909.8324
        10.0004         10.7504
  23137744.9454   14781008.79946  11517635.12646                  23137760.4064
        13.5004         14.0004
  20667338.8524  -15298677.03748 -11854431.98247                  20667346.1214
        30.2504         30.2504
  21872447.3364  -15620908.93447 -11992473.51247                  21872455.8244
        26.0004         26.5004
  21857595.0394     602355.81847    469370.06946                  21857603.5274
        25.5004         24.7504
  23861088.3444   -3016312.03245  -2140676.92245                  23861109.4454
         9.2504         10.5004
  24239048.1414   17220515.34745   5584344.67045                  24239061.4104
         9.5004          9.5004
  21313452.7344   -1322727.31848  -1030704.45747                  21313461.3524
        30.2504         30.0004
 00  5 11 20 35 15.0000000  0  8G26G 5G 6G17G10G23G24G30
  23685432.5164   -3525467.44045  -2611757.16345                  23685448.7854
         9.5004         10.0004
  23147016.1254   14829729.23746  11555598.90646                  23147031.9384
        13.5004         14.2504
  20663066.3984  -15321128.35148 -11871926.51047                  20663073.5274
        30.7504         30.5004
  21867584.8444  -15646461.51447 -12012384.58847                  21867593.3444
        26.0004         26.2504
  21863997.5164     636000.93647    495587.02846                  21864005.8754
        25.7504         24.7504
  23850832.0474   -3070207.31945  -2182672.93845                  23850852.7734
         8.2504         10.5004
  24245647.8984   17255194.03245   5611366.94645                  24245661.6374
         9.5004          9.5004
  21319131.7894   -1292883.64448  -1007449.70547                  21319140.5124
        30.2504         30.2504
 00  5 11 20 35 30.0000000  0  8G26G 5G 6G17G10G23G24G30
  23676977.3364   -3569900.60445  -2646380.14745                  23676994.5084
         9.7504          9.5004
  23156293.4454   14878481.55446  11593587.55146                  23156309.0004
        13.0004         14.5004
  20658807.7114  -15343508.73148 -11889365.76647                  20658814.8404
        30.5004         30.5004
  21862732.6414  -15671960.26747 -12032253.72647                  21862741.1174
        26.2504         26.5004
  21870419.6644     669748.67347    521883.94546                  21870428.2464
        25.7504         24.5004
  23840583.3284   -3124062.85045  -2224637.96845                  23840603.8524
        10.2504         11.0004
  24252244.1724   17289861.60845   5638380.57845                  24252257.8874
         8.0004          8.7504
  21324832.5004   -1262926.65148   -984106.65347                  21324841.3754
        29.7504         30.2504
 00  5 11 20 35 45.0000000  0  8G26G 5G 6G17G10G23G24G30
  23668525.8444   -3614311.79445  -2680986.09745                  23668541.4804
         9.7504         10.2504
  23165575.9844   14927259.34746  11631595.99546                  23165591.8674
        14.2504         14.5004
  20654561.1724  -15365823.90448 -11906754.21447                  20654568.3714
        30.5004         30.5004
  21857889.2504  -15697411.34347 -12052085.71047                  21857897.9264
        26.0004         26.5004
  21876859.7424     703592.50547    548255.74246                  21876868.3484
        25.5004         24.7504
  23830341.2974   -3177884.28745  -2266576.50345                  23830360.6844
         9.5004         11.5004
  24258838.0944   17324512.07245   5665380.89945                  24258850.3914
         9.0004          8.7504
  21330553.4224   -1232862.63148   -960680.21047                  21330562.1914
        30.0004         30.2504
 00  5 11 20 36  0.0000000  0  8G26G 5G 6G17G10G23G24G30
  23660080.0084   -3658697.57145  -2715572.18645                  23660096.6524
         9.5004         10.2504
  23174863.7194   14976065.36046  11669626.46046                  23174878.6994
        14.5004         15.0004
  20650327.7274  -15388070.53648 -11924089.25047                  20650334.8444
        30.5004         30.5004
  21853056.0944  -15722811.71247 -12071878.18647                  21853064.8284
        26.2504         26.5004
  21883318.9224     737535.22347    574704.59146                  21883327.7034
        25.5004         24.5004
  23820106.2034   -3231668.30945  -2308485.82445                  23820126.0944
         9.7504         11.2504
  24265429.6414   17359148.49445   5692370.18345                  24265442.1954
         9.0004          8.7504
  21336295.4064   -1202688.79248   -937168.18047                  21336304.0824
        30.0004         30.0004
 00  5 11 20 36 15.0000000  0  8G26G 5G 6G17G10G23G24G30
  23651636.9844   -3703062.52845  -2750142.03445                  23651653.4064
         9.7504         10.7504
  23184155.4064   15024894.22346  11707674.70846                  23184171.1724
        14.0004         14.5004
  20646106.7194  -15410253.53348 -11941374.70147                  20646113.8364
        30.7504         30.5004
  21848230.8984  -15748166.47947 -12091635.12847                  21848239.7974
        26.2504         26.5004
  21889795.7034     771571.38247    601226.25846                  21889804.4264
        25.2504         25.0004
  23809877.4844   -3285419.73645  -2350369.77445                  23809897.5984
        10.0004         11.5004
  24272016.3204   17393765.69145   5719344.62745                  24272028.1844
         9.5004          8.2504
  21342057.2814   -1172410.51948   -913574.78247                  21342066.1334
        30.0004         30.0004
 00  5 11 20 36 30.0000000  0  8G26G 5G 6G17G10G23G24G30
  23643200.0314   -3747398.68445  -2784689.49345                  23643215.8674
        10.0004         10.7504
  23193453.2114   15073753.23146  11745746.45546                  23193470.1604
        13.0004         13.7504
  20641898.9384  -15432364.99148 -11958604.40747                  20641906.0554
        30.5004         30.5004
  21843416.2034  -15773468.03447 -12111350.60347                  21843425.1024
        25.5004         26.5004
  21896292.0704     805708.40247    627826.51346                  21896300.9574
        26.0004         24.7504
  23799656.4534   -3339130.64745  -2392222.11545                  23799676.3444
         9.7504         11.0004
  24278601.7194   17428371.27445   5746309.96045                  24278612.5984
         9.0004          8.2504
  21347840.2034   -1142020.54548   -889894.35147                  21347848.8444
        30.2504         30.0004
